[[{"header":{"parameterUnit":"m.s-1","parameterCategory":1,"la1":31.0,"la2":29.5877,"lo1":-88.7671,"lo2":-86.6584,"dy":0.0162,"dx":0.0185,"nx":115,"ny":88,"refTime":"2023-05-13T12:00:00:Z","depth":0,"parameterNumber":2,"parameterNumberName":"U-component_of_WINDS"},"data":[0.0,0.0,0.0,0.0,0.0,0.0,0.0,0.0,0.0,0.0,0.0,0.0,0.0,0.0,0.0,0.0,0.0,0.0,0.0,0.0,0.0,0.0,0.0,0.0,0.0,0.0,0.0,0.0,0.0,0.0,0.0,0.0,0.0,0.0,0.0,0.0,0.0,0.0,0.0,0.0,0.0,0.0,0.0,0.0,0.0,0.0,0.0,0.0,0.0,0.0,0.0,0.0,0.0,0.0,0.0,0.0,0.0,0.0,0.0,0.0,0.0,0.0,0.0,0.0,0.0,0.0,0.0,0.0,0.0,0.0,0.0,0.0,0.0,0.0,0.0,0.0,0.0,0.0,0.0,0.0,0.0,0.0,0.0,0.0,0.0,0.0,0.0,0.0,0.0,0.0,0.0,0.0,0.0,0.0,0.0,0.0,0.0,0.0,0.0,0.0,0.0,0.0,0.0,0.0,0.0,0.0,0.0,0.0,0.0,0.0,0.0,0.0,0.0,0.0,0.0,0.0,0.0,0.0,0.0,0.0,0.0,0.0,0.0,0.0,0.0,0.0,0.0,0.0,0.0,0.0,0.0,0.0,0.0,0.0,0.0,0.0,0.0,0.0,0.0,0.0,0.0,0.0,0.0,0.0,0.0,0.0,0.0,0.0,0.0,0.0,0.0,0.0,0.0,0.0,0.0,0.0,0.0,0.0,0.0,0.0,0.0,0.0,0.0,0.0,0.0,0.0,0.0,0.0,0.0,0.0,0.0,0.0,0.0,0.0,0.0,0.0,0.0,0.0,0.0,0.0,0.0,0.0,0.0,0.0,0.0,0.0,0.0,0.0,0.0,0.0,0.0,0.0,0.0,0.0,0.0,0.0,0.0,0.0,0.0,0.0,0.0,0.0,0.0,0.0,0.0,0.0,0.0,0.0,0.0,0.0,0.0,0.0,0.0,0.0,0.0,0.0,0.0,0.0,0.0,0.0,0.0,0.0,0.0,0.0,0.0,0.0,0.0,0.0,0.0,0.0,0.0,0.0,0.0,0.0,0.0,0.0,0.0,0.0,0.0,0.0,0.0,0.0,0.0,0.0,0.0,0.0,0.0,0.0,0.0,0.0,0.0,0.0,0.0,0.0,0.0,0.0,0.0,0.0,0.0,0.0,0.0,0.0,0.0,0.0,0.0,0.0,0.0,0.0,0.0,0.0,0.0,0.0,0.0,0.0,0.0,0.0,0.0,0.0,0.0,0.0,0.0,0.0,0.0,0.0,0.0,0.0,0.0,0.0,0.0,0.0,0.0,0.0,0.0,0.0,0.0,0.0,0.0,0.0,0.0,0.0,0.0,0.0,0.0,0.0,0.0,0.0,0.0,0.0,0.0,0.0,0.0,0.0,0.0,0.0,0.0,0.0,0.0,0.0,0.0,0.0,0.0,0.0,0.0,0.0,0.0,0.0,0.0,0.0,0.0,0.0,0.0,0.0,0.0,0.0,0.0,0.0,0.0,0.0,0.0,0.0,0.0,0.0,0.0,0.0,0.0,0.0,0.0,0.0,0.0,0.0,0.0,0.0,0.0,0.0,0.0,0.0,0.0,0.0,0.0,0.0,0.0,0.0,0.0,0.0,0.0,0.0,0.0,0.0,0.0,0.0,0.0,0.0,0.0,0.0,0.0,0.0,0.0,0.0,0.0,0.0,0.0,0.0,0.0,0.0,0.0,0.0,0.0,0.0,0.0,0.0,0.0,0.0,0.0,0.0,0.0,0.0,0.0,0.0,0.0,0.0,0.0,0.0,0.0,0.0,0.0,0.0,0.0,0.0,0.0,0.0,0.0,0.0,0.0,0.0,0.0,0.0,0.0,0.0,0.0,0.0,0.0,0.0,0.0,0.0,0.0,0.0,0.0,0.0,0.0,0.0,0.0,0.0,0.0,0.0,0.0,0.0,0.0,0.0,0.0,0.0,0.0,0.0,0.0,0.0,0.0,0.0,0.0,0.0,0.0,0.0,0.0,0.0,0.0,0.0,0.0,0.0,0.0,0.0,0.0,0.0,0.0,0.0,0.0,0.0,0.0,0.0,0.0,0.0,0.0,0.0,0.0,0.0,0.0,0.0,0.0,0.0,0.0,0.0,0.0,0.0,0.0,0.0,0.0,0.0,0.0,0.0,0.0,0.0,0.0,0.0,0.0,0.0,0.0,0.0,0.0,0.0,0.0,0.0,0.0,0.0,0.0,0.0,0.0,0.0,0.0,0.0,0.0,0.0,0.0,0.0,0.0,0.0,0.0,0.0,0.0,0.0,0.0,0.0,0.0,0.0,0.0,0.0,0.0,0.0,0.0,0.0,0.0,0.0,0.0,0.0,0.0,0.0,0.0,0.0,0.0,0.0,0.0,0.0,0.0,0.0,0.0,0.0,0.0,0.0,0.0,0.0,0.0,0.0,0.0,0.0,0.0,0.0,0.0,0.0,0.0,0.0,0.0,0.0,0.0,0.0,0.0,0.0,0.0,0.0,0.0,0.0,0.0,0.0,0.0,0.0,0.0,0.0,0.0,0.0,0.0,0.0,0.0,0.0,0.0,0.0,0.0,0.0,0.0,0.0,0.0,0.0,0.0,0.0,0.0,0.0,0.0,0.0,0.0,0.0,0.0,0.0,0.0,0.0,0.0,0.0,0.0,0.0,0.0,0.0,0.0,0.0,0.0,0.0,0.0,0.0,0.0,0.0,0.0,0.0,0.0,0.0,0.0,0.0,0.0,0.0,0.0,0.0,0.0,0.0,0.0,0.0,0.0,0.0,0.0,0.0,0.0,0.0,0.0,0.0,0.0,0.0,0.0,0.0,0.0,0.0,0.0,0.0,0.0,0.0,0.0,0.0,0.0,0.0,0.0,0.0,0.0,0.0,0.0,0.0,0.0,0.0,0.0,0.0,0.0,0.0,0.0,0.0,0.0,0.0,0.0,0.0,0.0,0.0,0.0,0.0,0.0,0.0,0.0,0.0,0.0,0.0,0.0,0.0,0.0,0.0,0.0,0.0,0.0,0.0,0.0,0.0,0.0,0.0,0.0,0.0,0.0,0.0,0.0,0.0,0.0,0.0,0.0,0.0,0.0,0.0,0.0,0.0,0.0,0.0,0.0,0.0,0.0,0.0,0.0,0.0,0.0,0.0,0.0,0.0,0.0,0.0,0.0,0.0,0.0,0.0,0.0,0.0,0.0,0.0,0.0,0.0,0.0,0.0,0.0,0.0,0.0,0.0,0.0,0.0,0.0,0.0,0.0,0.0,0.0,0.0,0.0,0.0,0.0,0.0,0.0,0.0,0.0,0.0,0.0,0.0,0.0,0.0,0.0,0.0,0.0,0.0,0.0,0.0,0.0,0.0,0.0,0.0,0.0,0.0,0.0,0.0,0.0,0.0,0.0,0.0,0.0,0.0,0.0,0.0,0.0,0.0,0.0,0.0,0.0,0.0,0.0,0.0,0.0,0.0,0.0,0.0,0.0,0.0,0.0,0.0,0.0,0.0,0.0,0.0,0.0,0.0,0.0,0.0,0.0,0.0,0.0,0.0,0.0,0.0,0.0,0.0,0.0,0.0,0.0,0.0,0.0,0.0,0.0,0.0,0.0,0.0,0.0,0.0,0.0,0.0,0.0,0.0,0.0,0.0,0.0,0.0,0.0,0.0,0.0,0.0,0.0,0.0,0.0,0.0,0.0,0.0,0.0,0.0,0.0,0.0,0.0,0.0,0.0,0.0,0.0,0.0,0.0,0.0,0.0,0.0,0.0,0.0,0.0,0.0,0.0,0.0,0.0,0.0,0.0,0.0,0.0,0.0,0.0,0.0,0.0,0.0,0.0,0.0,0.0,0.0,0.0,0.0,0.0,0.0,0.0,0.0,0.0,0.0,0.0,0.0,0.0,0.0,0.0,0.0,0.0,0.0,0.0,0.0,0.0,0.0,0.0,0.0,0.0,0.0,0.0,0.0,0.0,0.0,0.0,0.0,0.0,0.0,0.0,0.0,0.0,0.0,0.0,0.0,0.0,0.0,0.0,0.0,0.0,0.0,0.0,0.0,0.0,0.0,0.0,0.0,0.0,0.0,0.0,0.0,0.0,0.0,0.0,0.0,0.0,0.0,0.0,0.0,0.0,0.0,0.0,0.0,0.0,0.0,0.0,0.0,0.0,0.0,0.0,0.0,0.0,0.0,0.0,0.0,0.0,0.0,0.0,0.0,0.0,0.0,0.0,0.0,0.0,0.0,0.0,0.0,0.0,0.0,0.0,0.0,0.0,0.0,0.8648,0.0,0.0,0.0,0.0,0.0,0.0,0.0,0.0,0.0,0.0,0.0,0.0,0.0,0.0,0.0,0.0,0.0,0.0,0.0,0.0,0.0,0.0,0.0,0.0,0.0,0.0,0.0,0.0,0.0,0.0,0.0,0.0,0.0,0.0,0.0,0.0,0.0,0.0,0.0,0.0,0.0,0.0,0.0,0.0,0.0,0.0,0.0,0.0,0.0,0.0,0.0,0.0,0.0,0.0,0.0,0.0,0.0,0.0,0.0,0.0,0.0,0.0,0.0,0.0,0.0,0.0,0.0,0.0,0.0,0.0,0.0,0.0,0.0,0.0,0.0,0.0,0.0,0.0,0.0,0.0,0.0,0.0,0.0,0.0,0.0,0.0,0.0,0.0,0.0,0.0,0.0,0.0,0.0,0.0,0.0,0.0,0.0,0.0,0.0,0.0,0.0,0.0,0.0,0.0,0.0,0.0,0.0,0.0,0.0,0.0,0.8615,0.828,0.8303,0.8293,0.824,0.0,0.0,0.0,0.0,0.0,0.0,0.0,0.0,0.0,0.0,0.0,0.0,0.0,0.0,0.0,0.0,0.0,0.0,0.0,0.0,0.0,0.0,0.0,0.0,0.0,0.0,0.0,0.0,0.0,0.0,0.0,0.0,0.0,0.0,0.0,0.0,0.0,0.0,0.0,0.0,0.0,0.0,0.0,0.0,0.0,0.0,0.0,0.0,0.0,0.0,0.0,0.0,0.0,0.0,0.0,0.0,0.0,0.0,0.0,0.0,0.0,0.0,0.0,0.0,0.0,0.0,0.0,0.0,0.0,0.0,0.0,0.0,0.0,0.0,0.0,0.0,0.0,0.0,0.0,0.0,0.0,0.0,0.0,0.0,0.0,0.0,0.0,0.0,0.0,0.0,0.0,0.0,0.0,0.0,0.0,0.0,0.0,0.0,0.0,0.0,0.0,0.0,0.0,0.0,0.0,0.0,0.0,0.0,0.0,0.0,0.0,0.0,0.7937,0.7937,0.791,0.0,0.0,0.0,0.0,0.0,0.0,0.0,0.0,0.0,0.0,0.0,0.0,0.0,0.0,0.0,0.0,0.0,0.0,0.0,0.0,0.0,0.0,0.0,0.0,0.0,0.0,0.0,0.0,0.0,0.0,0.0,0.0,0.0,0.0,0.0,0.0,0.0,0.0,0.0,0.0,0.0,0.0,0.0,0.0,0.0,0.0,0.0,0.0,0.0,0.0,0.0,0.0,0.0,0.0,0.0,0.0,0.0,0.0,0.0,0.0,0.0,0.0,0.0,0.0,0.0,0.0,0.0,0.0,0.0,0.0,0.0,0.0,0.0,0.0,0.0,0.0,0.0,0.0,0.0,0.0,0.0,0.0,0.0,0.0,0.0,0.0,0.0,0.0,0.0,0.0,0.0,0.0,0.0,0.0,0.0,0.0,0.0,0.0,0.0,0.0,0.0,0.0,0.0,0.0,0.0,0.0,0.0,0.0,0.0,0.0,0.7895,0.7738,0.7782,0.0,0.7894,0.0,0.0,0.0,0.0,0.0,0.0,0.0,0.0,0.0,0.0,0.0,0.0,0.0,0.0,0.0,0.0,0.0,0.0,0.0,0.0,0.0,0.0,0.0,0.0,0.0,0.0,0.0,0.0,0.0,0.0,0.0,0.0,0.0,0.0,0.0,0.0,0.0,0.0,0.0,0.0,0.0,0.0,0.0,0.0,0.0,0.0,0.0,0.0,0.0,0.0,0.0,0.0,0.0,0.0,0.0,0.0,0.0,0.0,0.0,0.0,0.0,0.0,0.0,0.0,0.0,0.0,0.0,0.0,0.0,0.0,0.0,0.0,0.0,0.0,0.0,0.0,0.0,0.0,0.0,0.0,0.0,0.0,0.0,0.0,0.0,0.0,0.0,0.0,0.0,0.0,0.0,0.0,0.0,0.0,0.0,0.0,0.0,0.0,0.0,0.0,0.0,0.0,0.0,0.0,0.0,0.0,0.0,0.0,0.0,0.0,0.7444,0.7349,0.741,0.7393,0.0,0.0,0.0,0.0,0.0,0.0,0.0,0.0,0.0,0.0,0.0,0.0,0.0,0.0,0.0,0.0,0.0,0.0,0.0,0.0,0.0,0.0,0.0,0.0,0.0,0.0,0.0,0.0,0.0,0.0,0.0,0.0,0.0,0.0,0.0,0.0,0.0,0.0,0.0,0.0,0.0,0.0,0.0,0.0,0.0,0.0,0.0,0.0,0.0,0.0,0.0,0.0,0.0,0.0,0.0,0.0,0.0,0.0,0.0,0.0,0.0,0.0,0.0,0.0,0.0,0.0,0.0,0.0,0.0,0.0,0.0,0.0,0.0,0.0,0.0,0.0,0.0,0.0,0.0,0.0,0.0,0.0,0.0,0.0,0.0,0.0,0.0,0.0,0.0,0.0,0.0,0.0,0.0,0.0,0.0,0.0,0.0,0.0,0.0,0.0,0.0,0.0,0.0,0.0,0.0,0.0,0.0,0.0,0.0,0.0,0.7109,0.6978,0.6986,0.6855,0.6781,0.6744,0.0,0.0,0.0,0.0,0.0,0.0,0.0,0.0,0.0,0.0,0.0,0.0,0.0,0.0,0.0,0.0,0.0,0.0,0.0,0.0,0.0,0.0,0.0,0.0,0.0,0.0,0.0,0.0,0.0,0.0,0.0,0.0,0.0,0.0,0.0,0.0,0.0,0.0,0.0,0.0,0.0,0.0,0.0,0.0,0.0,0.0,0.0,0.0,0.0,0.0,0.0,0.0,0.0,0.0,0.0,0.0,0.0,0.0,0.0,0.0,0.0,0.0,0.0,0.0,0.0,0.0,0.0,0.0,0.0,0.0,0.0,0.0,0.0,0.0,0.0,0.0,0.0,0.0,0.0,0.0,0.0,0.0,0.0,0.0,0.0,0.0,0.0,0.0,0.0,0.0,0.0,0.0,0.0,0.0,0.0,0.0,0.0,0.0,0.0,0.0,0.0,0.0,0.0,0.0,0.0,0.0,0.0,0.0,0.746,0.6799,0.6536,0.6693,0.6112,0.6022,0.0,0.0,0.0,0.0,0.0,0.0,0.0,0.0,0.0,0.0,0.0,0.0,0.0,0.0,0.0,0.0,0.0,0.0,0.0,0.0,0.0,0.0,0.0,0.0,0.0,0.0,0.0,0.0,0.0,0.0,0.0,0.0,0.0,0.0,0.0,0.0,0.0,0.0,0.0,0.0,0.0,0.0,0.0,0.0,0.0,0.0,0.0,0.0,0.0,0.0,0.0,0.0,0.0,0.0,0.0,0.0,0.0,0.0,0.0,0.0,0.0,0.0,0.0,0.0,0.0,0.0,0.0,0.0,0.0,0.0,0.0,0.0,0.0,0.0,0.0,0.0,0.0,0.0,0.0,0.0,0.0,0.0,0.0,0.0,0.0,0.0,0.0,0.0,0.0,0.0,0.0,0.0,0.0,0.0,0.0,0.0,0.0,0.0,0.0,0.0,0.0,0.0,0.0,0.0,0.0,0.0,0.0,0.0,0.0,0.66,0.6212,0.6114,0.6296,0.6564,0.681,0.0,0.0,0.0,0.0,0.0,0.0,0.0,0.0,0.0,0.0,0.0,0.0,0.0,0.0,0.0,0.0,0.0,0.0,0.0,0.0,0.0,0.0,0.0,0.0,0.0,0.0,0.0,0.0,0.0,0.0,0.0,0.0,0.0,0.0,0.0,0.0,0.0,0.0,0.0,0.0,0.0,0.0,0.0,0.0,0.0,0.0,0.0,0.0,0.0,0.0,0.0,0.0,0.0,0.0,0.0,0.0,0.0,0.0,0.0,0.0,0.0,0.0,0.0,0.0,0.0,0.0,0.0,0.0,0.0,0.0,0.0,0.0,0.0,0.0,0.0,0.0,0.0,0.0,0.0,0.0,0.0,0.0,0.0,0.0,0.0,0.0,0.0,0.0,0.0,0.0,0.0,0.0,0.0,0.0,0.0,0.0,0.0,0.0,0.0,0.0,0.0,0.0,0.0,0.0,0.0,0.0,0.0,0.0,0.0,0.4686,0.0,0.3915,0.4452,0.4766,0.5439,0.0,0.0,0.0,0.0,0.0,0.0,0.0,0.0,0.0,0.0,0.0,0.0,0.0,0.0,0.0,0.0,0.0,0.0,0.0,0.0,0.0,0.0,0.0,0.0,0.0,0.0,0.0,0.0,0.0,0.0,0.0,0.0,0.0,0.0,0.0,0.0,0.0,0.0,0.0,0.0,0.0,0.0,0.0,0.0,0.0,0.0,0.0,0.0,0.0,0.0,0.0,0.0,0.0,0.0,0.0,0.0,0.0,0.0,0.0,0.0,0.0,0.0,0.0,0.0,0.0,0.0,0.0,0.0,0.0,0.0,0.0,0.0,0.0,0.0,0.0,0.0,0.0,0.0,0.0,0.0,0.0,0.0,0.0,0.0,0.0,0.0,0.0,0.0,0.0,0.0,0.0,0.0,0.0,0.0,0.0,0.0,0.0,0.0,0.0,0.0,0.0,0.0,0.0,0.0,0.0,0.0,0.0,0.0,0.4553,0.1692,-0.0025,-0.0228,0.0967,0.0385,0.1612,0.0,0.0,0.0,0.0,0.0,0.0,0.0,0.0,0.0,0.0,0.0,0.0,0.0,0.0,0.0,0.0,0.0,0.0,0.0,0.0,0.0,0.0,0.0,0.0,0.0,0.0,0.0,0.0,0.0,0.0,0.0,0.0,0.0,0.0,0.0,0.0,0.0,0.0,0.0,0.0,0.0,0.0,0.0,0.0,0.0,0.0,0.0,0.0,0.0,0.0,0.0,0.0,0.0,0.0,0.0,0.0,0.0,0.0,0.0,0.0,0.0,0.0,0.0,0.0,0.0,0.0,0.0,0.0,0.0,0.0,0.0,0.0,0.0,0.0,0.0,0.0,0.0,0.0,0.0,0.0,0.0,0.0,0.0,0.0,0.0,0.0,0.0,0.0,0.0,0.0,0.0,0.0,0.0,0.0,0.0,0.0,0.0,0.0,0.0,0.0,0.0,0.0,0.0,0.0,0.0,0.0,0.0,0.0,0.0,-0.0826,-0.2683,-0.351,-0.3199,-0.3438,-0.1975,0.0,0.0,0.0,0.0,0.0,0.0,0.0,0.0,0.0,0.0,0.0,0.0,0.0,0.0,0.0,0.0,0.0,0.0,0.0,0.0,0.0,0.0,0.0,0.0,0.0,0.0,0.0,0.0,0.0,0.0,0.0,0.0,0.0,0.0,0.0,0.0,0.0,0.0,0.0,0.0,0.0,0.0,0.0,0.0,0.0,0.0,0.0,0.0,0.0,0.0,0.0,0.0,0.0,0.0,0.0,0.0,0.0,0.0,0.0,0.0,0.0,0.0,0.0,0.0,0.0,0.0,0.0,0.0,0.0,0.0,0.0,0.0,0.0,0.0,0.0,0.0,0.0,0.0,0.0,0.0,0.0,0.0,0.0,0.0,0.0,0.0,0.0,0.0,0.0,0.0,0.0,0.0,0.0,0.0,0.0,0.0,0.0,0.0,0.0,0.0,0.0,0.0,0.0,0.0,0.0,0.0,0.0,0.0,0.0,-0.6412,-0.7875,-0.8563,-0.8377,-0.8288,-0.6689,-0.3416,0.0,0.0,0.0,0.0,0.0,0.0,0.0,0.0,0.0,0.0,0.0,0.0,0.0,0.0,0.0,0.0,0.0,0.0,0.0,0.0,0.0,0.0,0.0,0.0,0.0,0.0,0.0,0.0,0.0,0.0,0.0,0.0,0.0,0.0,0.0,0.0,0.0,0.0,0.0,0.0,0.0,0.0,0.0,0.0,0.0,0.0,0.0,0.0,0.0,0.0,0.0,0.0,0.0,0.0,0.0,0.0,0.0,0.0,0.0,0.0,0.0,0.0,0.0,0.0,0.0,0.0,0.0,0.0,0.0,0.0,0.0,0.0,0.0,0.0,0.0,0.0,0.0,0.0,0.0,0.0,0.0,0.0,0.0,0.0,0.0,0.0,0.0,0.0,0.0,0.0,0.0,0.0,0.0,0.0,0.0,0.0,0.0,0.0,0.0,0.0,0.0,0.0,0.0,0.0,0.0,0.0,0.0,0.0,-1.4174,-1.5088,-1.5121,-1.427,-1.3949,-1.2284,0.0,0.0,0.0,0.0,0.0,0.0,0.0,0.0,0.0,0.0,0.0,0.0,0.0,0.0,0.0,0.0,0.0,0.0,0.0,0.0,0.0,0.0,0.0,0.0,0.0,0.0,0.0,0.0,0.0,0.0,0.0,0.0,0.0,0.0,0.0,0.0,0.0,0.0,0.0,0.0,0.0,0.0,0.0,0.0,0.0,0.0,0.0,0.0,0.0,0.0,0.0,0.0,0.0,0.0,0.0,0.0,0.0,0.0,0.0,0.0,0.0,0.0,0.0,0.0,0.0,0.0,0.0,0.0,0.0,0.0,0.0,0.0,0.0,0.0,0.0,0.0,0.0,0.0,0.0,0.0,0.0,0.0,0.0,0.0,0.0,0.0,0.0,0.0,0.0,0.0,0.0,0.0,0.0,0.0,0.0,0.0,0.0,0.0,0.0,0.0,0.0,0.0,0.0,0.0,0.0,0.0,0.0,0.0,0.0,-1.8019,-2.0852,-2.1163,-1.883,-1.8955,-1.7331,0.0,0.0,0.0,0.0,0.0,0.0,0.0,0.0,0.0,0.0,0.0,0.0,0.0,0.0,0.0,0.0,0.0,0.0,0.0,0.0,0.0,0.0,0.0,0.0,0.0,0.0,0.0,0.0,0.0,0.0,0.0,0.0,0.0,0.0,0.0,0.0,0.0,0.0,0.0,0.0,0.0,0.0,0.0,0.0,0.0,0.0,0.0,0.0,0.0,0.0,0.0,0.0,0.0,0.0,0.0,0.0,0.0,0.0,0.0,0.0,0.0,0.0,0.0,0.0,0.0,0.0,0.0,0.0,0.0,0.0,0.0,0.0,0.0,0.0,0.0,0.0,0.0,0.0,0.0,0.0,0.0,0.0,0.0,0.0,0.0,0.0,0.0,0.0,0.0,0.0,0.0,0.0,0.0,0.0,0.0,0.0,0.0,0.0,0.0,0.0,0.0,0.0,0.0,0.0,0.0,0.0,0.0,0.0,-1.7482,-2.0856,-2.4172,-2.5114,-2.3467,-2.2899,-2.1221,0.0,0.0,0.0,0.0,0.0,0.0,0.0,0.0,0.0,0.0,0.0,0.0,0.0,0.0,0.0,0.0,0.0,0.0,0.0,0.0,0.0,0.0,0.0,0.0,0.0,0.0,0.0,0.0,0.0,0.0,0.0,0.0,0.0,0.0,0.0,0.0,0.0,0.0,0.0,0.0,0.0,0.0,0.0,0.0,0.0,0.0,0.0,0.0,0.0,0.0,0.0,0.0,0.0,0.0,0.0,0.0,0.0,0.0,0.0,0.0,0.0,0.0,0.0,0.0,0.0,0.0,0.0,0.0,0.0,0.0,0.0,0.0,0.0,0.0,0.0,0.0,0.0,0.0,0.0,0.0,0.0,0.0,0.0,0.0,0.0,0.0,0.0,0.0,0.0,0.0,0.0,0.0,0.0,0.0,0.0,0.0,0.0,0.0,0.0,0.0,0.0,0.0,0.0,0.0,0.0,0.0,0.0,0.0,-1.9982,-2.3079,-2.5966,-2.7585,-2.7819,-2.5996,-2.4166,0.0,0.0,0.0,0.0,0.0,0.0,0.0,0.0,0.0,0.0,0.0,0.0,0.0,0.0,0.0,0.0,0.0,0.0,0.0,0.0,0.0,0.0,0.0,0.0,0.0,0.0,0.0,0.0,0.0,0.0,0.0,0.0,0.0,0.0,0.0,0.0,0.0,0.0,0.0,0.0,0.0,0.0,0.0,0.0,0.0,0.0,0.0,0.0,0.0,0.0,0.0,0.0,0.0,0.0,0.0,0.0,0.0,0.0,0.0,0.0,0.0,0.0,0.0,0.0,0.0,0.0,0.0,0.0,0.0,0.0,0.0,0.0,0.0,0.0,0.0,0.0,0.0,0.0,0.0,0.0,0.0,0.0,0.0,0.0,0.0,0.0,0.0,0.0,0.0,0.0,0.0,0.0,0.0,0.0,0.0,0.0,0.0,0.0,0.0,0.0,0.0,0.0,0.0,0.0,0.0,0.0,0.0,0.0,-2.2078,-2.5837,-2.7593,-2.8906,-2.9764,-2.7752,-2.5996,0.0,0.0,0.0,0.0,0.0,0.0,0.0,0.0,0.0,0.0,0.0,0.0,0.0,0.0,0.0,0.0,0.0,0.0,0.0,0.0,0.0,0.0,0.0,0.0,0.0,0.0,0.0,0.0,0.0,0.0,0.0,0.0,0.0,0.0,0.0,0.0,0.0,0.0,0.0,0.0,0.0,0.0,0.0,0.0,0.0,0.0,0.0,0.0,-1.4088,0.0,0.0,0.0,0.0,0.0,0.0,0.0,0.0,0.0,0.0,0.0,0.0,0.0,0.0,0.0,0.0,0.0,0.0,0.0,0.0,0.0,0.0,0.0,0.0,0.0,0.0,0.0,0.0,0.0,0.0,0.0,0.0,0.0,0.0,0.0,0.0,0.0,0.0,0.0,0.0,0.0,0.0,0.0,0.0,0.0,0.0,0.0,0.0,0.0,0.0,0.0,0.0,0.0,0.0,0.0,0.0,0.0,0.0,0.0,-2.4829,-2.7994,-2.9838,-3.0895,-3.1086,-2.9985,-2.8034,0.0,0.0,0.0,0.0,0.0,0.0,0.0,0.0,0.0,0.0,0.0,0.0,0.0,0.0,0.0,0.0,0.0,0.0,0.0,0.0,0.0,0.0,0.0,0.0,0.0,0.0,0.0,0.0,0.0,0.0,0.0,0.0,0.0,0.0,0.0,0.0,0.0,0.0,0.0,0.0,0.0,0.0,0.0,0.0,0.0,0.0,0.0,0.0,0.0,0.0,0.0,0.0,0.0,0.0,0.0,0.0,0.0,0.0,0.0,0.0,0.0,0.0,0.0,0.0,0.0,0.0,0.0,0.0,0.0,0.0,0.0,0.0,0.0,0.0,0.0,0.0,0.0,0.0,0.0,0.0,0.0,0.0,0.0,0.0,0.0,0.0,0.0,0.0,0.0,0.0,0.0,0.0,0.0,0.0,0.0,0.0,0.0,0.0,0.0,0.0,0.0,0.0,0.0,0.0,0.0,0.0,0.0,-2.418,-2.7472,-3.0028,-3.2011,-3.2787,-3.2213,-3.1975,-2.9916,-2.5821,0.0,0.0,0.0,0.0,0.0,0.0,0.0,0.0,0.0,0.0,0.0,0.0,0.0,0.0,0.0,0.0,0.0,0.0,0.0,0.0,0.0,0.0,0.0,0.0,0.0,0.0,0.0,0.0,0.0,0.0,0.0,0.0,0.0,0.0,0.0,0.0,0.0,0.0,-2.0729,-2.185,0.0,0.0,0.0,0.0,0.0,0.0,0.0,0.0,-2.0801,0.0,0.0,0.0,0.0,0.0,0.0,0.0,0.0,0.0,0.0,0.0,0.0,0.0,0.0,0.0,0.0,0.0,0.0,0.0,0.0,0.0,0.0,0.0,0.0,0.0,0.0,0.0,0.0,0.0,0.0,0.0,0.0,0.0,0.0,0.0,0.0,0.0,0.0,0.0,0.0,0.0,0.0,0.0,0.0,0.0,0.0,0.0,0.0,0.0,0.0,0.0,0.0,0.0,0.0,0.0,0.0,-2.2647,-2.5343,-2.8602,-3.2488,-3.3031,-3.3209,-3.3158,-3.2455,-3.0661,-2.7779,0.0,0.0,0.0,0.0,0.0,0.0,0.0,0.0,0.0,0.0,0.0,0.0,0.0,0.0,0.0,0.0,0.0,0.0,0.0,0.0,0.0,0.0,0.0,0.0,0.0,0.0,0.0,0.0,0.0,0.0,0.0,0.0,0.0,0.0,0.0,0.0,0.0,0.0,0.0,-2.5278,-2.5379,0.0,0.0,0.0,0.0,0.0,0.0,0.0,0.0,-2.3777,0.0,0.0,0.0,0.0,0.0,0.0,0.0,0.0,0.0,0.0,0.0,0.0,0.0,0.0,0.0,0.0,0.0,0.0,0.0,0.0,0.0,0.0,0.0,0.0,0.0,0.0,0.0,0.0,0.0,0.0,0.0,0.0,0.0,0.0,0.0,0.0,0.0,0.0,0.0,0.0,0.0,0.0,0.0,0.0,0.0,0.0,0.0,0.0,0.0,0.0,0.0,0.0,0.0,0.0,0.0,-2.465,-2.7658,-3.0724,-3.3807,-3.4402,-3.4449,-3.4015,-3.2788,-3.1049,0.0,0.0,0.0,0.0,0.0,0.0,0.0,0.0,0.0,0.0,0.0,0.0,0.0,0.0,0.0,0.0,0.0,0.0,0.0,0.0,0.0,0.0,0.0,0.0,0.0,0.0,0.0,0.0,0.0,0.0,0.0,0.0,0.0,0.0,0.0,0.0,0.0,0.0,0.0,0.0,-2.7979,-2.829,-2.7942,0.0,0.0,0.0,0.0,0.0,0.0,-2.6066,-2.5809,0.0,0.0,0.0,0.0,0.0,0.0,0.0,0.0,0.0,0.0,0.0,0.0,0.0,0.0,0.0,0.0,0.0,0.0,0.0,0.0,0.0,0.0,0.0,0.0,0.0,0.0,0.0,0.0,0.0,0.0,0.0,0.0,0.0,0.0,0.0,0.0,0.0,0.0,0.0,0.0,0.0,0.0,0.0,0.0,0.0,0.0,0.0,0.0,0.0,0.0,0.0,0.0,0.0,0.0,0.0,-2.6622,-2.9792,-3.2522,-3.4742,-3.5505,-3.5351,-3.4311,-3.2846,-3.1166,0.0,0.0,0.0,0.0,0.0,0.0,0.0,0.0,0.0,0.0,0.0,0.0,0.0,0.0,0.0,0.0,0.0,0.0,0.0,0.0,0.0,0.0,0.0,0.0,0.0,0.0,0.0,0.0,0.0,0.0,0.0,0.0,0.0,0.0,0.0,0.0,0.0,0.0,0.0,0.0,0.0,-3.0794,-3.0459,-2.9376,0.0,0.0,0.0,0.0,-2.7372,-2.789,0.0,0.0,0.0,0.0,0.0,0.0,0.0,0.0,0.0,0.0,0.0,0.0,0.0,0.0,0.0,0.0,0.0,0.0,0.0,0.0,0.0,0.0,0.0,0.0,0.0,0.0,0.0,0.0,0.0,0.0,0.0,0.0,0.0,0.0,0.0,0.0,0.0,0.0,0.0,0.0,0.0,0.0,0.0,0.0,0.0,0.0,0.0,0.0,0.0,0.0,0.0,0.0,0.0,0.0,0.0,0.0,-2.8695,-3.0564,-3.2842,-3.5511,-3.5717,-3.4939,-3.3329,-3.2387,-3.0739,0.0,0.0,0.0,0.0,0.0,0.0,0.0,0.0,0.0,0.0,0.0,0.0,0.0,0.0,0.0,0.0,0.0,0.0,0.0,0.0,0.0,0.0,0.0,0.0,0.0,0.0,0.0,0.0,0.0,0.0,0.0,0.0,0.0,0.0,0.0,0.0,0.0,0.0,0.0,0.0,0.0,-3.2524,-3.2019,-3.1326,-3.055,0.0,0.0,-2.977,-3.0162,-3.1031,0.0,0.0,0.0,0.0,0.0,0.0,0.0,0.0,0.0,0.0,0.0,0.0,0.0,0.0,0.0,0.0,0.0,0.0,0.0,0.0,0.0,0.0,0.0,0.0,0.0,0.0,0.0,0.0,0.0,0.0,0.0,0.0,0.0,0.0,0.0,0.0,0.0,0.0,0.0,0.0,0.0,0.0,0.0,0.0,0.0,0.0,0.0,0.0,0.0,0.0,0.0,0.0,0.0,0.0,0.0,-2.5793,-2.9118,-3.1319,-3.3481,-3.558,-3.5184,-3.4544,-3.3785,-3.2085,-3.0411,0.0,0.0,0.0,0.0,0.0,0.0,0.0,0.0,0.0,0.0,0.0,0.0,0.0,0.0,0.0,0.0,0.0,0.0,0.0,0.0,0.0,0.0,0.0,0.0,0.0,0.0,0.0,0.0,0.0,0.0,0.0,0.0,0.0,0.0,0.0,0.0,0.0,0.0,0.0,0.0,0.0,0.0,-3.3455,-3.3745,0.0,0.0,0.0,-3.1167,-3.0651,0.0,0.0,0.0,0.0,0.0,0.0,0.0,0.0,0.0,0.0,0.0,0.0,0.0,0.0,0.0,0.0,0.0,0.0,0.0,0.0,0.0,0.0,0.0,0.0,0.0,0.0,0.0,0.0,0.0,0.0,0.0,0.0,0.0,0.0,0.0,0.0,0.0,0.0,0.0,0.0,0.0,0.0,0.0,0.0,0.0,0.0,0.0,0.0,0.0,0.0,0.0,0.0,0.0,0.0,0.0,0.0,0.0,-2.9188,-3.1715,-3.3703,-3.5116,-3.4554,-3.4086,-3.382,-3.1661,0.0,0.0,0.0,0.0,0.0,0.0,0.0,0.0,0.0,0.0,0.0,0.0,0.0,0.0,0.0,0.0,0.0,0.0,0.0,0.0,0.0,0.0,0.0,0.0,0.0,0.0,0.0,-2.531,0.0,0.0,0.0,0.0,0.0,0.0,0.0,0.0,0.0,0.0,0.0,0.0,0.0,0.0,-3.5284,-3.5011,-3.5883,-3.5621,0.0,0.0,-3.2379,-3.1308,-3.1581,-3.1437,0.0,0.0,0.0,0.0,0.0,0.0,0.0,0.0,0.0,0.0,0.0,0.0,0.0,0.0,0.0,0.0,0.0,0.0,0.0,0.0,0.0,0.0,0.0,0.0,0.0,0.0,0.0,0.0,0.0,0.0,0.0,0.0,0.0,0.0,0.0,0.0,0.0,0.0,0.0,0.0,0.0,0.0,0.0,0.0,0.0,0.0,0.0,0.0,0.0,0.0,0.0,0.0,0.0,0.0,0.0,-2.9168,-3.1529,-3.3185,-3.4068,-3.3997,-3.3509,-3.2638,-3.1001,-2.9423,0.0,0.0,0.0,0.0,0.0,0.0,0.0,0.0,0.0,0.0,0.0,0.0,0.0,0.0,0.0,0.0,0.0,0.0,0.0,0.0,0.0,0.0,0.0,0.0,0.0,0.0,0.0,0.0,0.0,0.0,0.0,0.0,0.0,0.0,0.0,0.0,0.0,0.0,0.0,0.0,0.0,-3.6575,-3.6776,-3.7218,-3.6955,0.0,0.0,-3.3469,-3.2901,-3.3454,-3.3064,-3.0401,0.0,0.0,0.0,0.0,0.0,0.0,0.0,0.0,0.0,0.0,0.0,0.0,0.0,0.0,0.0,0.0,0.0,0.0,0.0,0.0,0.0,0.0,0.0,0.0,0.0,0.0,0.0,0.0,0.0,0.0,0.0,0.0,0.0,0.0,0.0,0.0,0.0,0.0,0.0,0.0,0.0,0.0,0.0,0.0,0.0,0.0,0.0,0.0,0.0,0.0,0.0,0.0,0.0,-2.6533,-2.9704,-3.1508,-3.308,-3.4409,-3.3994,-3.3523,-3.3129,-3.155,-3.0202,0.0,0.0,0.0,0.0,0.0,0.0,0.0,0.0,0.0,0.0,0.0,0.0,0.0,0.0,0.0,0.0,0.0,0.0,0.0,0.0,0.0,0.0,0.0,0.0,0.0,0.0,0.0,0.0,-2.9709,-2.9691,-2.9083,0.0,0.0,0.0,0.0,0.0,0.0,0.0,0.0,0.0,0.0,-3.6917,-3.7393,-3.8018,0.0,0.0,-3.5119,-3.4299,-3.3411,-3.2934,-3.2104,-3.032,-2.8758,0.0,0.0,0.0,0.0,0.0,0.0,0.0,0.0,0.0,0.0,0.0,0.0,0.0,0.0,0.0,0.0,0.0,0.0,0.0,0.0,0.0,0.0,0.0,0.0,0.0,0.0,0.0,0.0,0.0,0.0,0.0,0.0,0.0,0.0,0.0,0.0,0.0,0.0,0.0,0.0,0.0,0.0,0.0,0.0,0.0,0.0,0.0,0.0,0.0,0.0,0.0,0.0,-2.655,-2.9546,-3.1204,-3.2745,-3.4256,-3.3747,-3.3404,-3.3245,-3.1899,-3.0715,0.0,0.0,0.0,0.0,0.0,0.0,0.0,0.0,0.0,0.0,0.0,0.0,0.0,0.0,0.0,0.0,0.0,0.0,0.0,0.0,0.0,0.0,0.0,0.0,0.0,0.0,0.0,0.0,-3.0485,-3.0174,-2.9453,0.0,0.0,0.0,0.0,0.0,0.0,0.0,0.0,0.0,0.0,-3.7324,-3.7733,-3.8108,-3.7702,-3.5993,-3.5029,-3.4058,-3.2956,-3.2086,-3.112,-2.984,0.0,0.0,0.0,0.0,0.0,0.0,0.0,0.0,0.0,0.0,0.0,0.0,0.0,0.0,0.0,0.0,0.0,0.0,0.0,0.0,0.0,0.0,0.0,0.0,0.0,0.0,0.0,0.0,0.0,0.0,-2.185,0.0,0.0,0.0,0.0,0.0,0.0,0.0,0.0,0.0,0.0,0.0,0.0,0.0,0.0,0.0,0.0,0.0,0.0,0.0,0.0,0.0,0.0,-2.6501,-2.8422,-3.0562,-3.2103,-3.3134,-3.3115,-3.3045,-3.2841,-3.1894,-3.063,-2.8997,0.0,0.0,0.0,0.0,0.0,0.0,0.0,0.0,0.0,0.0,0.0,0.0,0.0,0.0,0.0,0.0,0.0,0.0,0.0,0.0,0.0,0.0,0.0,0.0,0.0,0.0,-2.9878,-3.0326,-3.0601,0.0,0.0,0.0,0.0,0.0,0.0,0.0,0.0,0.0,0.0,-3.6683,-3.7972,-3.7801,-3.7252,-3.645,-3.5231,-3.3932,-3.2707,-3.1689,-3.1197,-3.0488,0.0,0.0,0.0,0.0,0.0,0.0,0.0,0.0,0.0,0.0,0.0,0.0,0.0,0.0,0.0,0.0,0.0,0.0,0.0,0.0,0.0,0.0,0.0,0.0,0.0,0.0,0.0,-2.498,-2.4944,0.0,0.0,0.0,0.0,0.0,0.0,0.0,0.0,0.0,0.0,0.0,-2.4544,-2.4543,0.0,0.0,0.0,0.0,0.0,0.0,0.0,0.0,0.0,0.0,0.0,0.0,-2.6379,-2.8886,-3.0465,-3.1957,-3.3338,-3.3437,-3.3358,-3.3075,-3.2219,-3.0966,-2.9282,0.0,0.0,0.0,0.0,0.0,0.0,0.0,0.0,0.0,0.0,0.0,0.0,0.0,0.0,0.0,0.0,0.0,0.0,0.0,0.0,0.0,0.0,0.0,0.0,0.0,-3.1449,0.0,0.0,0.0,0.0,0.0,0.0,0.0,0.0,0.0,0.0,0.0,-3.4409,-3.5626,-3.6417,-3.693,-3.7186,-3.6593,-3.6023,0.0,0.0,0.0,0.0,0.0,0.0,0.0,0.0,0.0,0.0,0.0,0.0,0.0,0.0,-2.4245,-2.3511,-2.3717,-2.3983,-2.391,0.0,0.0,0.0,0.0,0.0,0.0,0.0,0.0,0.0,0.0,0.0,0.0,0.0,0.0,-2.6656,0.0,-2.5208,0.0,0.0,0.0,0.0,0.0,0.0,0.0,0.0,-2.6045,-2.6259,-2.623,-2.6172,-2.6075,0.0,-2.5504,-2.4368,0.0,0.0,0.0,0.0,0.0,0.0,0.0,0.0,-2.6903,-2.937,-3.0656,-3.1942,-3.3288,-3.3408,-3.3339,-3.3014,-3.2059,-3.1026,-2.9923,-2.9104,-2.8112,0.0,0.0,0.0,0.0,0.0,0.0,0.0,0.0,0.0,0.0,0.0,0.0,0.0,0.0,0.0,0.0,0.0,0.0,0.0,0.0,0.0,0.0,0.0,-3.1621,0.0,0.0,0.0,0.0,0.0,0.0,0.0,0.0,0.0,-3.2772,-3.3974,-3.5218,-3.6142,-3.6372,-3.6385,-3.6233,0.0,0.0,0.0,0.0,0.0,0.0,0.0,-2.9648,-2.8956,-2.8374,-2.7881,-2.771,-2.7456,-2.731,-2.7145,0.0,0.0,-2.5333,-2.5366,-2.5637,-2.5502,-2.5168,-2.4918,-2.495,-2.4694,-2.462,0.0,0.0,0.0,0.0,0.0,0.0,0.0,0.0,-3.0413,-2.9374,0.0,-2.7073,0.0,0.0,0.0,0.0,0.0,-2.6323,0.0,0.0,-2.7726,-2.8047,-2.7776,-2.7395,-2.6824,-2.6077,-2.5935,-2.5342,-2.4394,-2.415,0.0,0.0,0.0,0.0,0.0,0.0,-2.8018,-2.9787,-3.0957,-3.205,-3.3019,-3.3006,-3.288,-3.2634,-3.1531,-3.0907,-3.075,-2.9431,-2.8665,-2.8516,-2.7309,0.0,0.0,0.0,0.0,0.0,0.0,0.0,0.0,0.0,0.0,0.0,0.0,0.0,0.0,0.0,0.0,0.0,0.0,0.0,0.0,-3.1255,0.0,0.0,0.0,0.0,0.0,0.0,0.0,0.0,0.0,0.0,-3.3535,-3.4418,-3.5392,-3.6141,0.0,0.0,0.0,0.0,-3.3778,-3.2624,-3.1554,-3.066,-3.0046,-2.9693,-2.9317,-2.8614,0.0,0.0,-2.8443,-2.8643,-2.8669,-2.8511,-2.8992,-2.8908,-2.7148,-2.6615,-2.6488,-2.6824,-2.6441,-2.619,-2.6412,-2.5958,-2.5638,-3.6069,0.0,0.0,0.0,0.0,-3.1974,-3.2249,-3.2865,-3.1828,-3.1065,-3.0518,-2.9626,0.0,0.0,0.0,0.0,0.0,0.0,-2.7794,-2.7694,-2.8076,-2.8135,-2.7913,-2.7841,-2.7473,-2.6854,-2.629,-2.5955,-2.5724,-2.5144,-2.4686,-2.4423,0.0,0.0,0.0,0.0,-2.8006,-2.8988,-3.0497,-3.1663,-3.2472,-3.242,-3.2283,-3.1913,-3.1522,-3.1271,-3.1141,-3.0453,-2.9954,-2.9762,-2.8085,0.0,0.0,0.0,0.0,0.0,0.0,0.0,0.0,0.0,0.0,0.0,0.0,0.0,0.0,0.0,0.0,0.0,0.0,0.0,-3.2488,-3.2414,-3.2224,0.0,0.0,0.0,0.0,0.0,0.0,0.0,0.0,0.0,-3.488,-3.5323,-3.5764,0.0,0.0,-3.5304,-3.4644,-3.4025,-3.3363,-3.3,-3.1959,0.0,-3.1138,-3.0627,-3.0009,-2.9401,-2.9293,-2.9246,-2.9387,-2.9538,-2.9744,-2.9794,-2.9859,-2.9707,-2.9038,-2.8657,-2.8305,-2.7751,-2.7357,-2.6967,-2.6806,-2.6541,-2.6368,-3.816,-3.6388,-3.5056,-3.4479,-3.4429,-3.3723,-3.3915,-3.4666,-3.3745,-3.3039,-3.2487,-3.1875,-3.0908,-2.9589,-2.8505,0.0,0.0,0.0,-2.854,-2.8444,-2.8458,-2.8327,-2.7989,-2.797,-2.7655,-2.7098,-2.6811,-2.6603,-2.6529,-2.627,-2.6192,-2.6197,0.0,0.0,-2.5853,-2.7393,-2.8412,-2.888,-3.0473,-3.1515,-3.1877,-3.1894,-3.1765,-3.1445,-3.1346,-3.1291,-3.1274,-3.0925,-3.0687,-3.054,-2.8973,-2.7939,0.0,0.0,0.0,0.0,0.0,0.0,0.0,0.0,0.0,0.0,0.0,-2.6738,-2.7431,0.0,0.0,0.0,-3.1454,-3.2134,-3.3225,-3.293,0.0,0.0,0.0,0.0,0.0,0.0,0.0,-3.224,-3.3152,-3.397,-3.4846,-3.5292,-3.5641,-3.5845,-3.5263,-3.4577,-3.388,0.0,-3.3056,-3.2534,-3.1601,-3.106,-3.1158,-3.0841,-3.0492,-3.0379,-3.0202,-3.0154,-3.0377,-3.039,-3.0444,-3.0596,-3.0381,-2.9985,-2.9781,-2.9468,-2.9059,-2.8431,-2.7877,-2.7566,-2.7418,-2.7115,-2.6798,-4.0311,-3.9648,-3.6334,-3.5945,-3.7323,-3.5847,-3.5687,-3.6363,-3.5917,-3.5131,-3.4098,-3.3968,-3.3137,-3.1723,-3.008,0.0,-2.9428,-2.9239,-2.9108,-2.9045,-2.8795,-2.8431,-2.8005,-2.784,-2.7542,-2.7018,-2.7333,-2.73,-2.6954,-2.7326,-2.7648,-2.7843,-2.6965,-2.6605,-2.6809,-2.8269,-2.9055,-2.9178,-3.0631,-3.1418,-3.1376,-3.1449,-3.1385,-3.1207,-3.1055,-3.1055,-3.1151,-3.1072,-3.0992,-3.0982,-2.9881,-2.8901,-2.8151,0.0,0.0,0.0,0.0,0.0,0.0,0.0,0.0,0.0,0.0,0.0,0.0,0.0,0.0,0.0,-3.2319,0.0,-3.3546,-3.3141,0.0,0.0,0.0,-3.1535,-3.2348,-3.1997,-3.197,-3.2567,0.0,0.0,-3.3936,-3.4665,-3.5078,-3.4927,-3.4683,-3.4141,-3.3108,-3.3082,-3.2758,-3.1791,-3.098,-3.0438,-3.0521,-3.0677,-3.0876,-3.1222,-3.1198,-3.1097,-3.1246,-3.0947,-3.0898,-3.1123,-3.0596,-3.0062,-2.9716,-2.9381,-2.9081,-2.887,-2.8294,-2.7879,-2.806,-2.7684,-2.7185,-4.0626,-4.0079,-3.8748,-3.8241,-3.836,-3.8077,-3.7739,-3.7453,-3.777,-3.7143,-3.5828,-3.5793,-3.4971,-3.3519,-3.2209,-3.123,-3.0505,-2.9897,-2.9294,-2.87,-2.8622,-2.8431,-2.8137,-2.794,-2.7655,-2.7333,-2.738,-2.727,-2.6926,-2.6993,-2.7604,-2.8475,-2.7849,-2.7344,-2.7217,-2.8381,-2.8909,-2.8743,-3.0043,-3.0902,-3.1235,-3.1173,-3.1055,-3.0992,-3.0975,-3.0975,-3.1009,-3.0992,-3.0992,-3.0998,-3.0332,-2.9977,-2.9952,-2.8207,0.0,0.0,0.0,0.0,0.0,0.0,0.0,0.0,0.0,-2.8367,-2.8703,0.0,-3.153,0.0,-3.3353,-3.4206,-3.4347,-3.4115,0.0,0.0,-3.3382,-3.3126,-3.3465,-3.3063,-3.2847,-3.3151,-3.3475,-3.3887,-3.4419,-3.4401,-3.4278,-3.4158,-3.4581,-3.4744,-3.4495,-3.3465,-3.2609,-3.2077,-3.1721,-3.1395,-3.1136,-3.115,-3.1289,-3.169,-3.1434,-3.1286,-3.1522,-3.1206,-3.0944,-3.0885,-3.0583,-3.0203,-2.9831,-2.9428,-2.9238,-2.9229,-2.8615,-2.8104,-2.8143,-2.7765,-2.7371,-4.0854,-4.0237,-3.9613,-3.9053,-3.8661,-3.8829,-3.8546,-3.809,-3.8654,-3.8259,-3.716,-3.6716,-3.5828,-3.4658,-3.3408,-3.216,-3.092,-3.0412,-2.9667,-2.8748,-2.8685,-2.859,-2.8381,-2.822,-2.8036,-2.7937,-2.8,-2.7937,-2.7821,-2.7866,-2.8262,-2.8922,-2.8624,-2.8313,-2.8014,-2.8561,-2.876,-2.859,-2.9875,-3.0729,-3.0975,-3.0912,-3.0895,-3.1032,-3.1015,-3.0903,-3.0738,-3.0683,-3.0514,-3.0234,-2.9668,-2.9418,-2.9524,-2.8334,-2.7472,0.0,0.0,0.0,0.0,0.0,0.0,0.0,0.0,0.0,0.0,0.0,-3.1843,-3.2901,-3.3511,-3.3999,-3.457,-3.4094,-3.3969,-3.4226,-3.3799,-3.3588,-3.3738,-3.3282,-3.2928,-3.3078,-3.3279,-3.3536,-3.3903,-3.3931,-3.386,-3.3924,-3.4024,-3.407,-3.3817,-3.3132,-3.2481,-3.2209,-3.1923,-3.1803,-3.1723,-3.1703,-3.1783,-3.1936,-3.189,-3.173,-3.1582,-3.1307,-3.0895,-3.0761,-3.0279,-2.9973,-2.9767,-2.9464,-2.9249,-2.9307,-2.8882,-2.8486,-2.8486,-2.8179,-2.7846,-4.0876,-4.0141,-3.948,-3.8911,-3.8498,-3.8681,-3.86,-3.831,-3.9007,-3.8862,-3.818,-3.719,-3.6221,-3.527,-3.3943,-3.2374,-3.0771,-3.0507,-2.9861,-2.8826,-2.8811,-2.8732,-2.8573,-2.8494,-2.8542,-2.8668,-2.8826,-2.8904,-2.8904,-2.898,-2.9042,-2.9198,-2.9159,-2.8998,-2.886,-2.8749,-2.8628,-2.8569,-2.9942,-3.0692,-3.0692,-3.0733,-3.0895,-3.119,-3.1027,-3.0811,-3.0516,-3.0216,-2.9858,-2.9368,-2.88,-2.8523,-2.8593,-2.8268,-2.7736,0.0,-2.6935,0.0,0.0,0.0,0.0,0.0,0.0,0.0,0.0,-3.1102,-3.1854,-3.361,-3.3329,-3.3457,-3.4515,-3.3765,-3.3442,-3.4036,-3.3718,-3.347,-3.3703,-3.3199,-3.2775,-3.2775,-3.2917,-3.2988,-3.3016,-3.3273,-3.3578,-3.3595,-3.3303,-3.3006,-3.2536,-3.2455,-3.2414,-3.2236,-3.1909,-3.1896,-3.2241,-3.2228,-3.2228,-3.2241,-3.2169,-3.2023,-3.1629,-3.1272,-3.0911,-3.0622,-2.9985,-2.9599,-2.9792,-2.9456,-2.9275,-2.9341,-2.9106,-2.8803,-2.8724,-2.851,-2.8179,-4.0303,-3.9605,-3.8894,-3.8238,-3.7862,-3.8504,-3.8564,-3.8207,-3.9228,-3.9167,-3.8332,-3.768,-3.6535,-3.4904,-3.3474,-3.1798,-2.999,-2.9233,-2.8698,-2.8317,-2.8235,-2.8332,-2.8573,-2.8365,-2.8462,-2.8826,-2.8858,-2.8967,-2.9059,-2.8507,-2.8732,-2.9629,-2.8618,-2.8469,-2.9213,0.0,0.0,0.0,-2.9926,-3.0609,-3.0692,-3.0952,-3.1151,-3.1173,-3.0696,0.0,-3.0465,-2.9829,-2.9506,-2.954,-2.9469,0.0,0.0,0.0,0.0,0.0,0.0,0.0,0.0,0.0,0.0,0.0,-3.1318,-3.1687,-3.1095,-3.1916,-3.2894,-3.3918,-3.3818,-3.397,-3.4607,-3.4282,-3.4352,-3.5116,-3.4516,-3.4117,-3.4496,-3.3748,-3.3157,-3.2988,-3.2988,-3.2917,-3.2789,-3.2957,-3.3026,-3.2767,-3.2595,-3.2482,-3.2255,-3.2231,-3.2245,-3.2182,-3.2187,-3.2376,-3.2775,-3.2547,-3.2331,-3.2345,-3.2228,-3.195,-3.1482,-3.1123,-3.0761,-3.0305,-2.9921,-2.9714,-2.9792,-2.9714,-2.9611,-2.9419,-2.9197,-2.8973,-2.8669,-2.8271,-2.7881,-4.0093,0.0,-3.8567,-3.8026,0.0,-3.7986,-3.8061,-3.7934,-3.9057,-3.9016,-3.8083,-3.7542,-3.6229,-3.4389,-3.3271,-3.1581,-2.9583,-2.9144,-2.8673,-2.8235,-2.8284,-2.8477,-2.8668,-2.87,-2.8826,-2.9013,-2.9059,-2.9121,-2.9075,-2.8712,-2.8849,-2.9528,-2.8881,-2.885,-2.9404,-2.9205,-2.8993,-2.8948,-2.9807,-3.0258,-3.0241,-3.041,-3.0699,-3.1078,-3.0746,0.0,0.0,0.0,0.0,0.0,0.0,0.0,0.0,0.0,0.0,-2.9954,-2.9487,-2.9168,-2.9104,-3.0002,-3.074,-3.1043,-3.2175,-3.2644,-3.1948,-3.2592,-3.3355,-3.3991,-3.3768,-3.3851,-3.4589,-3.4252,-3.428,-3.4855,-3.4315,-3.3996,-3.4155,-3.3621,-3.3157,-3.3157,-3.3143,-3.3002,-3.2775,-3.2775,-3.2704,-3.2372,-3.23,-3.2314,-3.2241,-3.2169,-3.2241,-3.2444,-3.2704,-3.2832,-3.2846,-3.269,-3.2475,-3.2359,-3.2169,-3.1803,-3.1272,-3.0986,-3.0698,-3.0241,-2.9998,-2.9934,-2.9946,-2.9946,-2.9856,-2.9611,-2.9287,-2.887,-2.8597,-2.8235,-2.795,-3.9797,-3.8429,-3.8288,-3.7901,-3.7372,-3.754,-3.7542,-3.7506,0.0,0.0,0.0,-3.7,-3.5602,-3.3462,-3.2818,-3.1272,-2.9227,-2.9147,-2.8805,-2.8235,-2.8462,-2.8637,-2.8685,-2.9013,-2.9167,-2.9121,-2.9229,-2.9213,-2.9075,-2.8903,-2.8933,-2.9227,-2.9051,-2.9138,-2.9371,-2.9371,-2.9263,-2.9111,-2.9734,-2.9984,-2.9881,-2.9968,-3.0393,-3.1078,-3.083,-3.0649,-3.0499,-3.0307,-2.9826,-2.9162,-2.9522,-2.9742,-2.9674,-2.9863,-2.9935,-2.9851,-2.9587,-2.9492,-2.9646,-3.0195,-3.0947,-3.1742,-3.2736,-3.3212,-3.2862,-3.3228,-3.3612,-3.3999,-3.3578,-3.3621,-3.4572,-3.4076,-3.3886,-3.4409,-3.4005,-3.373,-3.3785,-3.3423,-3.3213,-3.3312,-3.3312,-3.3157,-3.2846,-3.2775,-3.2632,-3.2372,-3.2314,-3.2241,-3.2241,-3.23,-3.2444,-3.2717,-3.3016,-3.3157,-3.2931,-3.2775,-3.2646,-3.23,-3.2096,-3.1743,-3.1136,-3.0836,-3.0622,-3.0228,-3.0152,-3.0152,-3.0075,-3.0088,-2.9934,-2.9714,-2.9221,-2.8688,-2.8615,-2.8335,-2.8087,-3.895,-3.851,-3.7948,-3.7629,-3.7594,-3.7649,-3.738,-3.6912,-3.7787,-3.7109,-3.535,-3.6099,-3.455,-3.1401,-3.1438,-3.0235,-2.8221,-2.8191,-2.8179,-2.8186,-2.8235,-2.8414,-2.8685,-2.8732,-2.8873,-2.9091,-2.9121,-2.9137,-2.9058,-2.8491,-2.8537,-2.8962,-2.82,-2.8168,-2.8913,-2.8935,-2.9065,-2.9432,-2.9924,-3.0215,-3.0208,-3.0757,-3.1151,-3.1368,-3.0755,-3.0438,-3.0465,-2.974,-2.9023,-2.8475,-2.9261,-2.9658,-2.9558,-3.03,-3.0748,-3.0801,-3.0774,-3.0547,-3.0152,-3.0756,-3.1609,-3.2563,-3.3144,-3.3366,-3.3077,-3.3637,-3.3897,-3.3783,-3.3717,-3.4046,-3.4587,-3.4076,-3.3995,-3.4514,-3.4278,-3.4059,-3.4059,-3.3716,-3.3536,-3.3536,-3.3396,-3.3241,-3.3002,-3.2917,-3.2846,-3.2646,-3.2444,-3.2359,-3.2345,-3.2489,-3.2704,-3.2931,-3.3157,-3.3241,-3.3171,-3.3072,-3.2789,-3.2417,-3.2228,-3.1803,-3.1136,-3.0911,-3.0761,-3.0444,-3.0343,-3.0279,-3.0152,-2.9934,-2.9702,-2.9378,-2.8907,-2.8645,-2.8676,-2.8474,-2.8063,-3.8689,-3.8113,-3.7864,-3.7739,-3.7793,-3.781,-3.7397,-3.6732,-3.6968,-3.6453,-3.5449,-3.5566,-3.4194,-3.1761,-3.1115,-2.9958,-2.8398,-2.8398,-2.8383,-2.8479,-2.8527,-2.8653,-2.8826,-2.8889,-2.8982,-2.9121,-2.9167,-2.9213,-2.9182,-2.8971,-2.8841,-2.8806,-2.8383,-2.8408,-2.8816,-2.9248,-2.9518,-2.9633,-2.9842,-2.993,-2.9897,-3.0241,-3.0576,-3.0821,-3.0526,-3.0494,-3.0627,-3.0366,-3.0085,-2.9726,-3.0343,-3.0623,-3.0514,-3.0857,-3.1031,-3.0982,-3.0855,-3.0734,-3.0789,-3.1554,-3.2015,-3.2094,-3.2883,-3.3309,-3.3112,-3.3395,-3.3349,-3.2977,-3.3376,-3.3758,-3.3809,-3.3936,-3.4228,-3.452,-3.4225,-3.4074,-3.4142,-3.373,-3.3536,-3.3675,-3.3382,-3.3072,-3.2846,-3.2775,-3.2646,-3.2444,-3.23,-3.2286,-3.2345,-3.2561,-3.2775,-3.2988,-3.3227,-3.3312,-3.3157,-3.2846,-3.2561,-3.2372,-3.1863,-3.1434,-3.1061,-3.0836,-3.0685,-3.0609,-3.0508,-3.0355,-3.0292,-3.0075,-2.9856,-2.9546,-2.9143,-2.8895,-2.8895,-2.87,-2.8426,-3.8491,-3.7774,-3.7648,-3.7629,-3.7682,-3.7827,-3.7359,-3.6479,-3.6363,-3.5934,-3.532,-3.4966,-3.3744,-3.1973,-3.107,-3.0048,-2.9075,-2.8966,-2.8966,-2.9012,-2.9074,-2.9136,-2.9136,-2.9213,-2.9213,-2.9213,-2.9305,-2.9305,-2.935,-2.9486,-2.9295,-2.8854,-2.8858,-2.8958,-2.9,-2.958,-2.9923,-2.9908,-2.9946,-2.9842,-2.9754,-2.9897,-3.014,-3.0435,-3.0551,-3.0651,-3.0733,-3.0992,-3.0988,-3.0717,-3.1184,-3.1338,-3.1036,-3.1167,-3.1151,-3.0935,-3.0675,-3.0691,-3.0997,-3.174,-3.1949,-3.1532,-3.2463,-3.3082,-3.3081,-3.3043,-3.2905,-3.2568,-3.3169,-3.3468,-3.3406,-3.3755,-3.4254,-3.4303,-3.4142,-3.4088,-3.421,-3.373,-3.3466,-3.3675,-3.3297,-3.2917,-3.2704,-3.2561,-3.2431,-3.23,-3.2241,-3.23,-3.2359,-3.2503,-3.2704,-3.286,-3.3227,-3.3312,-3.3002,-3.2704,-3.2345,-3.2096,-3.1542,-3.1097,-3.0872,-3.0596,-3.0444,-3.052,-3.052,-3.0368,-3.0292,-3.0152,-2.9934,-2.9702,-2.93,-2.9064,-2.9064,-2.9118,-2.8834,-3.8056,-3.7859,-3.716,-3.6836,-3.6994,-3.7592,-3.7086,-3.593,-3.6131,-3.5332,-3.397,-3.39,-3.271,-3.0916,-3.1057,-3.0631,-2.9722,-2.9705,-2.975,-2.9821,-2.975,-2.9782,-2.9842,-2.9605,-2.9531,-2.9592,-2.9441,-2.9396,-2.9502,-2.9661,-2.9609,-2.9378,-2.9336,-2.9376,-2.9513,-2.9596,-2.9847,-3.0234,-3.051,-3.0526,-3.0426,-3.0551,-3.0716,-3.0935,-3.0855,-3.0871,-3.0871,-3.0912,-3.0633,-3.0123,-3.0857,-3.093,-3.0306,-3.0934,-3.123,-3.0773,-3.0692,-3.0534,-3.0223,-3.0577,-3.1101,-3.155,-3.2119,-3.2681,-3.3055,-3.3005,-3.2982,-3.3058,-3.3321,-3.3526,-3.3849,-3.3761,-3.3819,-3.4269,-3.4182,-3.4059,-3.4059,-3.3799,-3.355,-3.3382,-3.3157,-3.2917,-3.2775,-3.2632,-3.2574,-3.2359,-3.2286,-3.2286,-3.2241,-3.2359,-3.2431,-3.2444,-3.2888,-3.31,-3.2789,-3.2704,-3.2273,-3.1629,-3.1328,-3.1031,-3.0633,-3.0419,-3.0406,-3.0432,-3.0444,-3.0305,-3.0152,-2.9921,-2.9779,-2.9611,-2.9365,-2.9143,-2.9143,-2.9349,-2.9337,-3.7899,-3.7446,-3.704,-3.6624,-3.6363,-3.6602,-3.6399,-3.5864,-3.5262,-3.4581,-3.3825,-3.3229,-3.2483,-3.1587,-3.1282,-3.08,-3.0342,-3.0241,-3.0241,-3.03,-3.013,-3.0044,-3.006,-2.981,-2.9738,-2.9902,-2.9842,-2.987,-2.9919,-2.9662,-2.9469,-2.9443,-2.945,-2.945,-2.945,-3.0106,-3.0496,-3.0567,-3.0838,-3.0975,-3.0895,-3.0855,-3.0871,-3.0952,-3.0935,-3.0952,-3.0912,-3.0992,-3.092,-3.0594,-3.1021,-3.1094,-3.0712,-3.1021,-3.1112,-3.0848,-3.0999,-3.0691,-2.9907,-3.0774,-3.1229,-3.0943,-3.1833,-3.2479,-3.2661,-3.2808,-3.2858,-3.2675,-3.2851,-3.2975,-3.2779,-3.3249,-3.3689,-3.3862,-3.3912,-3.4005,-3.4059,-3.373,-3.3396,-3.3466,-3.3227,-3.2917,-3.2704,-3.2503,-3.2372,-3.23,-3.23,-3.2228,-3.2169,-3.2241,-3.2228,-3.2228,-3.2444,-3.2503,-3.2345,-3.2128,-3.185,-3.1394,-3.0996,-3.0633,-3.0495,-3.0292,-3.0279,-3.0343,-3.0279,-3.0216,-3.0114,-2.9921,-2.9702,-2.9611,-2.9611,-2.9468,-2.9275,-2.9559,-2.9456,-3.7877,-3.753,-3.7217,-3.6495,-3.5617,-3.5817,-3.5812,-3.5527,-3.4618,-3.3984,-3.3535,-3.2702,-3.2332,-3.2192,-3.1572,-3.1173,-3.0935,-3.0814,-3.0733,-3.0692,-3.0485,-3.0401,-3.0401,-3.013,-3.007,-3.0189,-3.0231,-3.03,-3.0385,-3.0013,-2.9829,-2.9909,-2.9782,-2.9626,-2.9586,-3.023,-3.0409,-3.0337,-3.0487,-3.0683,-3.0779,-3.0527,-3.0532,-3.0902,-3.0992,-3.0992,-3.0952,-3.1112,-3.1134,-3.1078,-3.1151,-3.119,-3.119,-3.1095,-3.0975,-3.0824,-3.0896,-3.0631,-2.9835,-3.0709,-3.1067,-3.0608,-3.1405,-3.204,-3.2304,-3.229,-3.2276,-3.2302,-3.2031,-3.1735,-3.1982,-3.2781,-3.339,-3.339,-3.3715,-3.3937,-3.3937,-3.3521,-3.3312,-3.3382,-3.3143,-3.2917,-3.2605,-3.2236,-3.201,-3.22,-3.2169,-3.2169,-3.2182,-3.2109,-3.2023,-3.1936,-3.185,-3.185,-3.1909,-3.185,-3.1482,-3.1123,-3.0748,-3.0457,-3.0292,-3.0152,-3.0011,-3.0075,-3.0075,-2.9998,-2.9998,-2.9856,-2.9792,-2.9779,-2.9792,-2.9714,-2.9521,-2.9702,-2.9702,-3.7906,-3.8389,-3.7588,-3.6219,-3.4907,-3.5599,-3.5454,-3.4673,-3.4335,-3.3648,-3.2781,-3.2371,-3.2179,-3.2124,-3.2054,-3.1837,-3.15,-3.144,-3.1308,-3.1151,-3.1015,-3.0935,-3.0935,-3.0651,-3.0493,-3.051,-3.0311,-3.0444,-3.0797,-3.0804,-3.0942,-3.1067,-3.0403,-3.0049,-2.9947,-2.9512,-2.9127,-2.9245,-2.9282,-2.9499,-3.0023,-2.9516,-2.9779,-3.0813,-3.0998,-3.0982,-3.1032,-3.1112,-3.1213,-3.1295,-3.1213,-3.119,-3.119,-3.119,-3.0992,-3.0568,-3.0366,-3.0168,-2.9935,-3.0004,-3.0206,-3.0569,-3.0734,-3.1134,-3.2117,-3.1518,-3.1449,-3.2275,-3.097,-3.0503,-3.1586,-3.224,-3.2844,-3.3157,-3.3604,-3.3728,-3.3675,-3.3452,-3.3227,-3.3143,-3.3044,-3.2832,-3.2475,-3.1796,-3.1667,-3.1951,-3.2128,-3.206,-3.1906,-3.1696,-3.1523,-3.1436,-3.1241,-3.1172,-3.1529,-3.1556,-3.1272,-3.0911,-3.0546,-3.0279,-3.01,-2.9921,-2.9934,-2.9869,-2.9856,-2.9856,-2.9792,-2.9792,-2.9869,-2.9869,-2.9882,-2.9804,-2.9689,-2.9779,-2.9779,-3.7801,-3.6906,-3.6083,-3.5096,-3.4154,-3.441,-3.4327,-3.4014,-3.3821,-3.3448,-3.2965,-3.2737,-3.2573,-3.2404,-3.2404,-3.2144,-3.1765,-3.1726,-3.1614,-3.1445,-3.1213,-3.0858,-3.0398,-3.0112,-3.0016,-3.0055,-2.9959,-3.0289,-3.0902,-3.0992,-3.0975,-3.1038,-3.0819,-3.0487,-3.007,-2.9878,-2.9612,-2.9278,-2.9119,-2.9457,-3.0156,-2.9912,-2.9973,-3.0451,-3.0441,-3.0622,-3.1134,-3.1213,-3.1235,-3.1269,-3.1235,-3.1235,-3.1207,-3.1072,-3.0831,-3.0485,-3.0274,-3.0076,-2.983,-2.9874,-2.9867,-2.9948,-3.0766,-3.1262,-3.1641,-3.1507,-3.1604,-3.1943,-3.1232,-3.0806,-3.1146,-3.1452,-3.1824,-3.2637,-3.3082,-3.3371,-3.3644,-3.3536,-3.3241,-3.3157,-3.2974,-3.272,-3.2283,-3.1728,-3.1398,-3.1334,-3.1118,-3.0885,-3.0619,-3.0477,-3.0459,-3.0204,-3.0105,-3.0033,-3.0105,-3.0803,-3.1048,-3.0596,-3.0241,-3.0164,-2.9998,-2.9856,-2.9869,-2.9882,-2.9804,-2.9779,-2.9779,-2.9833,-2.9858,-2.9946,-2.9959,-2.9894,-2.9792,-2.9792,-2.9779,-3.7208,-3.5805,-3.52,-3.4513,-3.3825,-3.3807,-3.378,-3.3726,-3.3633,-3.3415,-3.3178,-3.3024,-3.2866,-3.2705,-3.2705,-3.2488,-3.2144,-3.1948,-3.1819,-3.1671,-3.1423,-3.0896,-3.0268,-2.9943,-2.9715,-2.958,-2.9743,-3.0253,-3.0988,-3.1055,-3.1072,-3.1055,-3.0673,-3.0171,-2.9756,-2.9355,-2.8971,-2.8648,-2.8493,-2.8954,-2.9843,-2.9428,-2.9544,-3.0128,-3.0003,-3.0166,-3.0896,-3.1176,-3.1312,-3.1308,-3.1274,-3.1235,-3.1151,-3.0992,-3.079,-3.0443,-3.0274,-3.006,-2.9858,-2.9858,-2.983,-2.9669,-3.0334,-3.1023,-3.1308,-3.0955,-3.1109,-3.1513,-3.0813,-3.0167,-3.0585,-3.0646,-3.0935,-3.1878,-3.237,-3.2801,-3.3346,-3.3072,-3.2863,-3.2723,-3.2291,-3.2012,-3.176,-3.1157,-3.0854,-3.0794,-3.0387,-3.0046,-2.9824,-2.9684,-2.9684,-2.9416,-2.9495,-2.9463,-2.9431,-2.9941,-3.0351,-2.9982,-3.0063,-3.0037,-2.9872,-2.9756,-2.9704,-2.9844,-2.9869,-2.9779,-2.9793,-2.9834,-2.9859,-2.996,-2.9946,-2.9804,-2.9792,-2.9792,-2.9779,-3.6102,-3.5356,-3.5128,-3.4639,-3.4009,-3.3972,-3.3921,-3.3807,-3.3671,-3.3413,-3.3128,-3.3051,-3.2724,-3.2773,-3.2581,-3.2627,-3.2309,-3.2091,-3.1967,-3.1856,-3.1614,-3.1073,-3.0321,-3.0125,-2.9624,-2.9115,-2.9807,-3.048,-3.1055,-3.1157,-3.119,-3.0976,-2.9963,-2.9423,-2.9136,-2.8101,-2.7263,-2.7262,-2.7379,-2.8047,-2.9059,-2.8304,-2.8613,-3.0191,-2.9828,-2.9756,-3.0387,-3.0959,-3.1351,-3.1423,-3.1351,-3.1196,-3.1015,-3.0895,-3.079,-3.0526,-3.0316,-3.0162,-3.0033,-2.9962,-2.9918,-2.9835,-2.9765,-3.0304,-3.0943,-2.9857,-2.9535,-3.0738,-2.9863,-2.8996,-2.9938,-3.0104,-3.038,-3.0931,-3.1654,-3.2108,-3.2365,-3.2261,-3.2041,-3.1806,-3.1337,-3.0815,-3.0596,-3.02,-2.9943,-3.0174,-3.0036,-2.9764,-2.9587,-2.9379,-2.9495,-2.9425,-2.9171,-2.89,-2.8982,-2.9171,-2.9279,-2.9442,-2.973,-2.9821,-2.9618,-2.9454,-2.9429,-2.9467,-2.9353,-2.9277,-2.9618,-2.9682,-2.9771,-2.9783,-2.982,-2.9882,-2.9792,-2.9779,-2.9779,-3.5087,-3.5195,-3.4607,-3.4212,-3.3998,-3.3998,-3.3947,-3.3795,-3.3166,-3.2776,-3.249,-3.1838,-3.1476,-3.1387,-3.1308,-3.123,-3.1186,-3.1462,-3.1843,-3.2127,-3.1894,-3.1093,-3.0075,-2.9641,-2.907,-2.8693,-3.0102,-3.0764,-3.0662,-3.1036,-3.1291,-3.1181,-3.036,-2.9702,-2.9315,-2.8424,-2.7769,-2.7385,-2.7797,-2.8572,-2.9489,-2.9472,-2.9815,-3.0521,-3.0702,-3.0529,-2.9901,-3.0854,-3.1372,-3.1334,-3.1351,-3.1196,-3.0975,-3.0831,-3.0651,-3.0443,-3.0274,-3.0146,-3.0017,-2.9946,-2.9874,-2.9806,-3.0009,-3.0273,-3.0513,-2.9715,-2.9504,-3.0394,-2.9636,-2.9381,-2.9952,-3.0295,-3.0597,-3.1142,-3.1303,-3.1454,-3.1759,-3.1632,-3.1402,-3.1225,-3.0894,-3.0717,-3.0527,-2.9953,-2.9479,-2.943,-2.9134,-2.8759,-2.845,-2.853,-2.8276,-2.8195,-2.814,-2.8379,-2.836,-2.8486,-2.862,-2.8853,-2.9186,-2.94,-2.92,-2.9162,-2.9136,-2.9111,-2.8937,-2.905,-2.9377,-2.9592,-2.958,-2.9809,-3.0012,-2.9998,-2.9856,-2.9779,-2.9779,-3.4519,-3.4816,-3.4031,-3.3654,-3.3617,-3.3401,-3.3252,-3.3087,-3.2502,-3.232,-3.2255,-3.1447,-3.1119,-3.115,-3.0848,-3.0646,-3.0641,-3.1003,-3.1342,-3.1762,-3.2022,-3.1168,-2.9745,-2.8784,-2.8767,-2.9004,-2.9972,-3.0568,-3.0721,-3.1113,-3.1423,-3.1342,-3.0438,-2.9947,-2.973,-2.8677,-2.7944,-2.7938,-2.8105,-2.8589,-2.9169,-2.9415,-2.9642,-2.9954,-3.0247,-2.9936,-2.9214,-3.0156,-3.08,-3.0942,-3.1142,-3.1157,-3.0912,-3.0831,-3.0651,-3.0443,-3.0274,-3.0146,-3.006,-2.9989,-2.9874,-2.9823,-3.0009,-3.0193,-3.0085,-2.9541,-2.9204,-2.9632,-2.9199,-2.9079,-2.956,-3.0075,-3.0495,-3.0812,-3.0668,-3.0715,-3.1044,-3.1065,-3.0837,-3.0579,-3.0306,-3.0156,-2.983,-2.9531,-2.9056,-2.8784,-2.8451,-2.8145,-2.7855,-2.7802,-2.7723,-2.7603,-2.7721,-2.7786,-2.7695,-2.7798,-2.7978,-2.8244,-2.8531,-2.8669,-2.8654,-2.8788,-2.8775,-2.8848,-2.8822,-2.9129,-2.9481,-2.9487,-2.9527,-2.9846,-3.0101,-2.9998,-2.9779,-2.9779,-2.9779,-3.4325,-3.4223,-3.3455,-3.3152,-3.3101,-3.2512,-3.2232,-3.2027,-3.1723,-3.1935,-3.2207,-3.1309,-3.1263,-3.1592,-3.0821,-3.0486,-3.0653,-3.0575,-3.0523,-3.08,-3.1311,-3.106,-2.9584,-2.8261,-2.8406,-2.9522,-2.9538,-2.9999,-3.0822,-3.1059,-3.1414,-3.1285,-3.0071,-2.9815,-3.0041,-2.8598,-2.7944,-2.8481,-2.825,-2.8456,-2.9039,-2.8535,-2.8452,-2.9106,-2.8982,-2.8779,-2.8678,-2.9128,-2.9692,-3.0284,-3.0658,-3.0791,-3.0818,-3.0811,-3.0466,-3.0427,-3.03,-3.0182,-3.0113,-2.9989,-2.9874,-2.983,-2.9717,-2.9713,-2.9974,-2.9088,-2.8587,-2.8971,-2.8592,-2.8449,-2.8902,-2.9318,-2.9783,-2.9986,-2.9955,-3.0003,-3.016,-3.0439,-3.0251,-2.9802,-2.9533,-2.9318,-2.8882,-2.8746,-2.8655,-2.8576,-2.8368,-2.821,-2.8118,-2.7908,-2.7789,-2.7723,-2.759,-2.759,-2.7603,-2.7655,-2.7811,-2.7954,-2.8213,-2.8265,-2.8267,-2.8267,-2.8325,-2.8408,-2.8647,-2.8995,-2.9202,-2.9121,-2.9269,-2.9615,-2.9732,-2.9795,-2.9603,-2.9491,-2.9377,-3.402,-3.4489,-3.363,-3.3231,-3.3212,-3.2966,-3.2518,-3.1936,-3.1132,-3.095,-3.0854,-2.9971,-2.9691,-2.9613,-2.9453,-2.9194,-2.9314,-2.9683,-2.9786,-2.9779,-3.0558,-3.0229,-2.9176,-2.8462,-2.8172,-2.8533,-2.9228,-2.9522,-2.9418,-3.0007,-3.049,-3.0975,-2.9626,-2.9487,-3.0316,-2.8704,-2.818,-2.8877,-2.9236,-2.9337,-2.9583,-2.9837,-3.014,-3.0228,-2.9589,-2.9003,-2.8537,-2.8508,-2.8801,-2.9377,-2.9451,-2.969,-2.9934,-2.9555,-2.9659,-3.0245,-2.9856,-2.9681,-3.0048,-2.9989,-2.9858,-2.9742,-2.9563,-2.9384,-2.9155,-2.8682,-2.8278,-2.8173,-2.8025,-2.8076,-2.8123,-2.8438,-2.8784,-2.91,-2.936,-2.9588,-2.9666,-2.965,-2.9628,-2.9297,-2.9063,-2.8903,-2.8688,-2.8542,-2.8478,-2.8349,-2.8193,-2.8051,-2.7971,-2.7749,-2.7591,-2.7564,-2.7523,-2.7523,-2.7523,-2.7523,-2.7642,-2.7802,-2.7933,-2.7958,-2.7845,-2.7721,-2.7682,-2.7657,-2.795,-2.8298,-2.8376,-2.8286,-2.8774,-2.9382,-2.9193,-2.9048,-2.8872,-2.872,-2.8623,-3.4297,-3.4672,-3.3782,-3.3423,-3.3289,-3.2611,-3.2048,-3.1502,-3.0574,-3.0281,-3.0209,-2.9488,-2.9187,-2.9296,-2.8925,-2.8737,-2.8767,-2.905,-2.9098,-2.9071,-2.9428,-2.9503,-2.9185,-2.8718,-2.8303,-2.8693,-2.9169,-2.933,-2.9365,-2.9647,-3.0291,-3.0676,-2.9458,-2.956,-3.0814,-2.8947,-2.8147,-2.8858,-2.9175,-2.9206,-2.9215,-2.9523,-2.9569,-2.949,-2.8992,-2.8494,-2.8068,-2.7887,-2.8116,-2.8629,-2.888,-2.9087,-2.9252,-2.9176,-2.932,-3.0029,-2.9708,-2.9796,-3.0031,-2.9946,-2.9726,-2.9592,-2.9366,-2.9029,-2.8716,-2.8317,-2.789,-2.77,-2.7535,-2.7482,-2.7642,-2.7939,-2.821,-2.8432,-2.8679,-2.8979,-2.9317,-2.9331,-2.9024,-2.876,-2.8466,-2.8243,-2.8075,-2.7868,-2.7791,-2.766,-2.7547,-2.7638,-2.7662,-2.7523,-2.7433,-2.7433,-2.7446,-2.7446,-2.7499,-2.7565,-2.7565,-2.7722,-2.7802,-2.7762,-2.7736,-2.7471,-2.7496,-2.752,-2.7501,-2.7588,-2.7808,-2.8143,-2.8659,-2.8933,-2.8638,-2.8464,-2.8274,-2.81,-2.8053,-3.4623,-3.4621,-3.3734,-3.3299,-3.2978,-3.1749,-3.1127,-3.0808,-3.0058,-2.9961,-3.0155,-2.963,-2.9518,-3.0115,-2.9214,-2.8934,-2.8957,-2.8828,-2.871,-2.867,-2.8702,-2.8943,-2.9632,-2.8511,-2.857,-2.9336,-2.9183,-2.9259,-2.9404,-2.9766,-3.0282,-3.0325,-2.9396,-2.9712,-3.0342,-2.8941,-2.8411,-2.8859,-2.8752,-2.8621,-2.8517,-2.8564,-2.8564,-2.8373,-2.7989,-2.7726,-2.7528,-2.7417,-2.7579,-2.8048,-2.8629,-2.8672,-2.8676,-2.9168,-2.9315,-2.9268,-2.9379,-2.9534,-2.9776,-2.9302,-2.915,-2.8981,-2.8667,-2.8482,-2.817,-2.7679,-2.7349,-2.7285,-2.6828,-2.6871,-2.7219,-2.7641,-2.7768,-2.7866,-2.7792,-2.8292,-2.8898,-2.9045,-2.8685,-2.7989,-2.7876,-2.7501,-2.7047,-2.6796,-2.685,-2.7223,-2.7074,-2.7085,-2.7176,-2.7067,-2.7152,-2.7377,-2.7418,-2.7394,-2.7459,-2.7589,-2.7561,-2.7586,-2.7628,-2.7694,-2.7761,-2.7617,-2.7604,-2.7589,-2.7546,-2.7702,-2.7978,-2.8309,-2.8563,-2.8369,-2.8068,-2.801,-2.7902,-2.7746,-2.7599,-3.3443,-3.3881,-3.2346,-3.1703,-3.161,-3.1255,-3.0765,-3.02,-2.985,-2.9739,-2.9678,-2.9468,-2.9421,-2.9474,-2.9245,-2.9089,-2.9021,-2.8905,-2.881,-2.8737,-2.8543,-2.867,-2.9042,-2.8354,-2.8378,-2.8737,-2.8594,-2.8538,-2.8688,-2.8827,-2.8947,-2.9467,-2.9048,-2.8983,-3.0008,-2.8947,-2.85,-2.9094,-2.8929,-2.8623,-2.8558,-2.8511,-2.8473,-2.8408,-2.7866,-2.7469,-2.7345,-2.733,-2.7319,-2.736,-2.7468,-2.7708,-2.7837,-2.7612,-2.7798,-2.8307,-2.803,-2.7898,-2.8111,-2.8104,-2.7753,-2.7648,-2.7476,-2.7125,-2.6734,-2.6673,-2.654,-2.65,-2.6379,-2.6286,-2.6504,-2.6847,-2.699,-2.706,-2.7426,-2.7717,-2.7921,-2.8019,-2.7931,-2.7658,-2.7442,-2.7285,-2.6996,-2.6717,-2.6699,-2.6742,-2.6695,-2.66,-2.6633,-2.6604,-2.6796,-2.7077,-2.7053,-2.698,-2.7043,-2.7183,-2.7247,-2.7247,-2.7317,-2.7346,-2.749,-2.7432,-2.7315,-2.7366,-2.7509,-2.7745,-2.7902,-2.7715,-2.7821,-2.7679,-2.7503,-2.7423,-2.7373,-2.7202,-2.71,-3.2844,-3.313,-3.2273,-3.1876,-3.1784,-3.1461,-3.0994,-3.0511,-3.0047,-2.9737,-2.9608,-2.955,-2.9471,-2.933,-2.9289,-2.9225,-2.9222,-2.9134,-2.8823,-2.8567,-2.8565,-2.8644,-2.8512,-2.8585,-2.8594,-2.8543,-2.851,-2.8466,-2.8414,-2.8407,-2.8783,-2.9283,-2.851,-2.8785,-2.9525,-2.8386,-2.7834,-2.7968,-2.7779,-2.7508,-2.7406,-2.7736,-2.8057,-2.8202,-2.7783,-2.7452,-2.7362,-2.733,-2.7233,-2.7103,-2.699,-2.6978,-2.7179,-2.7039,-2.7314,-2.7616,-2.7679,-2.7418,-2.7608,-2.7358,-2.7083,-2.6773,-2.6614,-2.6378,-2.6062,-2.5925,-2.5719,-2.5682,-2.557,-2.5452,-2.5426,-2.5785,-2.6002,-2.6117,-2.6581,-2.6863,-2.6861,-2.7253,-2.7446,-2.7103,-2.6876,-2.6596,-2.6342,-2.6243,-2.6075,-2.5873,-2.5833,-2.5828,-2.6161,-2.6163,-2.6344,-2.6484,-2.6572,-2.6599,-2.6599,-2.6701,-2.6816,-2.6808,-2.6805,-2.6872,-2.6912,-2.6876,-2.6844,-2.7066,-2.7314,-2.7523,-2.7574,-2.7403,-2.7258,-2.7304,-2.7288,-2.6982,-2.679,-2.6747,-2.6646,-3.2447,-3.2432,-3.2363,-3.231,-3.2142,-3.1532,-3.1164,-3.0982,-3.0209,-2.9704,-2.9681,-2.9607,-2.9383,-2.9474,-2.9394,-2.9414,-2.9433,-2.9312,-2.8926,-2.8492,-2.8614,-2.8489,-2.8255,-2.8338,-2.8521,-2.8662,-2.8731,-2.87,-2.8669,-2.8612,-2.8673,-2.9079,-2.8461,-2.8317,-2.8613,-2.7727,-2.697,-2.7183,-2.656,-2.6108,-2.5932,-2.6409,-2.6827,-2.7035,-2.7051,-2.6939,-2.6818,-2.6792,-2.6785,-2.6808,-2.6666,-2.647,-2.6505,-2.692,-2.7264,-2.7114,-2.7213,-2.7143,-2.6937,-2.6729,-2.6439,-2.6377,-2.5935,-2.5697,-2.5561,-2.5228,-2.5025,-2.4996,-2.4888,-2.4739,-2.4483,-2.4895,-2.5114,-2.5204,-2.5508,-2.5765,-2.595,-2.6651,-2.6761,-2.6507,-2.621,-2.5944,-2.5641,-2.5447,-2.5184,-2.5018,-2.5018,-2.5127,-2.549,-2.5747,-2.5846,-2.5972,-2.6045,-2.6194,-2.6253,-2.6204,-2.6285,-2.6375,-2.6331,-2.6378,-2.6459,-2.6623,-2.6717,-2.6908,-2.7105,-2.7144,-2.7052,-2.6791,-2.6778,-2.7035,-2.6925,-2.6566,-2.6438,-2.6371,-2.622,-3.1821,-3.1692,-3.1008,-3.0682,-3.0676,-3.0483,-3.0489,-3.0284,-2.9532,-2.9308,-2.9635,-2.9075,-2.9138,-2.9345,-2.955,-2.9531,-2.9418,-2.9152,-2.8979,-2.8604,-2.8491,-2.8084,-2.788,-2.7638,-2.7707,-2.8196,-2.8507,-2.8704,-2.8791,-2.8694,-2.8481,-2.7936,-2.7637,-2.7695,-2.7417,-2.6702,-2.6394,-2.6565,-2.5961,-2.5504,-2.5498,-2.5606,-2.5745,-2.5887,-2.5928,-2.5836,-2.5681,-2.5553,-2.5426,-2.5338,-2.5266,-2.5149,-2.5253,-2.5967,-2.6293,-2.6313,-2.6344,-2.6276,-2.5894,-2.5504,-2.5143,-2.4808,-2.471,-2.4609,-2.445,-2.4249,-2.4238,-2.441,-2.4538,-2.4517,-2.4575,-2.4497,-2.4505,-2.4639,-2.4972,-2.5279,-2.5381,-2.5642,-2.5925,-2.5689,-2.5494,-2.5476,-2.5339,-2.5244,-2.5145,-2.5075,-2.5018,-2.5018,-2.5165,-2.5303,-2.5317,-2.5445,-2.5504,-2.5758,-2.5911,-2.5827,-2.5811,-2.5947,-2.5939,-2.595,-2.6126,-2.6505,-2.6687,-2.6485,-2.6343,-2.6308,-2.6192,-2.6154,-2.6194,-2.6401,-2.6279,-2.6114,-2.603,-2.5877,-2.5765,-3.1025,-3.0933,-3.0556,-3.0379,-3.0367,-3.0367,-3.0323,-3.0241,-2.9774,-2.945,-2.9334,-2.9273,-2.9193,-2.928,-2.9655,-2.9545,-2.8988,-2.8444,-2.8035,-2.7606,-2.7568,-2.7363,-2.7214,-2.6953,-2.7214,-2.7491,-2.7798,-2.8393,-2.8966,-2.8881,-2.8281,-2.7783,-2.7423,-2.7121,-2.6616,-2.5871,-2.5685,-2.5721,-2.5105,-2.4513,-2.4534,-2.4654,-2.4918,-2.5215,-2.5257,-2.5255,-2.5188,-2.5074,-2.4988,-2.4901,-2.4782,-2.4584,-2.4601,-2.4811,-2.5312,-2.5471,-2.5582,-2.5476,-2.5091,-2.4886,-2.4651,-2.439,-2.4177,-2.4124,-2.4024,-2.3844,-2.3673,-2.3687,-2.3695,-2.3706,-2.3649,-2.3899,-2.4009,-2.4104,-2.4462,-2.4674,-2.4699,-2.4783,-2.4819,-2.4894,-2.5149,-2.5287,-2.5508,-2.5411,-2.5257,-2.5145,-2.5034,-2.4937,-2.4896,-2.4885,-2.4817,-2.5147,-2.5369,-2.5619,-2.5812,-2.5716,-2.5494,-2.5577,-2.5548,-2.5567,-2.5503,-2.5724,-2.5652,-2.5507,-2.5468,-2.5563,-2.5762,-2.5868,-2.5832,-2.5756,-2.5652,-2.5572,-2.5526,-2.5465,-2.5265,-2.9979,-2.995,-2.996,-2.9967,-2.9935,-2.9967,-2.9888,-2.9813,-2.9552,-2.9097,-2.8752,-2.9011,-2.8898,-2.8764,-2.8962,-2.8973,-2.824,-2.7598,-2.7097,-2.6709,-2.6768,-2.6615,-2.6373,-2.6378,-2.6667,-2.6711,-2.6748,-2.7397,-2.8257,-2.8323,-2.7944,-2.72,-2.6885,-2.6609,-2.5886,-2.5044,-2.4734,-2.4364,-2.3868,-2.3348,-2.3393,-2.3741,-2.427,-2.4795,-2.4865,-2.4768,-2.4599,-2.4472,-2.4361,-2.4248,-2.4154,-2.3998,-2.3883,-2.3909,-2.4164,-2.463,-2.4886,-2.4842,-2.453,-2.4225,-2.3863,-2.3646,-2.3636,-2.3644,-2.3788,-2.3576,-2.3393,-2.3127,-2.3051,-2.3018,-2.3149,-2.3334,-2.3504,-2.363,-2.3923,-2.4191,-2.4092,-2.4027,-2.3918,-2.418,-2.4729,-2.4761,-2.4664,-2.5025,-2.4792,-2.4532,-2.4422,-2.4409,-2.4381,-2.4368,-2.4477,-2.4914,-2.5259,-2.5619,-2.5757,-2.5702,-2.5536,-2.5383,-2.5298,-2.5195,-2.4983,-2.4824,-2.4753,-2.4771,-2.484,-2.4997,-2.5283,-2.5363,-2.5086,-2.4948,-2.495,-2.4975,-2.4928,-2.4806,-2.4657,-2.8365,-2.8381,-2.8341,-2.8277,-2.8345,-2.8405,-2.8348,-2.8261,-2.7701,-2.746,-2.7884,-2.7366,-2.7459,-2.7771,-2.7809,-2.7751,-2.7521,-2.726,-2.6995,-2.6681,-2.6405,-2.6163,-2.5925,-2.5295,-2.57,-2.5901,-2.591,-2.634,-2.6969,-2.6974,-2.6554,-2.5944,-2.5746,-2.5266,-2.5086,-2.4361,-2.3768,-2.3715,-2.3448,-2.3212,-2.3133,-2.3225,-2.3418,-2.3463,-2.3516,-2.3543,-2.3579,-2.3476,-2.3319,-2.3187,-2.2983,-2.2832,-2.2773,-2.3097,-2.3109,-2.3192,-2.3339,-2.3458,-2.3132,-2.3009,-2.2871,-2.2747,-2.2498,-2.2626,-2.2929,-2.3305,-2.3259,-2.3127,-2.2949,-2.2933,-2.2918,-2.2989,-2.3033,-2.3144,-2.3425,-2.356,-2.3492,-2.3087,-2.2985,-2.2594,-2.2909,-2.3142,-2.3206,-2.379,-2.4218,-2.4,-2.3877,-2.3877,-2.3891,-2.3972,-2.408,-2.4544,-2.4901,-2.5254,-2.5464,-2.5465,-2.5439,-2.5217,-2.5034,-2.4935,-2.4765,-2.4593,-2.4261,-2.4302,-2.4372,-2.4245,-2.424,-2.417,-2.4144,-2.4137,-2.4265,-2.4317,-2.4381,-2.4239,-2.3937,-2.7748,-2.8165,-2.8132,-2.8081,-2.8054,-2.8051,-2.8047,-2.7973,-2.7655,-2.7387,-2.7305,-2.7393,-2.7556,-2.7607,-2.7321,-2.6962,-2.6797,-2.6435,-2.6148,-2.6179,-2.5804,-2.5589,-2.5462,-2.5194,-2.522,-2.5205,-2.5177,-2.4856,-2.5352,-2.6022,-2.6234,-2.5424,-2.5193,-2.4941,-2.4339,-2.3945,-2.3466,-2.3092,-2.2763,-2.2645,-2.2659,-2.2911,-2.3126,-2.3084,-2.3067,-2.306,-2.2993,-2.2902,-2.279,-2.2685,-2.2569,-2.2432,-2.2372,-2.2404,-2.2348,-2.2031,-2.2005,-2.2232,-2.2477,-2.2368,-2.2186,-2.2118,-2.2017,-2.2161,-2.2385,-2.2585,-2.2837,-2.2773,-2.2643,-2.2659,-2.2906,-2.3037,-2.2962,-2.2973,-2.2908,-2.2644,-2.2537,-2.2303,-2.1967,-2.1468,-2.1114,-2.1407,-2.1835,-2.2517,-2.3234,-2.3554,-2.3437,-2.3466,-2.3612,-2.3785,-2.3906,-2.4135,-2.4448,-2.4759,-2.4919,-2.5061,-2.5176,-2.5053,-2.491,-2.4768,-2.4751,-2.4593,-2.4124,-2.3813,-2.3756,-2.3552,-2.3292,-2.3381,-2.3644,-2.3647,-2.3576,-2.3642,-2.3651,-2.3276,-2.3028,-2.7245,-2.7557,-2.7553,-2.7507,-2.7473,-2.7476,-2.7453,-2.7452,-2.7375,-2.7064,-2.6798,-2.7043,-2.7284,-2.7235,-2.6602,-2.6246,-2.6145,-2.5491,-2.5244,-2.5172,-2.5141,-2.5172,-2.508,-2.4967,-2.4689,-2.4702,-2.4076,-2.3742,-2.3852,-2.4353,-2.4801,-2.4598,-2.4042,-2.3853,-2.3482,-2.3089,-2.2697,-2.2159,-2.1729,-2.1679,-2.1879,-2.2288,-2.2453,-2.257,-2.2705,-2.2797,-2.2748,-2.2892,-2.279,-2.2738,-2.2605,-2.2515,-2.2366,-2.2271,-2.2028,-2.1685,-2.1503,-2.1467,-2.167,-2.1698,-2.1704,-2.169,-2.185,-2.1797,-2.165,-2.1843,-2.2054,-2.2177,-2.2081,-2.2233,-2.2527,-2.2659,-2.2513,-2.2366,-2.2363,-2.1914,-2.1525,-2.1295,-2.0996,-2.0557,-2.0161,-1.9838,-2.0394,-2.1244,-2.2019,-2.2817,-2.305,-2.3036,-2.3206,-2.3386,-2.3534,-2.3668,-2.4026,-2.4245,-2.4285,-2.4524,-2.4721,-2.4737,-2.4542,-2.4412,-2.4233,-2.4059,-2.3728,-2.3469,-2.3263,-2.3258,-2.3245,-2.3245,-2.3258,-2.3238,-2.318,-2.2996,-2.2837,-2.2469,-2.2309,-2.655,-2.5875,-2.5856,-2.5861,-2.5869,-2.5772,-2.5827,-2.5989,-2.5892,-2.5892,-2.5829,-2.5809,-2.5912,-2.5732,-2.5766,-2.5595,-2.5408,-2.5273,-2.5252,-2.5231,-2.516,-2.5045,-2.4782,-2.4354,-2.384,-2.3613,-2.3145,-2.2632,-2.223,-2.2439,-2.2454,-2.209,-2.2482,-2.2027,-2.1862,-2.1933,-2.1708,-2.1229,-2.0769,-2.0687,-2.0983,-2.1277,-2.1344,-2.145,-2.1776,-2.2083,-2.2101,-2.2474,-2.2778,-2.2728,-2.2617,-2.2624,-2.2463,-2.2315,-2.2032,-2.1751,-2.1417,-2.1247,-2.1101,-2.0891,-2.064,-2.0744,-2.1029,-2.1329,-2.1061,-2.1019,-2.1228,-2.152,-2.1473,-2.1454,-2.1606,-2.1697,-2.1829,-2.1686,-2.1629,-2.1356,-2.0884,-2.0287,-2.0017,-1.966,-1.9367,-1.9162,-1.9081,-1.995,-2.0801,-2.156,-2.2193,-2.2263,-2.2603,-2.2832,-2.3,-2.3196,-2.3602,-2.3724,-2.3644,-2.3747,-2.3751,-2.3729,-2.3541,-2.3537,-2.3464,-2.3289,-2.3127,-2.3148,-2.2992,-2.3103,-2.3037,-2.2799,-2.2605,-2.2747,-2.275,-2.2726,-2.2482,-2.2235,-2.2075,-2.6381,-2.5629,-2.5605,-2.5602,-2.5662,-2.5655,-2.564,-2.56,-2.5605,-2.5598,-2.5598,-2.5593,-2.5565,-2.5522,-2.5515,-2.5473,-2.5413,-2.5406,-2.5357,-2.511,-2.4841,-2.4563,-2.4207,-2.3705,-2.3097,-2.2988,-2.2507,-2.1934,-2.151,-2.132,-2.0838,-2.0782,-2.1242,-2.1708,-2.164,-2.106,-2.0771,-2.0626,-2.026,-2.0217,-2.0354,-2.0865,-2.1078,-2.1132,-2.1175,-2.1401,-2.1432,-2.1617,-2.1926,-2.2181,-2.2206,-2.2358,-2.2512,-2.2392,-2.222,-2.1957,-2.1615,-2.123,-2.0811,-2.053,-2.0342,-2.025,-2.0507,-2.0635,-2.0461,-2.0362,-2.058,-2.0795,-2.0941,-2.0858,-2.1322,-2.1471,-2.1489,-2.1121,-2.0865,-2.0737,-2.031,-1.9758,-1.9347,-1.9155,-1.8906,-1.8662,-1.8638,-1.8686,-1.9558,-2.0354,-2.0952,-2.1565,-2.2058,-2.24,-2.2639,-2.2704,-2.3021,-2.316,-2.3086,-2.2953,-2.2804,-2.2681,-2.2631,-2.2737,-2.2747,-2.2483,-2.2364,-2.2495,-2.2464,-2.2272,-2.2085,-2.1952,-2.2067,-2.2404,-2.2542,-2.258,-2.2321,-2.2025,-2.1913,-2.6324,-2.56,-2.5609,-2.5645,-2.5697,-2.5703,-2.5663,-2.5599,-2.5629,-2.5634,-2.5626,-2.5623,-2.5626,-2.5623,-2.5625,-2.558,-2.5532,-2.5492,-2.5258,-2.4904,-2.4439,-2.4017,-2.3503,-2.292,-2.2345,-2.2316,-2.1894,-2.1286,-2.0793,-2.0646,-2.0351,-2.0284,-2.061,-2.1031,-2.092,-2.0567,-2.0105,-2.0021,-1.9936,-1.9795,-1.9866,-2.0152,-2.0419,-2.0471,-2.059,-2.0726,-2.0812,-2.0997,-2.1304,-2.1603,-2.1803,-2.2031,-2.2255,-2.238,-2.2354,-2.213,-2.1836,-2.1477,-2.1103,-2.0646,-2.0357,-2.027,-2.0262,-2.0203,-2.0021,-1.9899,-2.0115,-2.034,-2.0385,-2.0442,-2.0872,-2.0783,-2.0615,-2.0226,-2.046,-2.0361,-1.9861,-1.9362,-1.8979,-1.8702,-1.856,-1.8584,-1.8608,-1.8669,-1.9183,-2.0062,-2.098,-2.1516,-2.1889,-2.2232,-2.2409,-2.2372,-2.2348,-2.24,-2.2457,-2.221,-2.2055,-2.1931,-2.19,-2.2062,-2.2009,-2.1807,-2.1754,-2.2031,-2.1857,-2.1368,-2.1349,-2.1485,-2.1823,-2.2281,-2.2322,-2.2347,-2.2091,-2.1798,-2.1765,-2.6262,-2.5543,-2.5556,-2.5636,-2.5687,-2.5698,-2.5666,-2.5618,-2.5664,-2.5681,-2.567,-2.5691,-2.5691,-2.567,-2.5681,-2.5629,-2.5554,-2.5488,-2.5113,-2.4458,-2.3888,-2.3562,-2.284,-2.2087,-2.1543,-2.129,-2.0939,-2.0498,-2.0124,-2.0115,-1.9929,-1.9899,-2.0089,-2.0105,-1.9713,-1.9534,-1.9408,-1.9344,-1.935,-1.9342,-1.9368,-1.9462,-1.9502,-1.9613,-1.9903,-2.0099,-2.0169,-2.0432,-2.0728,-2.104,-2.1432,-2.1726,-2.1989,-2.2391,-2.2478,-2.2415,-2.2141,-2.1807,-2.1446,-2.073,-2.041,-2.0392,-2.0369,-2.0246,-2.0025,-1.9869,-1.9762,-1.9959,-1.9723,-1.9546,-1.9669,-1.9773,-1.9691,-1.9672,-1.9922,-1.9897,-1.9411,-1.9157,-1.8817,-1.8659,-1.8698,-1.8707,-1.875,-1.8846,-1.9137,-1.9884,-2.0926,-2.1498,-2.1799,-2.2155,-2.2392,-2.2217,-2.203,-2.1924,-2.1897,-2.1545,-2.1301,-2.1166,-2.1176,-2.134,-2.1355,-2.1212,-2.1298,-2.1504,-2.1234,-2.068,-2.0915,-2.1144,-2.1292,-2.1383,-2.1957,-2.2019,-2.1813,-2.1523,-2.1337,-2.5591,-2.5374,-2.543,-2.5512,-2.5565,-2.5621,-2.5619,-2.5615,-2.5657,-2.5703,-2.5703,-2.5702,-2.5702,-2.5701,-2.5679,-2.5655,-2.5554,-2.491,-2.4432,-2.4155,-2.3231,-2.2475,-2.1855,-2.1306,-2.0807,-2.0635,-2.026,-2.0134,-2.0089,-1.9969,-1.9926,-1.9904,-1.9881,-1.9804,-1.9745,-1.9641,-1.9574,-1.955,-1.9481,-1.9394,-1.9335,-1.9308,-1.928,-1.9232,-1.9462,-1.954,-1.9558,-1.9849,-2.0045,-2.0364,-2.0782,-2.1118,-2.165,-2.2167,-2.2364,-2.2513,-2.2419,-2.2044,-2.154,-2.0909,-2.053,-2.0545,-2.0441,-2.0266,-2.0025,-1.9869,-1.9711,-1.9566,-1.9435,-1.9302,-1.9307,-1.9342,-1.9252,-1.9228,-1.9334,-1.932,-1.9051,-1.8946,-1.8779,-1.8765,-1.8784,-1.8798,-1.8831,-1.8916,-1.919,-1.9487,-2.0436,-2.1255,-2.1643,-2.2173,-2.2512,-2.217,-2.1935,-2.1636,-2.1396,-2.1166,-2.1046,-2.0964,-2.0841,-2.0768,-2.0706,-2.0643,-2.0514,-2.0567,-2.032,-2.0085,-2.0146,-2.0251,-2.0224,-2.0428,-2.0892,-2.1199,-2.1067,-2.0724,-2.0484,-2.5145,-2.5212,-2.5274,-2.5329,-2.5422,-2.5504,-2.5576,-2.5598,-2.5632,-2.5668,-2.5676,-2.5662,-2.5663,-2.5683,-2.5684,-2.541,-2.5234,-2.4723,-2.3675,-2.3447,-2.2364,-2.1666,-2.1124,-2.0698,-2.0533,-2.0321,-2.0272,-2.0211,-2.0175,-2.0098,-2.004,-2.0,-1.996,-1.9915,-1.9854,-1.977,-1.9732,-1.9713,-1.963,-1.9564,-1.9499,-1.946,-1.9402,-1.9308,-1.9266,-1.9221,-1.9202,-1.9208,-1.9252,-1.9632,-2.0003,-2.0415,-2.1238,-2.1826,-2.2133,-2.2539,-2.2561,-2.2203,-2.1797,-2.1448,-2.1119,-2.0958,-2.0494,-2.0096,-1.9919,-1.9782,-1.9675,-1.953,-1.9339,-1.9191,-1.9116,-1.9078,-1.9003,-1.8941,-1.8941,-1.8941,-1.8903,-1.8836,-1.8836,-1.8822,-1.8874,-1.8912,-1.895,-1.9011,-1.9159,-1.9513,-1.9922,-2.0647,-2.1369,-2.1871,-2.2264,-2.1993,-2.1718,-2.1506,-2.1251,-2.097,-2.0848,-2.0775,-2.0625,-2.041,-2.0258,-2.0182,-1.99,-1.9656,-1.9661,-1.9589,-1.9344,-1.9291,-1.9412,-1.9468,-1.9617,-1.9921,-2.0112,-2.0028,-1.9913,-2.4917,-2.4987,-2.5053,-2.5133,-2.5206,-2.536,-2.5493,-2.5579,-2.56,-2.5559,-2.5517,-2.5439,-2.5332,-2.5458,-2.5503,-2.5035,-2.4391,-2.4179,-2.3261,-2.23,-2.1688,-2.1123,-2.0744,-2.0461,-2.04,-2.0374,-2.0328,-2.0295,-2.0295,-2.0215,-2.0133,-2.0107,-2.0098,-2.002,-1.9955,-1.9919,-1.9854,-1.9818,-1.9775,-1.9701,-1.9609,-1.9592,-1.9489,-1.9383,-1.9295,-1.9248,-1.9216,-1.9155,-1.9054,-1.9255,-1.9576,-2.0207,-2.0859,-2.1499,-2.2133,-2.2548,-2.2535,-2.2415,-2.2192,-2.1869,-2.1524,-2.1119,-2.0395,-1.9909,-1.9726,-1.9711,-1.9603,-1.9493,-1.9325,-1.9153,-1.9017,-1.8912,-1.886,-1.8822,-1.8822,-1.8822,-1.8798,-1.8798,-1.8889,-1.8927,-1.9017,-1.9055,-1.9153,-1.9228,-1.9101,-1.9118,-1.9362,-1.9755,-2.0457,-2.1163,-2.1521,-2.1605,-2.1418,-2.1348,-2.1118,-2.0885,-2.0835,-2.0825,-2.041,-2.0195,-1.9978,-1.9759,-1.9617,-1.9408,-1.9263,-1.9117,-1.897,-1.881,-1.8726,-1.8833,-1.8915,-1.91,-1.9432,-1.9616,-1.9529,-2.4604,-2.4719,-2.4752,-2.4818,-2.4937,-2.5075,-2.5263,-2.543,-2.5432,-2.5189,-2.4593,-2.4608,-2.4417,-2.38,-2.3759,-2.3701,-2.3335,-2.2871,-2.2371,-2.1714,-2.1171,-2.0761,-2.0541,-2.0471,-2.0458,-2.0425,-2.0405,-2.0366,-2.0355,-2.0296,-2.0272,-2.0246,-2.0203,-2.0125,-2.0069,-2.0057,-1.9966,-1.99,-1.987,-1.9775,-1.9701,-1.9668,-1.9587,-1.9508,-1.9424,-1.936,-1.9329,-1.9251,-1.917,-1.9177,-1.9165,-1.954,-2.0167,-2.0898,-2.1633,-2.2728,-2.279,-2.2712,-2.2388,-2.2118,-2.1794,-2.1323,-2.0698,-2.0292,-1.9995,-1.9762,-1.9617,-1.9472,-1.925,-1.904,-1.8941,-1.8836,-1.8784,-1.8784,-1.8798,-1.8798,-1.8812,-1.8851,-1.8889,-1.8912,-1.9003,-1.9191,-1.9302,-1.9153,-1.8988,-1.8846,-1.8849,-1.9129,-1.9529,-2.0271,-2.0886,-2.1041,-2.1172,-2.1102,-2.1055,-2.0898,-2.0848,-2.0799,-2.0398,-2.0042,-1.99,-1.9681,-1.9368,-1.9158,-1.8987,-1.8839,-1.8679,-1.8536,-1.8258,-1.8382,-1.8518,-1.8588,-1.8694,-1.8794,-1.8779,-2.4211,-2.4284,-2.4353,-2.4468,-2.464,-2.4785,-2.4955,-2.5094,-2.4928,-2.4535,-2.4138,-2.4152,-2.3689,-2.3198,-2.3349,-2.3184,-2.2449,-2.2139,-2.1623,-2.102,-2.0687,-2.057,-2.0502,-2.0508,-2.0504,-2.0471,-2.0453,-2.0409,-2.0414,-2.04,-2.0374,-2.0321,-2.0282,-2.0215,-2.015,-2.0143,-2.0078,-2.0002,-1.995,-1.9877,-1.9788,-1.9726,-1.9673,-1.9597,-1.9512,-1.9483,-1.9464,-1.9375,-1.9282,-1.915,-1.9034,-1.9255,-1.9978,-2.0813,-2.172,-2.2735,-2.2893,-2.2799,-2.2588,-2.2409,-2.201,-2.1535,-2.1086,-2.0731,-2.0323,-2.0005,-1.9756,-1.9487,-1.9191,-1.8927,-1.8851,-1.8812,-1.8774,-1.8721,-1.8774,-1.8827,-1.8865,-1.8865,-1.8927,-1.8936,-1.9049,-1.9236,-1.925,-1.9064,-1.8912,-1.8731,-1.8553,-1.8432,-1.8782,-1.9349,-2.0127,-2.0628,-2.0772,-2.0845,-2.0833,-2.0792,-2.0746,-2.0597,-2.0321,-2.0029,-1.9849,-1.955,-1.9182,-1.8946,-1.8655,-1.8478,-1.8242,-1.8,-1.7771,-1.7825,-1.7691,-1.7508,-1.7539,-1.7679,-1.7634,-2.3653,-2.3756,-2.3883,-2.4099,-2.4334,-2.4437,-2.4554,-2.4588,-2.4125,-2.3936,-2.3928,-2.3967,-2.3543,-2.2975,-2.3103,-2.2661,-2.1959,-2.1442,-2.1025,-2.0349,-2.0425,-2.041,-2.047,-2.0474,-2.0482,-2.0488,-2.0463,-2.0456,-2.0484,-2.0467,-2.0434,-2.039,-2.0385,-2.032,-2.0241,-2.0248,-2.0195,-2.0139,-2.0103,-2.006,-1.9855,-1.9775,-1.9738,-1.9592,-1.9504,-1.9446,-1.9442,-1.9402,-1.9344,-1.9232,-1.9175,-1.9327,-2.0228,-2.0947,-2.1914,-2.2613,-2.2859,-2.2747,-2.2624,-2.2463,-2.2254,-2.1878,-2.1519,-2.1134,-2.0679,-2.0146,-1.9827,-1.9596,-1.9288,-1.9064,-1.8965,-1.8736,-1.862,-1.8697,-1.8736,-1.8711,-1.8662,-1.875,-1.8912,-1.8974,-1.9139,-1.9288,-1.925,-1.9064,-1.876,-1.863,-1.8397,-1.8083,-1.818,-1.8603,-1.9214,-1.9975,-2.018,-2.0315,-2.0399,-2.0386,-2.044,-2.0306,-2.0067,-1.9888,-1.9679,-1.9312,-1.8994,-1.8643,-1.8282,-1.7931,-1.7622,-1.7379,-1.704,-1.6859,-1.6647,-1.6282,-1.6354,-1.6575,-1.6606,-2.2937,-2.33,-2.3482,-2.3617,-2.3723,-2.3808,-2.3985,-2.41,-2.334,-2.3296,-2.3632,-2.3651,-2.322,-2.2547,-2.2239,-2.1771,-2.1368,-2.0779,-2.0431,-2.0272,-2.0243,-2.0301,-2.04,-2.0402,-2.0451,-2.0494,-2.0495,-2.0468,-2.0488,-2.0483,-2.0451,-2.0402,-2.0393,-2.0379,-2.0341,-2.0337,-2.0307,-2.0266,-2.0274,-2.0204,-2.0035,-2.0003,-1.9972,-1.9843,-1.9743,-1.9643,-1.9604,-1.9495,-1.9442,-1.9353,-1.9164,-1.9669,-2.0601,-2.0939,-2.1698,-2.2606,-2.2816,-2.2703,-2.2473,-2.2337,-2.2084,-2.1764,-2.1415,-2.1276,-2.0926,-2.0323,-1.9919,-1.9675,-1.942,-1.9213,-1.9003,-1.8736,-1.8542,-1.862,-1.8683,-1.8609,-1.852,-1.8687,-1.8874,-1.9026,-1.9191,-1.9228,-1.9176,-1.8988,-1.8707,-1.845,-1.8149,-1.7922,-1.7788,-1.803,-1.8286,-1.894,-1.9391,-1.9581,-1.9807,-1.9903,-1.9908,-1.986,-1.9661,-1.9494,-1.9368,-1.8814,-1.8236,-1.8093,-1.7809,-1.7361,-1.6938,-1.658,-1.6287,-1.602,-1.582,-1.5567,-1.5482,-1.5646,-1.5703,-2.2046,-2.2504,-2.2855,-2.3069,-2.3141,-2.3241,-2.3424,-2.3527,-2.3112,-2.3155,-2.3434,-2.3321,-2.2753,-2.1985,-2.1582,-2.1041,-2.0724,-2.0167,-2.0058,-2.0031,-2.0049,-2.0126,-2.0195,-2.027,-2.0316,-2.0381,-2.0445,-2.0458,-2.0447,-2.0438,-2.0408,-2.0371,-2.0386,-2.0433,-2.0431,-2.0411,-2.0425,-2.0377,-2.0425,-2.0359,-2.0239,-2.0199,-2.0101,-1.9984,-1.9914,-1.9836,-1.9804,-1.972,-1.965,-1.9572,-1.9425,-1.9785,-2.0553,-2.1058,-2.164,-2.2335,-2.2688,-2.273,-2.2368,-2.2108,-2.1895,-2.1598,-2.1308,-2.115,-2.1055,-2.0512,-2.0289,-2.0015,-1.942,-1.9139,-1.9026,-1.8836,-1.8697,-1.8697,-1.876,-1.8736,-1.8715,-1.8782,-1.8841,-1.8912,-1.895,-1.8912,-1.8836,-1.8683,-1.845,-1.845,-1.8149,-1.776,-1.7639,-1.7352,-1.7631,-1.7853,-1.8262,-1.885,-1.9258,-1.929,-1.9219,-1.9175,-1.9095,-1.8621,-1.8193,-1.7798,-1.7425,-1.7315,-1.7033,-1.6606,-1.6174,-1.5857,-1.5444,-1.5088,-1.4996,-1.4909,-1.4895,-1.4868,-1.4919,-2.1116,-2.1579,-2.2085,-2.2388,-2.2521,-2.2678,-2.283,-2.3028,-2.3028,-2.31,-2.3209,-2.3022,-2.2133,-2.1821,-2.1525,-2.08,-2.0229,-1.9888,-1.9788,-1.9786,-1.9824,-1.9895,-1.9984,-2.0065,-2.0135,-2.0238,-2.0341,-2.0362,-2.0376,-2.0367,-2.0373,-2.0333,-2.0371,-2.0443,-2.0428,-2.0449,-2.0469,-2.0467,-2.0486,-2.0503,-2.0416,-2.0331,-2.0212,-2.0123,-2.0039,-2.0021,-2.0021,-1.999,-1.9939,-1.9824,-1.9707,-2.0015,-2.0541,-2.1164,-2.1731,-2.2332,-2.298,-2.2842,-2.2521,-2.2286,-2.196,-2.1609,-2.1274,-2.1086,-2.0975,-2.073,-2.0512,-2.012,-1.9493,-1.9139,-1.9064,-1.8927,-1.8774,-1.8721,-1.8798,-1.8798,-1.874,-1.8719,-1.8701,-1.8721,-1.8592,-1.8553,-1.8358,-1.8214,-1.8175,-1.8214,-1.8082,-1.7774,-1.7422,-1.698,-1.6884,-1.6926,-1.7074,-1.7734,-1.8364,-1.8505,-1.8384,-1.8346,-1.8151,-1.7593,-1.7128,-1.7014,-1.6796,-1.6497,-1.6198,-1.5891,-1.5465,-1.5083,-1.4666,-1.4406,-1.445,-1.4478,-1.4519,-1.4457,-1.432,-2.0299,-2.0716,-2.1132,-2.1393,-2.1589,-2.177,-2.2034,-2.2275,-2.2275,-2.2368,-2.2522,-2.2718,-2.2635,-2.2862,-2.1752,-2.1006,-2.0563,-1.9939,-1.9569,-1.9553,-1.9503,-1.962,-1.9741,-1.9793,-1.9926,-2.0056,-2.0158,-2.0241,-2.021,-2.0257,-2.0305,-2.0279,-2.0359,-2.0383,-2.0338,-2.0369,-2.0443,-2.0471,-2.05,-2.0505,-2.0501,-2.0444,-2.0409,-2.0313,-2.0215,-2.0177,-2.0137,-2.0058,-2.0031,-1.9974,-1.9901,-2.0107,-2.0588,-2.1226,-2.1842,-2.231,-2.2959,-2.307,-2.2795,-2.2485,-2.2113,-2.1606,-2.1319,-2.1055,-2.0845,-2.0462,-2.0258,-2.0035,-1.9551,-1.9288,-1.9101,-1.8851,-1.8673,-1.8736,-1.8798,-1.8567,-1.8439,-1.8375,-1.8307,-1.8161,-1.8028,-1.7868,-1.7639,-1.7475,-1.7297,-1.7256,-1.716,-1.6896,-1.6685,-1.6398,-1.617,-1.6093,-1.6102,-1.6374,-1.6948,-1.7318,-1.7343,-1.7371,-1.7235,-1.6705,-1.646,-1.6508,-1.6305,-1.5814,-1.5521,-1.5263,-1.4822,-1.4489,-1.4339,-1.4157,-1.4114,-1.4114,-1.414,-1.415,-1.4067]},{"header":{"parameterUnit":"m.s-1","parameterCategory":1,"la1":31.0,"la2":29.5877,"lo1":-88.7671,"lo2":-86.6584,"dy":0.0162,"dx":0.0185,"nx":115,"ny":88,"refTime":"2023-05-13T12:00:00:Z","depth":0,"parameterNumber":3,"parameterNumberName":"V-component_of_WINDS"},"data":[0.0,0.0,0.0,0.0,0.0,0.0,0.0,0.0,0.0,0.0,0.0,0.0,0.0,0.0,0.0,0.0,0.0,0.0,0.0,0.0,0.0,0.0,0.0,0.0,0.0,0.0,0.0,0.0,0.0,0.0,0.0,0.0,0.0,0.0,0.0,0.0,0.0,0.0,0.0,0.0,0.0,0.0,0.0,0.0,0.0,0.0,0.0,0.0,0.0,0.0,0.0,0.0,0.0,0.0,0.0,0.0,0.0,0.0,0.0,0.0,0.0,0.0,0.0,0.0,0.0,0.0,0.0,0.0,0.0,0.0,0.0,0.0,0.0,0.0,0.0,0.0,0.0,0.0,0.0,0.0,0.0,0.0,0.0,0.0,0.0,0.0,0.0,0.0,0.0,0.0,0.0,0.0,0.0,0.0,0.0,0.0,0.0,0.0,0.0,0.0,0.0,0.0,0.0,0.0,0.0,0.0,0.0,0.0,0.0,0.0,0.0,0.0,0.0,0.0,0.0,0.0,0.0,0.0,0.0,0.0,0.0,0.0,0.0,0.0,0.0,0.0,0.0,0.0,0.0,0.0,0.0,0.0,0.0,0.0,0.0,0.0,0.0,0.0,0.0,0.0,0.0,0.0,0.0,0.0,0.0,0.0,0.0,0.0,0.0,0.0,0.0,0.0,0.0,0.0,0.0,0.0,0.0,0.0,0.0,0.0,0.0,0.0,0.0,0.0,0.0,0.0,0.0,0.0,0.0,0.0,0.0,0.0,0.0,0.0,0.0,0.0,0.0,0.0,0.0,0.0,0.0,0.0,0.0,0.0,0.0,0.0,0.0,0.0,0.0,0.0,0.0,0.0,0.0,0.0,0.0,0.0,0.0,0.0,0.0,0.0,0.0,0.0,0.0,0.0,0.0,0.0,0.0,0.0,0.0,0.0,0.0,0.0,0.0,0.0,0.0,0.0,0.0,0.0,0.0,0.0,0.0,0.0,0.0,0.0,0.0,0.0,0.0,0.0,0.0,0.0,0.0,0.0,0.0,0.0,0.0,0.0,0.0,0.0,0.0,0.0,0.0,0.0,0.0,0.0,0.0,0.0,0.0,0.0,0.0,0.0,0.0,0.0,0.0,0.0,0.0,0.0,0.0,0.0,0.0,0.0,0.0,0.0,0.0,0.0,0.0,0.0,0.0,0.0,0.0,0.0,0.0,0.0,0.0,0.0,0.0,0.0,0.0,0.0,0.0,0.0,0.0,0.0,0.0,0.0,0.0,0.0,0.0,0.0,0.0,0.0,0.0,0.0,0.0,0.0,0.0,0.0,0.0,0.0,0.0,0.0,0.0,0.0,0.0,0.0,0.0,0.0,0.0,0.0,0.0,0.0,0.0,0.0,0.0,0.0,0.0,0.0,0.0,0.0,0.0,0.0,0.0,0.0,0.0,0.0,0.0,0.0,0.0,0.0,0.0,0.0,0.0,0.0,0.0,0.0,0.0,0.0,0.0,0.0,0.0,0.0,0.0,0.0,0.0,0.0,0.0,0.0,0.0,0.0,0.0,0.0,0.0,0.0,0.0,0.0,0.0,0.0,0.0,0.0,0.0,0.0,0.0,0.0,0.0,0.0,0.0,0.0,0.0,0.0,0.0,0.0,0.0,0.0,0.0,0.0,0.0,0.0,0.0,0.0,0.0,0.0,0.0,0.0,0.0,0.0,0.0,0.0,0.0,0.0,0.0,0.0,0.0,0.0,0.0,0.0,0.0,0.0,0.0,0.0,0.0,0.0,0.0,0.0,0.0,0.0,0.0,0.0,0.0,0.0,0.0,0.0,0.0,0.0,0.0,0.0,0.0,0.0,0.0,0.0,0.0,0.0,0.0,0.0,0.0,0.0,0.0,0.0,0.0,0.0,0.0,0.0,0.0,0.0,0.0,0.0,0.0,0.0,0.0,0.0,0.0,0.0,0.0,0.0,0.0,0.0,0.0,0.0,0.0,0.0,0.0,0.0,0.0,0.0,0.0,0.0,0.0,0.0,0.0,0.0,0.0,0.0,0.0,0.0,0.0,0.0,0.0,0.0,0.0,0.0,0.0,0.0,0.0,0.0,0.0,0.0,0.0,0.0,0.0,0.0,0.0,0.0,0.0,0.0,0.0,0.0,0.0,0.0,0.0,0.0,0.0,0.0,0.0,0.0,0.0,0.0,0.0,0.0,0.0,0.0,0.0,0.0,0.0,0.0,0.0,0.0,0.0,0.0,0.0,0.0,0.0,0.0,0.0,0.0,0.0,0.0,0.0,0.0,0.0,0.0,0.0,0.0,0.0,0.0,0.0,0.0,0.0,0.0,0.0,0.0,0.0,0.0,0.0,0.0,0.0,0.0,0.0,0.0,0.0,0.0,0.0,0.0,0.0,0.0,0.0,0.0,0.0,0.0,0.0,0.0,0.0,0.0,0.0,0.0,0.0,0.0,0.0,0.0,0.0,0.0,0.0,0.0,0.0,0.0,0.0,0.0,0.0,0.0,0.0,0.0,0.0,0.0,0.0,0.0,0.0,0.0,0.0,0.0,0.0,0.0,0.0,0.0,0.0,0.0,0.0,0.0,0.0,0.0,0.0,0.0,0.0,0.0,0.0,0.0,0.0,0.0,0.0,0.0,0.0,0.0,0.0,0.0,0.0,0.0,0.0,0.0,0.0,0.0,0.0,0.0,0.0,0.0,0.0,0.0,0.0,0.0,0.0,0.0,0.0,0.0,0.0,0.0,0.0,0.0,0.0,0.0,0.0,0.0,0.0,0.0,0.0,0.0,0.0,0.0,0.0,0.0,0.0,0.0,0.0,0.0,0.0,0.0,0.0,0.0,0.0,0.0,0.0,0.0,0.0,0.0,0.0,0.0,0.0,0.0,0.0,0.0,0.0,0.0,0.0,0.0,0.0,0.0,0.0,0.0,0.0,0.0,0.0,0.0,0.0,0.0,0.0,0.0,0.0,0.0,0.0,0.0,0.0,0.0,0.0,0.0,0.0,0.0,0.0,0.0,0.0,0.0,0.0,0.0,0.0,0.0,0.0,0.0,0.0,0.0,0.0,0.0,0.0,0.0,0.0,0.0,0.0,0.0,0.0,0.0,0.0,0.0,0.0,0.0,0.0,0.0,0.0,0.0,0.0,0.0,0.0,0.0,0.0,0.0,0.0,0.0,0.0,0.0,0.0,0.0,0.0,0.0,0.0,0.0,0.0,0.0,0.0,0.0,0.0,0.0,0.0,0.0,0.0,0.0,0.0,0.0,0.0,0.0,0.0,0.0,0.0,0.0,0.0,0.0,0.0,0.0,0.0,0.0,0.0,0.0,0.0,0.0,0.0,0.0,0.0,0.0,0.0,0.0,0.0,0.0,0.0,0.0,0.0,0.0,0.0,0.0,0.0,0.0,0.0,0.0,0.0,0.0,0.0,0.0,0.0,0.0,0.0,0.0,0.0,0.0,0.0,0.0,0.0,0.0,0.0,0.0,0.0,0.0,0.0,0.0,0.0,0.0,0.0,0.0,0.0,0.0,0.0,0.0,0.0,0.0,0.0,0.0,0.0,0.0,0.0,0.0,0.0,0.0,0.0,0.0,0.0,0.0,0.0,0.0,0.0,0.0,0.0,0.0,0.0,0.0,0.0,0.0,0.0,0.0,0.0,0.0,0.0,0.0,0.0,0.0,0.0,0.0,0.0,0.0,0.0,0.0,0.0,0.0,0.0,0.0,0.0,0.0,0.0,0.0,0.0,0.0,0.0,0.0,0.0,0.0,0.0,0.0,0.0,0.0,0.0,0.0,0.0,0.0,0.0,0.0,0.0,0.0,0.0,0.0,0.0,0.0,0.0,0.0,0.0,0.0,0.0,0.0,0.0,0.0,0.0,0.0,0.0,0.0,0.0,0.0,0.0,0.0,0.0,0.0,0.0,0.0,0.0,0.0,0.0,0.0,0.0,0.0,0.0,0.0,0.0,0.0,0.0,0.0,0.0,0.0,0.0,0.0,0.0,0.0,0.0,0.0,0.0,0.0,0.0,0.0,0.0,0.0,0.0,0.0,0.0,0.0,0.0,0.0,0.0,0.0,0.0,0.0,0.0,0.0,0.0,0.0,0.0,0.0,0.0,0.0,0.0,0.0,0.0,0.0,0.0,0.0,0.0,0.0,0.0,0.0,0.0,0.0,0.0,0.0,0.0,0.0,0.0,0.0,0.0,0.0,0.0,0.0,0.0,0.0,0.0,0.0,0.0,0.0,0.0,0.0,0.0,0.0,0.0,0.0,0.5509,0.0,0.0,0.0,0.0,0.0,0.0,0.0,0.0,0.0,0.0,0.0,0.0,0.0,0.0,0.0,0.0,0.0,0.0,0.0,0.0,0.0,0.0,0.0,0.0,0.0,0.0,0.0,0.0,0.0,0.0,0.0,0.0,0.0,0.0,0.0,0.0,0.0,0.0,0.0,0.0,0.0,0.0,0.0,0.0,0.0,0.0,0.0,0.0,0.0,0.0,0.0,0.0,0.0,0.0,0.0,0.0,0.0,0.0,0.0,0.0,0.0,0.0,0.0,0.0,0.0,0.0,0.0,0.0,0.0,0.0,0.0,0.0,0.0,0.0,0.0,0.0,0.0,0.0,0.0,0.0,0.0,0.0,0.0,0.0,0.0,0.0,0.0,0.0,0.0,0.0,0.0,0.0,0.0,0.0,0.0,0.0,0.0,0.0,0.0,0.0,0.0,0.0,0.0,0.0,0.0,0.0,0.0,0.0,0.0,0.0,0.5488,0.6016,0.595,0.5998,0.607,0.0,0.0,0.0,0.0,0.0,0.0,0.0,0.0,0.0,0.0,0.0,0.0,0.0,0.0,0.0,0.0,0.0,0.0,0.0,0.0,0.0,0.0,0.0,0.0,0.0,0.0,0.0,0.0,0.0,0.0,0.0,0.0,0.0,0.0,0.0,0.0,0.0,0.0,0.0,0.0,0.0,0.0,0.0,0.0,0.0,0.0,0.0,0.0,0.0,0.0,0.0,0.0,0.0,0.0,0.0,0.0,0.0,0.0,0.0,0.0,0.0,0.0,0.0,0.0,0.0,0.0,0.0,0.0,0.0,0.0,0.0,0.0,0.0,0.0,0.0,0.0,0.0,0.0,0.0,0.0,0.0,0.0,0.0,0.0,0.0,0.0,0.0,0.0,0.0,0.0,0.0,0.0,0.0,0.0,0.0,0.0,0.0,0.0,0.0,0.0,0.0,0.0,0.0,0.0,0.0,0.0,0.0,0.0,0.0,0.0,0.0,0.0,0.6399,0.6399,0.6463,0.0,0.0,0.0,0.0,0.0,0.0,0.0,0.0,0.0,0.0,0.0,0.0,0.0,0.0,0.0,0.0,0.0,0.0,0.0,0.0,0.0,0.0,0.0,0.0,0.0,0.0,0.0,0.0,0.0,0.0,0.0,0.0,0.0,0.0,0.0,0.0,0.0,0.0,0.0,0.0,0.0,0.0,0.0,0.0,0.0,0.0,0.0,0.0,0.0,0.0,0.0,0.0,0.0,0.0,0.0,0.0,0.0,0.0,0.0,0.0,0.0,0.0,0.0,0.0,0.0,0.0,0.0,0.0,0.0,0.0,0.0,0.0,0.0,0.0,0.0,0.0,0.0,0.0,0.0,0.0,0.0,0.0,0.0,0.0,0.0,0.0,0.0,0.0,0.0,0.0,0.0,0.0,0.0,0.0,0.0,0.0,0.0,0.0,0.0,0.0,0.0,0.0,0.0,0.0,0.0,0.0,0.0,0.0,0.0,0.0,0.6451,0.6668,0.6617,0.0,0.6421,0.0,0.0,0.0,0.0,0.0,0.0,0.0,0.0,0.0,0.0,0.0,0.0,0.0,0.0,0.0,0.0,0.0,0.0,0.0,0.0,0.0,0.0,0.0,0.0,0.0,0.0,0.0,0.0,0.0,0.0,0.0,0.0,0.0,0.0,0.0,0.0,0.0,0.0,0.0,0.0,0.0,0.0,0.0,0.0,0.0,0.0,0.0,0.0,0.0,0.0,0.0,0.0,0.0,0.0,0.0,0.0,0.0,0.0,0.0,0.0,0.0,0.0,0.0,0.0,0.0,0.0,0.0,0.0,0.0,0.0,0.0,0.0,0.0,0.0,0.0,0.0,0.0,0.0,0.0,0.0,0.0,0.0,0.0,0.0,0.0,0.0,0.0,0.0,0.0,0.0,0.0,0.0,0.0,0.0,0.0,0.0,0.0,0.0,0.0,0.0,0.0,0.0,0.0,0.0,0.0,0.0,0.0,0.0,0.0,0.0,0.6881,0.7066,0.7031,0.7077,0.0,0.0,0.0,0.0,0.0,0.0,0.0,0.0,0.0,0.0,0.0,0.0,0.0,0.0,0.0,0.0,0.0,0.0,0.0,0.0,0.0,0.0,0.0,0.0,0.0,0.0,0.0,0.0,0.0,0.0,0.0,0.0,0.0,0.0,0.0,0.0,0.0,0.0,0.0,0.0,0.0,0.0,0.0,0.0,0.0,0.0,0.0,0.0,0.0,0.0,0.0,0.0,0.0,0.0,0.0,0.0,0.0,0.0,0.0,0.0,0.0,0.0,0.0,0.0,0.0,0.0,0.0,0.0,0.0,0.0,0.0,0.0,0.0,0.0,0.0,0.0,0.0,0.0,0.0,0.0,0.0,0.0,0.0,0.0,0.0,0.0,0.0,0.0,0.0,0.0,0.0,0.0,0.0,0.0,0.0,0.0,0.0,0.0,0.0,0.0,0.0,0.0,0.0,0.0,0.0,0.0,0.0,0.0,0.0,0.0,0.7171,0.7353,0.7426,0.7547,0.7665,0.7724,0.0,0.0,0.0,0.0,0.0,0.0,0.0,0.0,0.0,0.0,0.0,0.0,0.0,0.0,0.0,0.0,0.0,0.0,0.0,0.0,0.0,0.0,0.0,0.0,0.0,0.0,0.0,0.0,0.0,0.0,0.0,0.0,0.0,0.0,0.0,0.0,0.0,0.0,0.0,0.0,0.0,0.0,0.0,0.0,0.0,0.0,0.0,0.0,0.0,0.0,0.0,0.0,0.0,0.0,0.0,0.0,0.0,0.0,0.0,0.0,0.0,0.0,0.0,0.0,0.0,0.0,0.0,0.0,0.0,0.0,0.0,0.0,0.0,0.0,0.0,0.0,0.0,0.0,0.0,0.0,0.0,0.0,0.0,0.0,0.0,0.0,0.0,0.0,0.0,0.0,0.0,0.0,0.0,0.0,0.0,0.0,0.0,0.0,0.0,0.0,0.0,0.0,0.0,0.0,0.0,0.0,0.0,0.0,0.6776,0.7518,0.7824,0.7768,0.8185,0.8251,0.0,0.0,0.0,0.0,0.0,0.0,0.0,0.0,0.0,0.0,0.0,0.0,0.0,0.0,0.0,0.0,0.0,0.0,0.0,0.0,0.0,0.0,0.0,0.0,0.0,0.0,0.0,0.0,0.0,0.0,0.0,0.0,0.0,0.0,0.0,0.0,0.0,0.0,0.0,0.0,0.0,0.0,0.0,0.0,0.0,0.0,0.0,0.0,0.0,0.0,0.0,0.0,0.0,0.0,0.0,0.0,0.0,0.0,0.0,0.0,0.0,0.0,0.0,0.0,0.0,0.0,0.0,0.0,0.0,0.0,0.0,0.0,0.0,0.0,0.0,0.0,0.0,0.0,0.0,0.0,0.0,0.0,0.0,0.0,0.0,0.0,0.0,0.0,0.0,0.0,0.0,0.0,0.0,0.0,0.0,0.0,0.0,0.0,0.0,0.0,0.0,0.0,0.0,0.0,0.0,0.0,0.0,0.0,0.0,0.947,0.9798,0.9929,0.9883,0.9778,0.9681,0.0,0.0,0.0,0.0,0.0,0.0,0.0,0.0,0.0,0.0,0.0,0.0,0.0,0.0,0.0,0.0,0.0,0.0,0.0,0.0,0.0,0.0,0.0,0.0,0.0,0.0,0.0,0.0,0.0,0.0,0.0,0.0,0.0,0.0,0.0,0.0,0.0,0.0,0.0,0.0,0.0,0.0,0.0,0.0,0.0,0.0,0.0,0.0,0.0,0.0,0.0,0.0,0.0,0.0,0.0,0.0,0.0,0.0,0.0,0.0,0.0,0.0,0.0,0.0,0.0,0.0,0.0,0.0,0.0,0.0,0.0,0.0,0.0,0.0,0.0,0.0,0.0,0.0,0.0,0.0,0.0,0.0,0.0,0.0,0.0,0.0,0.0,0.0,0.0,0.0,0.0,0.0,0.0,0.0,0.0,0.0,0.0,0.0,0.0,0.0,0.0,0.0,0.0,0.0,0.0,0.0,0.0,0.0,0.0,1.1525,0.0,1.1211,1.1597,1.1026,1.0732,0.0,0.0,0.0,0.0,0.0,0.0,0.0,0.0,0.0,0.0,0.0,0.0,0.0,0.0,0.0,0.0,0.0,0.0,0.0,0.0,0.0,0.0,0.0,0.0,0.0,0.0,0.0,0.0,0.0,0.0,0.0,0.0,0.0,0.0,0.0,0.0,0.0,0.0,0.0,0.0,0.0,0.0,0.0,0.0,0.0,0.0,0.0,0.0,0.0,0.0,0.0,0.0,0.0,0.0,0.0,0.0,0.0,0.0,0.0,0.0,0.0,0.0,0.0,0.0,0.0,0.0,0.0,0.0,0.0,0.0,0.0,0.0,0.0,0.0,0.0,0.0,0.0,0.0,0.0,0.0,0.0,0.0,0.0,0.0,0.0,0.0,0.0,0.0,0.0,0.0,0.0,0.0,0.0,0.0,0.0,0.0,0.0,0.0,0.0,0.0,0.0,0.0,0.0,0.0,0.0,0.0,0.0,0.0,1.1558,1.2641,1.1621,1.1599,1.2639,1.1751,1.1292,0.0,0.0,0.0,0.0,0.0,0.0,0.0,0.0,0.0,0.0,0.0,0.0,0.0,0.0,0.0,0.0,0.0,0.0,0.0,0.0,0.0,0.0,0.0,0.0,0.0,0.0,0.0,0.0,0.0,0.0,0.0,0.0,0.0,0.0,0.0,0.0,0.0,0.0,0.0,0.0,0.0,0.0,0.0,0.0,0.0,0.0,0.0,0.0,0.0,0.0,0.0,0.0,0.0,0.0,0.0,0.0,0.0,0.0,0.0,0.0,0.0,0.0,0.0,0.0,0.0,0.0,0.0,0.0,0.0,0.0,0.0,0.0,0.0,0.0,0.0,0.0,0.0,0.0,0.0,0.0,0.0,0.0,0.0,0.0,0.0,0.0,0.0,0.0,0.0,0.0,0.0,0.0,0.0,0.0,0.0,0.0,0.0,0.0,0.0,0.0,0.0,0.0,0.0,0.0,0.0,0.0,0.0,0.0,0.0,1.5134,1.3963,1.3214,1.2951,1.1794,1.1492,0.0,0.0,0.0,0.0,0.0,0.0,0.0,0.0,0.0,0.0,0.0,0.0,0.0,0.0,0.0,0.0,0.0,0.0,0.0,0.0,0.0,0.0,0.0,0.0,0.0,0.0,0.0,0.0,0.0,0.0,0.0,0.0,0.0,0.0,0.0,0.0,0.0,0.0,0.0,0.0,0.0,0.0,0.0,0.0,0.0,0.0,0.0,0.0,0.0,0.0,0.0,0.0,0.0,0.0,0.0,0.0,0.0,0.0,0.0,0.0,0.0,0.0,0.0,0.0,0.0,0.0,0.0,0.0,0.0,0.0,0.0,0.0,0.0,0.0,0.0,0.0,0.0,0.0,0.0,0.0,0.0,0.0,0.0,0.0,0.0,0.0,0.0,0.0,0.0,0.0,0.0,0.0,0.0,0.0,0.0,0.0,0.0,0.0,0.0,0.0,0.0,0.0,0.0,0.0,0.0,0.0,0.0,0.0,0.0,1.5673,1.4281,1.3442,1.3213,1.1673,1.1133,1.1719,0.0,0.0,0.0,0.0,0.0,0.0,0.0,0.0,0.0,0.0,0.0,0.0,0.0,0.0,0.0,0.0,0.0,0.0,0.0,0.0,0.0,0.0,0.0,0.0,0.0,0.0,0.0,0.0,0.0,0.0,0.0,0.0,0.0,0.0,0.0,0.0,0.0,0.0,0.0,0.0,0.0,0.0,0.0,0.0,0.0,0.0,0.0,0.0,0.0,0.0,0.0,0.0,0.0,0.0,0.0,0.0,0.0,0.0,0.0,0.0,0.0,0.0,0.0,0.0,0.0,0.0,0.0,0.0,0.0,0.0,0.0,0.0,0.0,0.0,0.0,0.0,0.0,0.0,0.0,0.0,0.0,0.0,0.0,0.0,0.0,0.0,0.0,0.0,0.0,0.0,0.0,0.0,0.0,0.0,0.0,0.0,0.0,0.0,0.0,0.0,0.0,0.0,0.0,0.0,0.0,0.0,0.0,0.0,1.455,1.2829,1.23,1.3076,1.1296,1.0307,0.0,0.0,0.0,0.0,0.0,0.0,0.0,0.0,0.0,0.0,0.0,0.0,0.0,0.0,0.0,0.0,0.0,0.0,0.0,0.0,0.0,0.0,0.0,0.0,0.0,0.0,0.0,0.0,0.0,0.0,0.0,0.0,0.0,0.0,0.0,0.0,0.0,0.0,0.0,0.0,0.0,0.0,0.0,0.0,0.0,0.0,0.0,0.0,0.0,0.0,0.0,0.0,0.0,0.0,0.0,0.0,0.0,0.0,0.0,0.0,0.0,0.0,0.0,0.0,0.0,0.0,0.0,0.0,0.0,0.0,0.0,0.0,0.0,0.0,0.0,0.0,0.0,0.0,0.0,0.0,0.0,0.0,0.0,0.0,0.0,0.0,0.0,0.0,0.0,0.0,0.0,0.0,0.0,0.0,0.0,0.0,0.0,0.0,0.0,0.0,0.0,0.0,0.0,0.0,0.0,0.0,0.0,0.0,0.0,1.2676,1.0913,1.0208,1.0545,0.9606,0.9215,0.0,0.0,0.0,0.0,0.0,0.0,0.0,0.0,0.0,0.0,0.0,0.0,0.0,0.0,0.0,0.0,0.0,0.0,0.0,0.0,0.0,0.0,0.0,0.0,0.0,0.0,0.0,0.0,0.0,0.0,0.0,0.0,0.0,0.0,0.0,0.0,0.0,0.0,0.0,0.0,0.0,0.0,0.0,0.0,0.0,0.0,0.0,0.0,0.0,0.0,0.0,0.0,0.0,0.0,0.0,0.0,0.0,0.0,0.0,0.0,0.0,0.0,0.0,0.0,0.0,0.0,0.0,0.0,0.0,0.0,0.0,0.0,0.0,0.0,0.0,0.0,0.0,0.0,0.0,0.0,0.0,0.0,0.0,0.0,0.0,0.0,0.0,0.0,0.0,0.0,0.0,0.0,0.0,0.0,0.0,0.0,0.0,0.0,0.0,0.0,0.0,0.0,0.0,0.0,0.0,0.0,0.0,0.0,1.3536,1.1442,0.9461,0.8221,0.7852,0.7885,0.7934,0.0,0.0,0.0,0.0,0.0,0.0,0.0,0.0,0.0,0.0,0.0,0.0,0.0,0.0,0.0,0.0,0.0,0.0,0.0,0.0,0.0,0.0,0.0,0.0,0.0,0.0,0.0,0.0,0.0,0.0,0.0,0.0,0.0,0.0,0.0,0.0,0.0,0.0,0.0,0.0,0.0,0.0,0.0,0.0,0.0,0.0,0.0,0.0,0.0,0.0,0.0,0.0,0.0,0.0,0.0,0.0,0.0,0.0,0.0,0.0,0.0,0.0,0.0,0.0,0.0,0.0,0.0,0.0,0.0,0.0,0.0,0.0,0.0,0.0,0.0,0.0,0.0,0.0,0.0,0.0,0.0,0.0,0.0,0.0,0.0,0.0,0.0,0.0,0.0,0.0,0.0,0.0,0.0,0.0,0.0,0.0,0.0,0.0,0.0,0.0,0.0,0.0,0.0,0.0,0.0,0.0,0.0,0.0,1.1947,1.0396,0.8187,0.6495,0.5407,0.6421,0.6702,0.0,0.0,0.0,0.0,0.0,0.0,0.0,0.0,0.0,0.0,0.0,0.0,0.0,0.0,0.0,0.0,0.0,0.0,0.0,0.0,0.0,0.0,0.0,0.0,0.0,0.0,0.0,0.0,0.0,0.0,0.0,0.0,0.0,0.0,0.0,0.0,0.0,0.0,0.0,0.0,0.0,0.0,0.0,0.0,0.0,0.0,0.0,0.0,0.0,0.0,0.0,0.0,0.0,0.0,0.0,0.0,0.0,0.0,0.0,0.0,0.0,0.0,0.0,0.0,0.0,0.0,0.0,0.0,0.0,0.0,0.0,0.0,0.0,0.0,0.0,0.0,0.0,0.0,0.0,0.0,0.0,0.0,0.0,0.0,0.0,0.0,0.0,0.0,0.0,0.0,0.0,0.0,0.0,0.0,0.0,0.0,0.0,0.0,0.0,0.0,0.0,0.0,0.0,0.0,0.0,0.0,0.0,0.0,1.0237,0.8271,0.688,0.575,0.4847,0.6471,0.6662,0.0,0.0,0.0,0.0,0.0,0.0,0.0,0.0,0.0,0.0,0.0,0.0,0.0,0.0,0.0,0.0,0.0,0.0,0.0,0.0,0.0,0.0,0.0,0.0,0.0,0.0,0.0,0.0,0.0,0.0,0.0,0.0,0.0,0.0,0.0,0.0,0.0,0.0,0.0,0.0,0.0,0.0,0.0,0.0,0.0,0.0,0.0,0.0,-1.7242,0.0,0.0,0.0,0.0,0.0,0.0,0.0,0.0,0.0,0.0,0.0,0.0,0.0,0.0,0.0,0.0,0.0,0.0,0.0,0.0,0.0,0.0,0.0,0.0,0.0,0.0,0.0,0.0,0.0,0.0,0.0,0.0,0.0,0.0,0.0,0.0,0.0,0.0,0.0,0.0,0.0,0.0,0.0,0.0,0.0,0.0,0.0,0.0,0.0,0.0,0.0,0.0,0.0,0.0,0.0,0.0,0.0,0.0,0.0,0.916,0.7436,0.6071,0.4824,0.3886,0.495,0.5322,0.0,0.0,0.0,0.0,0.0,0.0,0.0,0.0,0.0,0.0,0.0,0.0,0.0,0.0,0.0,0.0,0.0,0.0,0.0,0.0,0.0,0.0,0.0,0.0,0.0,0.0,0.0,0.0,0.0,0.0,0.0,0.0,0.0,0.0,0.0,0.0,0.0,0.0,0.0,0.0,0.0,0.0,0.0,0.0,0.0,0.0,0.0,0.0,0.0,0.0,0.0,0.0,0.0,0.0,0.0,0.0,0.0,0.0,0.0,0.0,0.0,0.0,0.0,0.0,0.0,0.0,0.0,0.0,0.0,0.0,0.0,0.0,0.0,0.0,0.0,0.0,0.0,0.0,0.0,0.0,0.0,0.0,0.0,0.0,0.0,0.0,0.0,0.0,0.0,0.0,0.0,0.0,0.0,0.0,0.0,0.0,0.0,0.0,0.0,0.0,0.0,0.0,0.0,0.0,0.0,0.0,0.0,0.9221,0.8138,0.6588,0.5142,0.3808,0.2677,0.2938,0.3475,0.4147,0.0,0.0,0.0,0.0,0.0,0.0,0.0,0.0,0.0,0.0,0.0,0.0,0.0,0.0,0.0,0.0,0.0,0.0,0.0,0.0,0.0,0.0,0.0,0.0,0.0,0.0,0.0,0.0,0.0,0.0,0.0,0.0,0.0,0.0,0.0,0.0,0.0,0.0,-1.1908,-1.1193,0.0,0.0,0.0,0.0,0.0,0.0,0.0,0.0,-1.5462,0.0,0.0,0.0,0.0,0.0,0.0,0.0,0.0,0.0,0.0,0.0,0.0,0.0,0.0,0.0,0.0,0.0,0.0,0.0,0.0,0.0,0.0,0.0,0.0,0.0,0.0,0.0,0.0,0.0,0.0,0.0,0.0,0.0,0.0,0.0,0.0,0.0,0.0,0.0,0.0,0.0,0.0,0.0,0.0,0.0,0.0,0.0,0.0,0.0,0.0,0.0,0.0,0.0,0.0,0.0,0.0,0.6547,0.7207,0.6341,0.3845,0.318,0.2468,0.1738,0.1701,0.1942,0.2491,0.0,0.0,0.0,0.0,0.0,0.0,0.0,0.0,0.0,0.0,0.0,0.0,0.0,0.0,0.0,0.0,0.0,0.0,0.0,0.0,0.0,0.0,0.0,0.0,0.0,0.0,0.0,0.0,0.0,0.0,0.0,0.0,0.0,0.0,0.0,0.0,0.0,0.0,0.0,-0.8951,-1.0125,0.0,0.0,0.0,0.0,0.0,0.0,0.0,0.0,-1.5812,0.0,0.0,0.0,0.0,0.0,0.0,0.0,0.0,0.0,0.0,0.0,0.0,0.0,0.0,0.0,0.0,0.0,0.0,0.0,0.0,0.0,0.0,0.0,0.0,0.0,0.0,0.0,0.0,0.0,0.0,0.0,0.0,0.0,0.0,0.0,0.0,0.0,0.0,0.0,0.0,0.0,0.0,0.0,0.0,0.0,0.0,0.0,0.0,0.0,0.0,0.0,0.0,0.0,0.0,0.0,0.5578,0.5314,0.4386,0.2586,0.1878,0.1278,0.0742,0.0572,0.061,0.0,0.0,0.0,0.0,0.0,0.0,0.0,0.0,0.0,0.0,0.0,0.0,0.0,0.0,0.0,0.0,0.0,0.0,0.0,0.0,0.0,0.0,0.0,0.0,0.0,0.0,0.0,0.0,0.0,0.0,0.0,0.0,0.0,0.0,0.0,0.0,0.0,0.0,0.0,0.0,-0.8554,-1.0157,-1.0866,0.0,0.0,0.0,0.0,0.0,0.0,-1.6446,-1.6522,0.0,0.0,0.0,0.0,0.0,0.0,0.0,0.0,0.0,0.0,0.0,0.0,0.0,0.0,0.0,0.0,0.0,0.0,0.0,0.0,0.0,0.0,0.0,0.0,0.0,0.0,0.0,0.0,0.0,0.0,0.0,0.0,0.0,0.0,0.0,0.0,0.0,0.0,0.0,0.0,0.0,0.0,0.0,0.0,0.0,0.0,0.0,0.0,0.0,0.0,0.0,0.0,0.0,0.0,0.0,0.4574,0.3526,0.2488,0.1289,0.0465,-0.0231,-0.0599,-0.0573,-0.0612,0.0,0.0,0.0,0.0,0.0,0.0,0.0,0.0,0.0,0.0,0.0,0.0,0.0,0.0,0.0,0.0,0.0,0.0,0.0,0.0,0.0,0.0,0.0,0.0,0.0,0.0,0.0,0.0,0.0,0.0,0.0,0.0,0.0,0.0,0.0,0.0,0.0,0.0,0.0,0.0,0.0,-1.0453,-1.0936,-1.2168,0.0,0.0,0.0,0.0,-1.6447,-1.7175,0.0,0.0,0.0,0.0,0.0,0.0,0.0,0.0,0.0,0.0,0.0,0.0,0.0,0.0,0.0,0.0,0.0,0.0,0.0,0.0,0.0,0.0,0.0,0.0,0.0,0.0,0.0,0.0,0.0,0.0,0.0,0.0,0.0,0.0,0.0,0.0,0.0,0.0,0.0,0.0,0.0,0.0,0.0,0.0,0.0,0.0,0.0,0.0,0.0,0.0,0.0,0.0,0.0,0.0,0.0,0.0,0.2321,0.1936,0.0788,-0.1085,-0.1794,-0.2367,-0.2696,-0.2194,-0.1947,0.0,0.0,0.0,0.0,0.0,0.0,0.0,0.0,0.0,0.0,0.0,0.0,0.0,0.0,0.0,0.0,0.0,0.0,0.0,0.0,0.0,0.0,0.0,0.0,0.0,0.0,0.0,0.0,0.0,0.0,0.0,0.0,0.0,0.0,0.0,0.0,0.0,0.0,0.0,0.0,0.0,-1.0883,-1.1733,-1.3378,-1.5065,0.0,0.0,-1.6672,-1.8213,-1.8738,0.0,0.0,0.0,0.0,0.0,0.0,0.0,0.0,0.0,0.0,0.0,0.0,0.0,0.0,0.0,0.0,0.0,0.0,0.0,0.0,0.0,0.0,0.0,0.0,0.0,0.0,0.0,0.0,0.0,0.0,0.0,0.0,0.0,0.0,0.0,0.0,0.0,0.0,0.0,0.0,0.0,0.0,0.0,0.0,0.0,0.0,0.0,0.0,0.0,0.0,0.0,0.0,0.0,0.0,0.0,0.1183,0.0445,-0.0752,-0.1901,-0.2957,-0.3233,-0.3555,-0.3849,-0.3019,-0.2661,0.0,0.0,0.0,0.0,0.0,0.0,0.0,0.0,0.0,0.0,0.0,0.0,0.0,0.0,0.0,0.0,0.0,0.0,0.0,0.0,0.0,0.0,0.0,0.0,0.0,0.0,0.0,0.0,0.0,0.0,0.0,0.0,0.0,0.0,0.0,0.0,0.0,0.0,0.0,0.0,0.0,0.0,-1.3178,-1.4673,0.0,0.0,0.0,-1.7813,-1.8875,0.0,0.0,0.0,0.0,0.0,0.0,0.0,0.0,0.0,0.0,0.0,0.0,0.0,0.0,0.0,0.0,0.0,0.0,0.0,0.0,0.0,0.0,0.0,0.0,0.0,0.0,0.0,0.0,0.0,0.0,0.0,0.0,0.0,0.0,0.0,0.0,0.0,0.0,0.0,0.0,0.0,0.0,0.0,0.0,0.0,0.0,0.0,0.0,0.0,0.0,0.0,0.0,0.0,0.0,0.0,0.0,0.0,-0.1338,-0.3193,-0.4362,-0.4701,-0.4779,-0.5018,-0.5205,-0.4309,0.0,0.0,0.0,0.0,0.0,0.0,0.0,0.0,0.0,0.0,0.0,0.0,0.0,0.0,0.0,0.0,0.0,0.0,0.0,0.0,0.0,0.0,0.0,0.0,0.0,0.0,0.0,-1.2966,0.0,0.0,0.0,0.0,0.0,0.0,0.0,0.0,0.0,0.0,0.0,0.0,0.0,0.0,-1.381,-1.5042,-1.6258,-1.7277,0.0,0.0,-1.9263,-1.985,-2.0509,-2.0906,0.0,0.0,0.0,0.0,0.0,0.0,0.0,0.0,0.0,0.0,0.0,0.0,0.0,0.0,0.0,0.0,0.0,0.0,0.0,0.0,0.0,0.0,0.0,0.0,0.0,0.0,0.0,0.0,0.0,0.0,0.0,0.0,0.0,0.0,0.0,0.0,0.0,0.0,0.0,0.0,0.0,0.0,0.0,0.0,0.0,0.0,0.0,0.0,0.0,0.0,0.0,0.0,0.0,0.0,0.0,-0.313,-0.5064,-0.615,-0.6314,-0.6685,-0.7123,-0.7535,-0.6802,-0.6053,0.0,0.0,0.0,0.0,0.0,0.0,0.0,0.0,0.0,0.0,0.0,0.0,0.0,0.0,0.0,0.0,0.0,0.0,0.0,0.0,0.0,0.0,0.0,0.0,0.0,0.0,0.0,0.0,0.0,0.0,0.0,0.0,0.0,0.0,0.0,0.0,0.0,0.0,0.0,0.0,0.0,-1.5903,-1.7443,-1.8455,-1.9443,0.0,0.0,-2.122,-2.1984,-2.2353,-2.2407,-2.2088,0.0,0.0,0.0,0.0,0.0,0.0,0.0,0.0,0.0,0.0,0.0,0.0,0.0,0.0,0.0,0.0,0.0,0.0,0.0,0.0,0.0,0.0,0.0,0.0,0.0,0.0,0.0,0.0,0.0,0.0,0.0,0.0,0.0,0.0,0.0,0.0,0.0,0.0,0.0,0.0,0.0,0.0,0.0,0.0,0.0,0.0,0.0,0.0,0.0,0.0,0.0,0.0,0.0,-0.4738,-0.4971,-0.6769,-0.7789,-0.8023,-0.8083,-0.8203,-0.8568,-0.772,-0.6973,0.0,0.0,0.0,0.0,0.0,0.0,0.0,0.0,0.0,0.0,0.0,0.0,0.0,0.0,0.0,0.0,0.0,0.0,0.0,0.0,0.0,0.0,0.0,0.0,0.0,0.0,0.0,0.0,-1.8206,-1.9007,-1.8977,0.0,0.0,0.0,0.0,0.0,0.0,0.0,0.0,0.0,0.0,-1.751,-1.8542,-2.0108,0.0,0.0,-2.2265,-2.281,-2.3178,-2.3383,-2.3432,-2.337,-2.3081,0.0,0.0,0.0,0.0,0.0,0.0,0.0,0.0,0.0,0.0,0.0,0.0,0.0,0.0,0.0,0.0,0.0,0.0,0.0,0.0,0.0,0.0,0.0,0.0,0.0,0.0,0.0,0.0,0.0,0.0,0.0,0.0,0.0,0.0,0.0,0.0,0.0,0.0,0.0,0.0,0.0,0.0,0.0,0.0,0.0,0.0,0.0,0.0,0.0,0.0,0.0,0.0,-0.6374,-0.6686,-0.8361,-0.9312,-0.942,-0.928,-0.9421,-0.969,-0.9072,-0.8446,0.0,0.0,0.0,0.0,0.0,0.0,0.0,0.0,0.0,0.0,0.0,0.0,0.0,0.0,0.0,0.0,0.0,0.0,0.0,0.0,0.0,0.0,0.0,0.0,0.0,0.0,0.0,0.0,-1.9142,-1.9877,-1.9867,0.0,0.0,0.0,0.0,0.0,0.0,0.0,0.0,0.0,0.0,-1.9326,-1.9852,-2.1451,-2.2654,-2.271,-2.3406,-2.3958,-2.4054,-2.4178,-2.4314,-2.4598,0.0,0.0,0.0,0.0,0.0,0.0,0.0,0.0,0.0,0.0,0.0,0.0,0.0,0.0,0.0,0.0,0.0,0.0,0.0,0.0,0.0,0.0,0.0,0.0,0.0,0.0,0.0,0.0,0.0,0.0,-1.5513,0.0,0.0,0.0,0.0,0.0,0.0,0.0,0.0,0.0,0.0,0.0,0.0,0.0,0.0,0.0,0.0,0.0,0.0,0.0,0.0,0.0,0.0,-0.7976,-0.8016,-0.9783,-1.0664,-1.0527,-1.0521,-1.0737,-1.1228,-1.1216,-1.0922,-1.0268,0.0,0.0,0.0,0.0,0.0,0.0,0.0,0.0,0.0,0.0,0.0,0.0,0.0,0.0,0.0,0.0,0.0,0.0,0.0,0.0,0.0,0.0,0.0,0.0,0.0,0.0,-1.8041,-1.9788,-2.113,0.0,0.0,0.0,0.0,0.0,0.0,0.0,0.0,0.0,0.0,-2.0438,-2.1374,-2.1714,-2.2605,-2.3446,-2.3875,-2.4203,-2.4424,-2.4536,-2.4815,-2.5132,0.0,0.0,0.0,0.0,0.0,0.0,0.0,0.0,0.0,0.0,0.0,0.0,0.0,0.0,0.0,0.0,0.0,0.0,0.0,0.0,0.0,0.0,0.0,0.0,0.0,0.0,0.0,-1.5233,-1.6277,0.0,0.0,0.0,0.0,0.0,0.0,0.0,0.0,0.0,0.0,0.0,-1.6245,-1.5711,0.0,0.0,0.0,0.0,0.0,0.0,0.0,0.0,0.0,0.0,0.0,0.0,-0.9471,-0.9316,-1.0863,-1.179,-1.2052,-1.2005,-1.2224,-1.2862,-1.2692,-1.2354,-1.1831,0.0,0.0,0.0,0.0,0.0,0.0,0.0,0.0,0.0,0.0,0.0,0.0,0.0,0.0,0.0,0.0,0.0,0.0,0.0,0.0,0.0,0.0,0.0,0.0,0.0,-1.9366,0.0,0.0,0.0,0.0,0.0,0.0,0.0,0.0,0.0,0.0,0.0,-2.0777,-2.0985,-2.1451,-2.208,-2.2676,-2.3764,-2.4758,0.0,0.0,0.0,0.0,0.0,0.0,0.0,0.0,0.0,0.0,0.0,0.0,0.0,0.0,-2.9675,-2.9164,-2.955,-3.0287,-3.1161,0.0,0.0,0.0,0.0,0.0,0.0,0.0,0.0,0.0,0.0,0.0,0.0,0.0,0.0,-1.6496,0.0,-1.7733,0.0,0.0,0.0,0.0,0.0,0.0,0.0,0.0,-1.6914,-1.7546,-1.8452,-1.7988,-1.7505,0.0,-1.6092,-1.3647,0.0,0.0,0.0,0.0,0.0,0.0,0.0,0.0,-1.0733,-1.0617,-1.2076,-1.3068,-1.3281,-1.3244,-1.347,-1.4099,-1.419,-1.4058,-1.3794,-1.2806,-1.2296,0.0,0.0,0.0,0.0,0.0,0.0,0.0,0.0,0.0,0.0,0.0,0.0,0.0,0.0,0.0,0.0,0.0,0.0,0.0,0.0,0.0,0.0,0.0,-2.0339,0.0,0.0,0.0,0.0,0.0,0.0,0.0,0.0,0.0,-2.2001,-2.2274,-2.2545,-2.2694,-2.306,-2.3403,-2.353,0.0,0.0,0.0,0.0,0.0,0.0,0.0,-2.7286,-2.7963,-2.825,-2.8872,-3.024,-3.1307,-3.1976,-3.2065,0.0,0.0,-3.1283,-3.2032,-3.2962,-3.3386,-3.3858,-3.4139,-3.3873,-3.3988,-3.4042,0.0,0.0,0.0,0.0,0.0,0.0,0.0,0.0,-1.6599,-1.7476,0.0,-1.8261,0.0,0.0,0.0,0.0,0.0,-1.7094,0.0,0.0,-1.9414,-2.0377,-2.0647,-1.9812,-1.9134,-1.8601,-1.7329,-1.5835,-1.4155,-1.2572,0.0,0.0,0.0,0.0,0.0,0.0,-1.1821,-1.1884,-1.3541,-1.4353,-1.4186,-1.4266,-1.4553,-1.4958,-1.5549,-1.5918,-1.6093,-1.5158,-1.4684,-1.4844,-1.3467,0.0,0.0,0.0,0.0,0.0,0.0,0.0,0.0,0.0,0.0,0.0,0.0,0.0,0.0,0.0,0.0,0.0,0.0,0.0,0.0,-1.953,0.0,0.0,0.0,0.0,0.0,0.0,0.0,0.0,0.0,0.0,-2.4253,-2.3988,-2.3985,-2.4377,0.0,0.0,0.0,0.0,-2.6748,-2.5719,-2.6477,-2.7126,-2.67,-2.7811,-2.8935,-2.9631,0.0,0.0,-3.301,-3.3096,-3.3125,-3.3235,-3.3646,-3.3847,-3.3079,-3.3459,-3.4056,-3.4488,-3.5248,-3.5556,-3.5049,-3.5241,-3.545,-1.9279,0.0,0.0,0.0,0.0,-1.508,-1.6079,-1.7567,-1.8191,-1.8758,-1.9162,-1.8965,0.0,0.0,0.0,0.0,0.0,0.0,-1.8484,-1.9663,-1.9934,-2.0819,-2.2104,-2.1849,-2.1368,-2.0699,-1.9991,-1.8771,-1.7188,-1.6328,-1.4468,-1.1584,0.0,0.0,0.0,0.0,-1.3283,-1.3672,-1.4547,-1.5187,-1.5488,-1.5551,-1.5833,-1.6524,-1.6849,-1.7067,-1.7262,-1.6363,-1.6011,-1.6244,-1.4698,0.0,0.0,0.0,0.0,0.0,0.0,0.0,0.0,0.0,0.0,0.0,0.0,0.0,0.0,0.0,0.0,0.0,0.0,0.0,-2.0797,-2.1659,-2.2355,0.0,0.0,0.0,0.0,0.0,0.0,0.0,0.0,0.0,-2.7621,-2.686,-2.6104,0.0,0.0,-2.6005,-2.6106,-2.7065,-2.8119,-2.8813,-2.9157,0.0,-3.0201,-3.0361,-3.0671,-3.1254,-3.2391,-3.3348,-3.351,-3.413,-3.4519,-3.4425,-3.4653,-3.4783,-3.476,-3.5074,-3.5584,-3.6166,-3.6635,-3.6947,-3.6896,-3.7038,-3.7138,-2.0504,-1.8841,-1.767,-1.6723,-1.5963,-1.5905,-1.6542,-1.7663,-1.8322,-1.8788,-1.9041,-1.8964,-1.8297,-1.7342,-1.6874,0.0,0.0,0.0,-1.916,-2.0761,-2.0676,-2.1346,-2.2665,-2.2751,-2.2395,-2.1748,-2.1231,-2.0321,-1.901,-1.8395,-1.7009,-1.4897,0.0,0.0,-1.353,-1.4336,-1.479,-1.5034,-1.5695,-1.6231,-1.6594,-1.6603,-1.689,-1.752,-1.7735,-1.7794,-1.7784,-1.7408,-1.7274,-1.7455,-1.5895,-1.4934,0.0,0.0,0.0,0.0,0.0,0.0,0.0,0.0,0.0,0.0,0.0,-1.5986,-1.6158,0.0,0.0,0.0,-1.9655,-2.0769,-2.2622,-2.2844,0.0,0.0,0.0,0.0,0.0,0.0,0.0,-2.6814,-2.6966,-2.7631,-2.9239,-2.9222,-2.8733,-2.8005,-2.7924,-2.7875,-2.7681,0.0,-2.9634,-3.0206,-3.065,-3.106,-3.1569,-3.1797,-3.2132,-3.272,-3.3543,-3.4083,-3.3885,-3.4501,-3.4868,-3.4735,-3.4949,-3.5264,-3.5335,-3.5748,-3.6207,-3.6554,-3.666,-3.6747,-3.7222,-3.7492,-3.7743,-2.166,-2.053,-1.8215,-1.7145,-1.7009,-1.6526,-1.6358,-1.6476,-1.7518,-1.7997,-1.8035,-1.8156,-1.7805,-1.7135,-1.6759,0.0,-1.8838,-1.8988,-1.9819,-2.1296,-2.1502,-2.2013,-2.2678,-2.2848,-2.2503,-2.1879,-2.1451,-2.076,-1.9854,-1.9134,-1.8736,-1.8516,-1.685,-1.575,-1.5323,-1.5994,-1.6271,-1.6008,-1.6892,-1.7326,-1.7482,-1.7432,-1.7666,-1.8018,-1.8202,-1.8202,-1.8076,-1.8212,-1.8347,-1.825,-1.6992,-1.6186,-1.5927,0.0,0.0,0.0,0.0,0.0,0.0,0.0,0.0,0.0,0.0,0.0,0.0,0.0,0.0,0.0,-2.18,0.0,-2.4039,-2.353,0.0,0.0,0.0,-2.5765,-2.7384,-2.8061,-2.8534,-2.9067,0.0,0.0,-2.9761,-3.094,-3.1446,-3.0496,-3.0685,-3.0472,-2.9163,-3.0447,-3.1222,-3.0566,-3.1388,-3.2075,-3.2023,-3.2468,-3.3111,-3.3776,-3.4196,-3.4235,-3.4099,-3.437,-3.4467,-3.4264,-3.4735,-3.5198,-3.5415,-3.5642,-3.5913,-3.6133,-3.5891,-3.5845,-3.6569,-3.7074,-3.7417,-2.1148,-2.0202,-1.9108,-1.8138,-1.7179,-1.6854,-1.6507,-1.6285,-1.7014,-1.7025,-1.6612,-1.6596,-1.6962,-1.7542,-1.7671,-1.8672,-2.0191,-1.9977,-2.0512,-2.1726,-2.1765,-2.2013,-2.2482,-2.2726,-2.2395,-2.1547,-2.1392,-2.0831,-1.9924,-1.9701,-1.9418,-1.9116,-1.8259,-1.742,-1.6516,-1.6468,-1.6607,-1.6931,-1.6825,-1.7129,-1.7852,-1.7998,-1.8202,-1.8347,-1.8337,-1.8337,-1.8357,-1.8347,-1.8347,-1.8259,-1.7424,-1.6702,-1.6263,-1.4762,0.0,0.0,0.0,0.0,0.0,0.0,0.0,0.0,0.0,-1.6877,-1.7076,0.0,-1.9607,0.0,-2.2816,-2.4625,-2.5883,-2.606,0.0,0.0,-2.7518,-2.7673,-2.8963,-2.9509,-2.9836,-2.9849,-3.054,-3.1188,-3.1677,-3.1523,-3.1686,-3.2414,-3.2106,-3.1698,-3.1333,-3.1896,-3.2467,-3.25,-3.2848,-3.3374,-3.3536,-3.355,-3.3554,-3.3687,-3.4005,-3.4142,-3.3951,-3.4056,-3.4216,-3.4452,-3.4721,-3.5052,-3.5394,-3.507,-3.5,-3.5616,-3.6136,-3.6461,-3.6677,-3.7013,-3.7329,-2.0704,-2.0061,-1.9428,-1.8523,-1.7415,-1.7085,-1.6461,-1.568,-1.6408,-1.6338,-1.5678,-1.5774,-1.6612,-1.785,-1.8328,-1.9324,-2.066,-2.061,-2.0967,-2.1663,-2.1714,-2.1839,-2.2173,-2.2347,-2.2201,-2.1631,-2.1485,-2.1148,-2.0586,-2.0526,-2.0346,-2.0158,-1.9765,-1.9008,-1.7933,-1.7161,-1.6941,-1.7264,-1.751,-1.7831,-1.8337,-1.8482,-1.8472,-1.8279,-1.8269,-1.8113,-1.7658,-1.7715,-1.7617,-1.728,-1.6615,-1.6139,-1.5864,-1.4515,-1.3622,0.0,0.0,0.0,0.0,0.0,0.0,0.0,0.0,0.0,0.0,0.0,-2.0679,-2.1984,-2.3683,-2.5273,-2.6526,-2.6757,-2.7385,-2.8975,-2.8994,-2.9327,-3.0511,-3.1036,-3.1384,-3.1253,-3.1581,-3.1963,-3.2314,-3.2341,-3.2556,-3.3192,-3.3145,-3.2901,-3.2657,-3.3132,-3.3635,-3.3354,-3.3493,-3.366,-3.387,-3.3701,-3.3492,-3.3507,-3.3605,-3.373,-3.3868,-3.4016,-3.4312,-3.4616,-3.4986,-3.5249,-3.5474,-3.5269,-3.5168,-3.5552,-3.6148,-3.6461,-3.6461,-3.6723,-3.6952,-2.0269,-1.9904,-1.9256,-1.8456,-1.7443,-1.7323,-1.6385,-1.5187,-1.576,-1.5701,-1.5039,-1.5404,-1.6507,-1.8068,-1.8815,-1.9839,-2.0951,-2.1163,-2.13,-2.1526,-2.1514,-2.1651,-2.1925,-2.1963,-2.1901,-2.18,-2.1526,-2.1388,-2.1388,-2.1152,-2.1101,-2.1019,-2.0703,-2.0117,-1.9102,-1.7791,-1.7201,-1.7336,-1.8349,-1.8808,-1.8808,-1.8741,-1.8472,-1.8008,-1.8094,-1.761,-1.6655,-1.6835,-1.6636,-1.5946,-1.5394,-1.5166,-1.5284,-1.4171,-1.3528,0.0,-1.3429,0.0,0.0,0.0,0.0,0.0,0.0,0.0,0.0,-2.088,-2.1893,-2.3644,-2.4438,-2.5441,-2.6725,-2.6858,-2.769,-2.9587,-3.0095,-3.0804,-3.1844,-3.2341,-3.2632,-3.2632,-3.2489,-3.2417,-3.2444,-3.3128,-3.3431,-3.3303,-3.3595,-3.3587,-3.3254,-3.3903,-3.4158,-3.3382,-3.3479,-3.3465,-3.3241,-3.3227,-3.3227,-3.3241,-3.3312,-3.3452,-3.377,-3.4128,-3.4481,-3.4765,-3.5264,-3.5589,-3.5504,-3.5733,-3.5831,-3.5752,-3.5943,-3.6211,-3.6274,-3.6492,-3.6723,-1.944,-1.8997,-1.8447,-1.7729,-1.6857,-1.7143,-1.6469,-1.534,-1.5255,-1.5035,-1.481,-1.5801,-1.7037,-1.8559,-1.9521,-2.0749,-2.1989,-2.1829,-2.1922,-2.2223,-2.2359,-2.2235,-2.1925,-2.2161,-2.2037,-2.1526,-2.1451,-2.1336,-2.121,-2.0807,-2.0495,-2.0268,-1.9394,-1.8843,-1.8521,0.0,0.0,0.0,-1.8338,-1.8942,-1.8808,-1.8414,-1.8076,-1.7998,-1.7456,0.0,-1.6627,-1.6365,-1.602,-1.5624,-1.534,0.0,0.0,0.0,0.0,0.0,0.0,0.0,0.0,0.0,0.0,0.0,-1.976,-2.0382,-2.0679,-2.1629,-2.3033,-2.4756,-2.5253,-2.6184,-2.8024,-2.8512,-2.9339,-3.0932,-3.1078,-3.14,-3.2168,-3.2307,-3.23,-3.2417,-3.2417,-3.2489,-3.2646,-3.2671,-3.2739,-3.3054,-3.3169,-3.3198,-3.3255,-3.3522,-3.3537,-3.3326,-3.3185,-3.2946,-3.2632,-3.2832,-3.3044,-3.3058,-3.3227,-3.3521,-3.3908,-3.4264,-3.4616,-3.5016,-3.5344,-3.5569,-3.5504,-3.5569,-3.5604,-3.5688,-3.5894,-3.61,-3.6367,-3.6677,-3.6999,-1.8696,0.0,-1.8087,-1.7631,0.0,-1.7012,-1.6648,-1.6004,-1.5582,-1.5369,-1.5387,-1.6324,-1.7768,-1.9456,-2.0689,-2.1807,-2.2598,-2.2464,-2.2402,-2.2359,-2.2297,-2.2049,-2.18,-2.1726,-2.1526,-2.1273,-2.121,-2.1158,-2.1221,-2.0957,-2.0768,-2.0484,-1.9943,-1.9643,-1.9554,-1.9147,-1.8649,-1.7914,-1.8898,-1.9462,-1.9452,-1.9187,-1.8721,-1.8124,-1.7841,0.0,0.0,0.0,0.0,0.0,0.0,0.0,0.0,0.0,0.0,-1.6095,-1.6177,-1.6587,-1.7661,-1.8475,-1.9396,-2.0547,-2.1804,-2.2226,-2.1651,-2.2715,-2.3902,-2.5152,-2.5678,-2.6686,-2.8387,-2.9125,-2.9931,-3.1109,-3.1444,-3.1702,-3.199,-3.2185,-3.23,-3.23,-3.2286,-3.2431,-3.2632,-3.2632,-3.2704,-3.3086,-3.3157,-3.3171,-3.3241,-3.3312,-3.3241,-3.3016,-3.2704,-3.2547,-3.2561,-3.269,-3.2903,-3.3072,-3.3312,-3.366,-3.4128,-3.4414,-3.4698,-3.5096,-3.5279,-3.5359,-3.5374,-3.5374,-3.5424,-3.5604,-3.5846,-3.6133,-3.6275,-3.6631,-3.6923,-1.8032,-1.792,-1.7854,-1.7573,-1.7229,-1.6812,-1.6617,-1.6503,0.0,0.0,0.0,-1.7057,-1.8533,-2.0305,-2.1722,-2.2617,-2.2835,-2.2874,-2.2708,-2.2359,-2.2037,-2.1776,-2.1714,-2.1273,-2.1094,-2.1158,-2.1042,-2.1031,-2.1221,-2.1192,-2.1118,-2.0944,-2.0722,-2.0497,-2.047,-2.047,-2.0112,-1.936,-1.9587,-1.9846,-1.9966,-1.9835,-1.9177,-1.8124,-1.816,-1.7695,-1.6646,-1.6713,-1.6533,-1.5916,-1.545,-1.5236,-1.5283,-1.5216,-1.5417,-1.5956,-1.64,-1.7199,-1.8346,-1.9052,-2.0194,-2.2123,-2.3458,-2.38,-2.301,-2.3811,-2.4646,-2.5273,-2.6116,-2.7225,-2.8499,-2.9361,-3.0112,-3.0846,-3.1434,-3.173,-3.1643,-3.1996,-3.2214,-3.2169,-3.2169,-3.23,-3.2561,-3.2632,-3.2775,-3.3086,-3.3171,-3.3241,-3.3241,-3.3157,-3.3016,-3.2717,-3.2444,-3.23,-3.2503,-3.2632,-3.2789,-3.3157,-3.3382,-3.3744,-3.4278,-3.4549,-3.4765,-3.5082,-3.5148,-3.5148,-3.5213,-3.5228,-3.5359,-3.5569,-3.5925,-3.6228,-3.6136,-3.643,-3.6769,-1.7342,-1.7652,-1.7095,-1.6852,-1.6738,-1.6566,-1.6157,-1.5763,-1.5749,-1.5848,-1.6203,-1.79,-1.925,-2.0392,-2.1809,-2.2577,-2.2751,-2.2727,-2.2616,-2.242,-2.2359,-2.2099,-2.1714,-2.1651,-2.1463,-2.1233,-2.1158,-2.1169,-2.1112,-2.0795,-2.0733,-2.0946,-1.993,-1.936,-1.941,-1.9517,-1.9882,-2.0417,-1.9901,-1.9528,-1.9431,-1.8664,-1.8076,-1.7657,-1.7312,-1.6959,-1.6627,-1.6485,-1.6088,-1.538,-1.5232,-1.5357,-1.5633,-1.5689,-1.6349,-1.7783,-1.7947,-1.8445,-1.9302,-1.9878,-2.0823,-2.238,-2.3424,-2.402,-2.4253,-2.4777,-2.5312,-2.5689,-2.6699,-2.7693,-2.8512,-2.9361,-3.0077,-3.067,-3.1136,-3.1347,-3.1347,-3.1716,-3.1963,-3.1963,-3.2109,-3.2241,-3.2431,-3.2489,-3.2561,-3.2789,-3.3016,-3.3072,-3.3058,-3.2917,-3.2704,-3.2503,-3.23,-3.2241,-3.2314,-3.2359,-3.2646,-3.2988,-3.3227,-3.366,-3.4278,-3.4481,-3.4616,-3.4868,-3.4905,-3.4986,-3.5148,-3.5359,-3.5554,-3.5797,-3.6178,-3.6336,-3.6212,-3.6445,-3.6738,-1.6722,-1.687,-1.6562,-1.6409,-1.6335,-1.6245,-1.597,-1.5686,-1.5978,-1.6421,-1.7003,-1.8219,-1.9445,-2.0626,-2.1485,-2.1966,-2.2087,-2.2087,-2.2075,-2.1951,-2.1889,-2.1788,-2.1526,-2.1474,-2.1348,-2.1158,-2.1094,-2.1031,-2.1008,-2.0665,-2.0477,-2.0358,-1.9599,-1.9251,-1.9345,-1.9543,-1.991,-2.0366,-2.0129,-1.9998,-1.9977,-1.9452,-1.8921,-1.8519,-1.8251,-1.7962,-1.7772,-1.7444,-1.7108,-1.699,-1.6647,-1.6541,-1.6741,-1.6929,-1.7378,-1.825,-1.8539,-1.9111,-1.9899,-2.1083,-2.1901,-2.2472,-2.3455,-2.42,-2.4502,-2.4711,-2.513,-2.5649,-2.6907,-2.7952,-2.8621,-2.9761,-3.055,-3.081,-3.1224,-3.136,-3.1286,-3.173,-3.1963,-3.1817,-3.2096,-3.2359,-3.2561,-3.2632,-3.2789,-3.3016,-3.3157,-3.3143,-3.3058,-3.2846,-3.2632,-3.2417,-3.2228,-3.2169,-3.23,-3.2561,-3.2846,-3.3086,-3.3577,-3.4005,-3.4346,-3.4549,-3.4683,-3.475,-3.4787,-3.492,-3.5001,-3.5213,-3.5424,-3.5683,-3.5988,-3.6163,-3.6163,-3.6243,-3.6384,-1.6141,-1.6229,-1.6078,-1.5973,-1.5898,-1.6057,-1.5858,-1.5484,-1.619,-1.6756,-1.7227,-1.8105,-1.9286,-2.0369,-2.0858,-2.1138,-2.1221,-2.1239,-2.1239,-2.1175,-2.1123,-2.1071,-2.1071,-2.1031,-2.1031,-2.1031,-2.0903,-2.0903,-2.0839,-2.0646,-2.0134,-1.9462,-1.9282,-1.9167,-1.9104,-1.9394,-1.9619,-1.989,-2.0009,-2.0129,-2.0259,-1.9977,-1.9573,-1.911,-1.8998,-1.8875,-1.8741,-1.8347,-1.8162,-1.8275,-1.7823,-1.755,-1.7649,-1.7813,-1.8076,-1.8405,-1.8798,-1.9364,-2.0226,-2.1611,-2.2475,-2.2388,-2.337,-2.4146,-2.4478,-2.4562,-2.4908,-2.579,-2.71,-2.8208,-2.8912,-2.9995,-3.0843,-3.1022,-3.1286,-3.1373,-3.1211,-3.173,-3.2036,-3.1817,-3.2155,-3.2489,-3.2704,-3.2846,-3.3002,-3.3157,-3.3241,-3.3157,-3.3072,-3.2931,-3.2704,-3.2574,-3.2228,-3.2169,-3.2431,-3.2704,-3.3058,-3.3382,-3.3825,-3.4235,-3.4438,-3.4735,-3.4868,-3.4802,-3.4802,-3.4935,-3.5001,-3.5148,-3.5359,-3.5554,-3.5861,-3.6052,-3.6052,-3.5958,-3.6087,-1.5763,-1.5779,-1.5678,-1.5541,-1.5418,-1.586,-1.5551,-1.4975,-1.5992,-1.6382,-1.6385,-1.7741,-1.8695,-1.9225,-1.9881,-2.0178,-2.0237,-2.0226,-2.0161,-2.002,-2.0161,-2.0183,-2.0129,-2.0442,-2.0582,-2.0529,-2.0711,-2.0775,-2.0658,-2.0291,-1.9598,-1.8626,-1.851,-1.8446,-1.8263,-1.8315,-1.8651,-1.9354,-1.9065,-1.9075,-1.9198,-1.8998,-1.8731,-1.8405,-1.8539,-1.8549,-1.8549,-1.8482,-1.8225,-1.7744,-1.7726,-1.7678,-1.7586,-1.7591,-1.794,-1.8674,-1.8808,-1.9173,-1.9909,-2.0819,-2.1677,-2.2194,-2.291,-2.3635,-2.4348,-2.4646,-2.5194,-2.6178,-2.7346,-2.8381,-2.9295,-2.987,-3.0451,-3.0856,-3.1185,-3.1347,-3.1347,-3.1656,-3.1977,-3.2096,-3.23,-3.2489,-3.2632,-3.2775,-3.286,-3.3072,-3.3143,-3.3143,-3.3241,-3.3072,-3.3002,-3.3016,-3.2602,-3.2386,-3.2646,-3.2704,-3.3129,-3.377,-3.3891,-3.4163,-3.4624,-3.4839,-3.4824,-3.4854,-3.4868,-3.5016,-3.5148,-3.5344,-3.5489,-3.5604,-3.5782,-3.5988,-3.5988,-3.5921,-3.5906,-1.5216,-1.5034,-1.5153,-1.4983,-1.4692,-1.4881,-1.4706,-1.4308,-1.515,-1.5487,-1.5593,-1.6477,-1.7454,-1.8606,-1.8889,-1.9153,-1.933,-1.9452,-1.9452,-1.9396,-1.966,-1.9791,-1.9802,-2.0107,-2.0248,-2.0074,-2.0129,-2.0053,-1.9803,-1.9447,-1.8955,-1.8487,-1.8402,-1.8402,-1.8402,-1.8268,-1.8415,-1.8824,-1.8529,-1.8337,-1.8472,-1.8539,-1.8549,-1.8414,-1.8405,-1.8414,-1.8482,-1.8347,-1.8123,-1.8022,-1.791,-1.7862,-1.7821,-1.791,-1.8144,-1.8627,-1.9276,-1.9836,-2.0172,-2.1051,-2.1664,-2.1868,-2.2706,-2.3381,-2.3729,-2.4387,-2.5099,-2.5875,-2.684,-2.7792,-2.862,-2.9417,-3.0069,-3.049,-3.1074,-3.1434,-3.1347,-3.173,-3.2109,-3.2036,-3.2228,-3.2489,-3.2704,-3.2931,-3.3086,-3.3157,-3.3157,-3.3227,-3.3312,-3.3241,-3.3227,-3.3227,-3.3016,-3.2931,-3.3058,-3.3269,-3.3563,-3.3962,-3.4274,-3.4624,-3.4773,-3.5001,-3.4986,-3.4905,-3.4986,-3.5067,-3.5103,-3.5344,-3.5554,-3.5604,-3.5604,-3.5748,-3.5831,-3.5699,-3.5733,-1.4634,-1.4501,-1.466,-1.4468,-1.403,-1.4109,-1.4016,-1.3994,-1.4517,-1.4954,-1.5194,-1.5686,-1.6563,-1.7661,-1.7772,-1.7998,-1.8405,-1.8607,-1.8741,-1.8808,-1.9142,-1.9274,-1.9274,-1.966,-1.9715,-1.9605,-1.9539,-1.9396,-1.9079,-1.8754,-1.8459,-1.8328,-1.8161,-1.8155,-1.8219,-1.7985,-1.7912,-1.7959,-1.778,-1.7715,-1.786,-1.7982,-1.8165,-1.8385,-1.8347,-1.8347,-1.8414,-1.8144,-1.8066,-1.8124,-1.8076,-1.8008,-1.8008,-1.8134,-1.8337,-1.8704,-1.9588,-2.0178,-2.0314,-2.1007,-2.1452,-2.1632,-2.2298,-2.2854,-2.3256,-2.4003,-2.4767,-2.5465,-2.6054,-2.6747,-2.8048,-2.9003,-2.9671,-3.0197,-3.1029,-3.1508,-3.1508,-3.195,-3.2169,-3.2096,-3.2286,-3.2489,-3.2747,-3.2947,-3.3003,-3.3199,-3.3312,-3.3312,-3.3326,-3.3396,-3.3452,-3.3507,-3.3563,-3.3563,-3.3479,-3.3563,-3.3908,-3.4264,-3.4601,-3.4883,-3.5001,-3.5148,-3.5294,-3.5213,-3.5213,-3.5279,-3.5279,-3.5424,-3.5504,-3.5489,-3.5504,-3.5569,-3.5653,-3.5554,-3.5554,-1.389,-1.4162,-1.4241,-1.3994,-1.3487,-1.3754,-1.3966,-1.3921,-1.4486,-1.4893,-1.5199,-1.5788,-1.6219,-1.6456,-1.6421,-1.6839,-1.7461,-1.7608,-1.7803,-1.8076,-1.8269,-1.8405,-1.8405,-1.8875,-1.9054,-1.888,-1.9125,-1.9023,-1.8596,-1.8509,-1.8317,-1.8027,-1.773,-1.7524,-1.7465,-1.7125,-1.6816,-1.6885,-1.6821,-1.7031,-1.7334,-1.7041,-1.7366,-1.815,-1.8259,-1.825,-1.8279,-1.8144,-1.793,-1.7706,-1.793,-1.8008,-1.8008,-1.8008,-1.8347,-1.9008,-1.9438,-1.9779,-2.0096,-2.0238,-2.0567,-2.1108,-2.152,-2.2004,-2.3015,-2.3536,-2.4241,-2.5216,-2.5191,-2.5937,-2.77,-2.8524,-2.9314,-3.025,-3.1063,-3.1589,-3.1817,-3.2023,-3.2228,-3.2286,-3.2331,-3.2547,-3.2903,-3.2639,-3.2792,-3.3087,-3.3269,-3.3199,-3.3185,-3.3547,-3.3656,-3.3711,-3.3945,-3.4167,-3.3811,-3.3839,-3.4128,-3.4481,-3.4831,-3.5141,-3.5243,-3.5344,-3.5359,-3.5439,-3.5424,-3.5424,-3.5504,-3.5504,-3.5439,-3.5439,-3.5454,-3.5519,-3.5539,-3.5489,-3.5489,-1.3665,-1.389,-1.3581,-1.3209,-1.294,-1.3037,-1.3091,-1.3142,-1.3579,-1.4026,-1.4505,-1.4919,-1.5275,-1.563,-1.563,-1.6114,-1.689,-1.7047,-1.7254,-1.752,-1.793,-1.7996,-1.7816,-1.8183,-1.8304,-1.8238,-1.8359,-1.838,-1.8385,-1.8347,-1.8337,-1.8192,-1.8063,-1.778,-1.7448,-1.7077,-1.6754,-1.6313,-1.6475,-1.6751,-1.7062,-1.7096,-1.7305,-1.7492,-1.7664,-1.7858,-1.8066,-1.793,-1.7852,-1.7872,-1.7852,-1.7852,-1.8018,-1.8212,-1.8617,-1.9142,-1.9473,-1.9813,-2.0216,-2.0151,-2.0336,-2.0872,-2.1543,-2.2094,-2.2673,-2.342,-2.436,-2.5069,-2.5178,-2.585,-2.6956,-2.7704,-2.8404,-2.9516,-3.0447,-3.1256,-3.1649,-3.1963,-3.2241,-3.23,-3.2403,-3.2577,-3.2708,-3.2569,-3.2372,-3.2732,-3.2506,-3.2404,-3.2549,-3.2682,-3.2806,-3.2961,-3.2998,-3.3064,-3.2998,-3.3763,-3.4332,-3.4735,-3.5096,-3.5162,-3.5279,-3.5424,-3.5439,-3.5454,-3.5519,-3.5489,-3.5489,-3.524,-3.527,-3.5374,-3.5389,-3.5469,-3.5504,-3.5504,-3.5489,-1.3176,-1.3209,-1.2986,-1.2647,-1.2311,-1.2305,-1.2378,-1.2526,-1.2826,-1.3331,-1.3912,-1.4274,-1.4633,-1.4991,-1.4991,-1.5409,-1.6114,-1.6542,-1.683,-1.7107,-1.7598,-1.7658,-1.73,-1.755,-1.7591,-1.7511,-1.7695,-1.7909,-1.8162,-1.8202,-1.8212,-1.8202,-1.7888,-1.7507,-1.7093,-1.6693,-1.6141,-1.5798,-1.5875,-1.6132,-1.6542,-1.6565,-1.6715,-1.6873,-1.6975,-1.7242,-1.7658,-1.7639,-1.7716,-1.7803,-1.7784,-1.7852,-1.8076,-1.8347,-1.8684,-1.9208,-1.9473,-1.9802,-2.014,-2.014,-2.0216,-2.0486,-2.124,-2.1823,-2.2332,-2.3115,-2.3978,-2.4731,-2.4952,-2.5426,-2.647,-2.6876,-2.7611,-2.8956,-2.9923,-3.0722,-3.1368,-3.1798,-3.2014,-3.2017,-3.2011,-3.2152,-3.2319,-3.1844,-3.1811,-3.2168,-3.1881,-3.1801,-3.1982,-3.2112,-3.2112,-3.2384,-3.2471,-3.2579,-3.2687,-3.3253,-3.3856,-3.4339,-3.4889,-3.5014,-3.513,-3.5305,-3.54,-3.5409,-3.5439,-3.5489,-3.535,-3.5085,-3.5115,-3.5234,-3.5374,-3.5519,-3.5504,-3.5504,-3.5489,-1.2255,-1.2261,-1.2439,-1.2181,-1.1793,-1.1781,-1.1929,-1.2305,-1.2505,-1.291,-1.3469,-1.386,-1.4229,-1.4506,-1.4506,-1.4783,-1.5238,-1.5826,-1.6376,-1.676,-1.7254,-1.7224,-1.6807,-1.6958,-1.6931,-1.6641,-1.7122,-1.7598,-1.793,-1.7988,-1.8008,-1.7794,-1.7125,-1.6732,-1.6485,-1.5657,-1.5112,-1.5034,-1.4943,-1.5228,-1.5696,-1.5368,-1.5617,-1.6478,-1.6449,-1.6579,-1.693,-1.7427,-1.7647,-1.7598,-1.7647,-1.792,-1.8269,-1.8472,-1.8684,-1.9075,-1.9407,-1.9681,-1.9878,-2.002,-2.0085,-2.0314,-2.0553,-2.1318,-2.2071,-2.2397,-2.3075,-2.4232,-2.4508,-2.4874,-2.6024,-2.6517,-2.7235,-2.8718,-2.9518,-3.0204,-3.0983,-3.1428,-3.1625,-3.1668,-3.1474,-3.1221,-3.1135,-3.0867,-3.0872,-3.1382,-3.1514,-3.1503,-3.1589,-3.1782,-3.2048,-3.2112,-3.1974,-3.1956,-3.2329,-3.2684,-3.324,-3.3721,-3.4351,-3.4762,-3.4679,-3.4793,-3.4763,-3.4807,-3.4827,-3.4891,-3.4986,-3.4753,-3.4857,-3.5026,-3.5225,-3.5454,-3.5504,-3.5489,-3.5489,-1.1655,-1.1947,-1.1916,-1.1864,-1.1706,-1.1706,-1.1855,-1.205,-1.2236,-1.2499,-1.2962,-1.3269,-1.3523,-1.3729,-1.3858,-1.3986,-1.413,-1.4838,-1.5445,-1.593,-1.6603,-1.6532,-1.6075,-1.6262,-1.6364,-1.6316,-1.7118,-1.7494,-1.7436,-1.7649,-1.7794,-1.7552,-1.7177,-1.6634,-1.6166,-1.5433,-1.4921,-1.4561,-1.4702,-1.5032,-1.5597,-1.5836,-1.6104,-1.64,-1.6844,-1.6835,-1.6151,-1.7015,-1.7569,-1.7638,-1.7647,-1.792,-1.8337,-1.8617,-1.8875,-1.9208,-1.9473,-1.9671,-1.9868,-2.0009,-2.0151,-2.039,-2.0818,-2.1395,-2.1966,-2.2392,-2.3051,-2.4068,-2.4539,-2.5205,-2.6037,-2.6802,-2.7549,-2.8662,-2.9063,-2.9589,-3.0402,-3.0814,-3.0993,-3.1089,-3.0894,-3.0851,-3.0929,-3.048,-3.0261,-3.0878,-3.0835,-3.0706,-3.0912,-3.0998,-3.0993,-3.104,-3.1116,-3.1242,-3.1496,-3.1776,-3.2207,-3.2757,-3.3427,-3.412,-3.4188,-3.4144,-3.4114,-3.4085,-3.4181,-3.4316,-3.4396,-3.4495,-3.4634,-3.4901,-3.5139,-3.5279,-3.5424,-3.5489,-3.5489,-1.1133,-1.1481,-1.1304,-1.1261,-1.1248,-1.1095,-1.1046,-1.1232,-1.143,-1.1764,-1.222,-1.2467,-1.281,-1.3142,-1.3253,-1.3325,-1.3483,-1.3966,-1.4449,-1.498,-1.5965,-1.5967,-1.5402,-1.5466,-1.5864,-1.6243,-1.6871,-1.7207,-1.7293,-1.7513,-1.7598,-1.7463,-1.6959,-1.6515,-1.5975,-1.5168,-1.4547,-1.4389,-1.432,-1.4488,-1.4942,-1.5231,-1.5431,-1.5593,-1.6167,-1.6169,-1.5615,-1.6459,-1.7072,-1.7417,-1.7619,-1.7988,-1.8482,-1.8617,-1.8875,-1.9208,-1.9473,-1.9671,-1.9802,-1.9944,-2.0151,-2.0401,-2.0818,-2.1339,-2.1758,-2.2362,-2.3023,-2.3676,-2.4392,-2.5167,-2.5923,-2.6608,-2.7458,-2.8358,-2.8599,-2.9147,-2.9849,-3.0528,-3.0703,-3.0713,-3.0571,-3.0554,-3.0355,-3.0183,-2.9827,-3.0332,-3.0244,-3.005,-3.0266,-3.0341,-3.0387,-3.0522,-3.0652,-3.0725,-3.0623,-3.0872,-3.1209,-3.1784,-3.239,-3.3125,-3.355,-3.341,-3.3395,-3.3332,-3.3303,-3.3657,-3.3765,-3.407,-3.4268,-3.4638,-3.4934,-3.5279,-3.5489,-3.5489,-3.5489,-1.0576,-1.0708,-1.0548,-1.0532,-1.0437,-1.0095,-1.0008,-0.9945,-1.0384,-1.0918,-1.1326,-1.1628,-1.2079,-1.2684,-1.2609,-1.2706,-1.3012,-1.3294,-1.351,-1.4036,-1.5018,-1.5486,-1.5074,-1.4869,-1.5343,-1.6113,-1.6205,-1.6543,-1.691,-1.7128,-1.7413,-1.7163,-1.6412,-1.6104,-1.5889,-1.4729,-1.4162,-1.4356,-1.3855,-1.3879,-1.4242,-1.4072,-1.4108,-1.4591,-1.5007,-1.5142,-1.5249,-1.5733,-1.629,-1.6873,-1.7523,-1.7957,-1.8335,-1.8422,-1.8578,-1.9013,-1.9396,-1.9507,-1.9649,-1.9944,-2.0151,-2.0216,-2.052,-2.0902,-2.1479,-2.2119,-2.2638,-2.3252,-2.3991,-2.473,-2.5458,-2.6167,-2.6935,-2.7841,-2.8302,-2.8847,-2.9638,-3.0439,-3.0516,-3.0327,-3.0317,-3.0227,-2.9778,-2.9638,-2.9673,-2.9721,-2.9893,-2.9988,-3.0021,-3.019,-3.0326,-3.0387,-3.0507,-3.0507,-3.0522,-3.058,-3.0887,-3.1047,-3.1471,-3.1948,-3.2517,-3.2517,-3.2441,-3.2394,-3.2522,-3.2918,-3.3152,-3.3353,-3.3819,-3.4218,-3.4658,-3.5195,-3.528,-3.4991,-3.5011,-0.9755,-0.989,-1.0042,-1.0081,-1.0075,-1.0079,-0.9942,-0.984,-1.0115,-1.0356,-1.0699,-1.0909,-1.1323,-1.174,-1.1825,-1.1944,-1.2217,-1.26,-1.2952,-1.3259,-1.3765,-1.4338,-1.4626,-1.4737,-1.4744,-1.4853,-1.5296,-1.545,-1.5396,-1.5871,-1.6127,-1.6211,-1.5587,-1.5432,-1.553,-1.439,-1.3821,-1.4084,-1.4418,-1.4388,-1.4509,-1.4876,-1.5274,-1.5402,-1.5321,-1.5178,-1.5014,-1.5318,-1.5883,-1.6536,-1.6918,-1.7402,-1.7986,-1.7934,-1.8175,-1.8899,-1.9112,-1.9275,-1.9607,-1.9944,-2.014,-2.0346,-2.0604,-2.096,-2.1574,-2.2008,-2.2493,-2.3121,-2.3936,-2.4622,-2.5101,-2.5831,-2.6724,-2.7615,-2.8106,-2.8573,-2.9026,-2.9265,-2.9371,-2.9425,-2.9575,-2.954,-2.9449,-2.9428,-2.949,-2.9614,-2.9709,-2.995,-2.9864,-3.0151,-3.0242,-3.0478,-3.0568,-3.0568,-3.0568,-3.0568,-3.0565,-3.0473,-3.0618,-3.078,-3.1197,-3.1333,-3.1289,-3.126,-3.1731,-3.2126,-3.2214,-3.2397,-3.2956,-3.38,-3.3731,-3.401,-3.3955,-3.3776,-3.3961,-0.927,-0.9453,-0.9448,-0.9426,-0.9467,-0.9351,-0.919,-0.9182,-0.942,-0.9766,-1.0108,-1.0226,-1.0551,-1.1099,-1.1248,-1.1247,-1.1331,-1.1885,-1.2277,-1.249,-1.2796,-1.3445,-1.4077,-1.4318,-1.4188,-1.415,-1.4464,-1.4623,-1.4641,-1.4862,-1.5103,-1.5294,-1.4848,-1.4819,-1.528,-1.4119,-1.3576,-1.3765,-1.3916,-1.3852,-1.4013,-1.432,-1.4582,-1.4784,-1.4772,-1.4675,-1.4689,-1.4906,-1.5345,-1.5951,-1.6423,-1.6963,-1.749,-1.7617,-1.8055,-1.8764,-1.9017,-1.935,-1.9596,-2.0009,-2.0335,-2.0529,-2.085,-2.1285,-2.1737,-2.2223,-2.2787,-2.314,-2.3936,-2.4528,-2.5109,-2.5826,-2.6537,-2.7099,-2.7575,-2.8107,-2.8684,-2.8949,-2.8898,-2.8886,-2.9094,-2.9119,-2.882,-2.8858,-2.8904,-2.8894,-2.8651,-2.8997,-2.9405,-2.9774,-3.0069,-3.0201,-3.0348,-3.0348,-3.0274,-3.0214,-3.0081,-2.999,-3.0076,-3.0165,-3.0269,-3.051,-3.0671,-3.0833,-3.1085,-3.132,-3.1569,-3.1951,-3.2823,-3.3284,-3.2945,-3.2889,-3.3104,-3.3047,-3.3138,-0.8954,-0.9115,-0.8724,-0.8689,-0.8759,-0.8285,-0.8195,-0.8255,-0.8548,-0.9017,-0.958,-0.9556,-1.002,-1.0738,-1.0705,-1.0674,-1.0611,-1.1283,-1.1527,-1.1729,-1.211,-1.2735,-1.3348,-1.3447,-1.3551,-1.3758,-1.3763,-1.3877,-1.4025,-1.4038,-1.4363,-1.4545,-1.4179,-1.4332,-1.4554,-1.3727,-1.3476,-1.3534,-1.3255,-1.3119,-1.3298,-1.3472,-1.3701,-1.3915,-1.4031,-1.4203,-1.433,-1.4501,-1.4819,-1.5308,-1.5951,-1.6471,-1.6891,-1.744,-1.7877,-1.8288,-1.8807,-1.9179,-1.9522,-1.9951,-2.0411,-2.0482,-2.1019,-2.1561,-2.1616,-2.2116,-2.2645,-2.2997,-2.3735,-2.4302,-2.5051,-2.5888,-2.6351,-2.656,-2.6722,-2.7441,-2.8274,-2.8793,-2.8685,-2.8358,-2.8741,-2.8478,-2.813,-2.7748,-2.7804,-2.8313,-2.8158,-2.8418,-2.8763,-2.9026,-2.9373,-2.9617,-2.9791,-3.0026,-2.9966,-2.9846,-2.9686,-2.9583,-2.9757,-2.9829,-2.99,-3.0139,-3.0389,-3.064,-3.0862,-3.1037,-3.1209,-3.1857,-3.257,-3.2635,-3.2147,-3.2507,-3.2959,-3.263,-3.2601,-0.7952,-0.8134,-0.7915,-0.7831,-0.7881,-0.801,-0.7956,-0.788,-0.8278,-0.8668,-0.9144,-0.9291,-0.963,-1.0149,-1.0213,-1.0301,-1.0491,-1.0807,-1.1059,-1.1247,-1.1677,-1.1729,-1.1955,-1.2328,-1.2709,-1.2719,-1.2656,-1.2781,-1.2923,-1.3137,-1.3345,-1.3663,-1.3545,-1.3592,-1.4073,-1.3345,-1.2913,-1.3259,-1.3337,-1.3347,-1.3393,-1.3675,-1.3887,-1.3932,-1.397,-1.4148,-1.4387,-1.4455,-1.4602,-1.4855,-1.5226,-1.5756,-1.6315,-1.6427,-1.6951,-1.7688,-1.7943,-1.8291,-1.8783,-1.9315,-1.9614,-1.9996,-2.0331,-2.0441,-2.0981,-2.1217,-2.1878,-2.2533,-2.3032,-2.3668,-2.45,-2.5477,-2.5837,-2.6018,-2.637,-2.6884,-2.7318,-2.7414,-2.7448,-2.7418,-2.7442,-2.7405,-2.7471,-2.7307,-2.7407,-2.7692,-2.7764,-2.7909,-2.8066,-2.8281,-2.861,-2.8909,-2.9011,-2.9186,-2.9127,-2.9023,-2.8964,-2.8964,-2.9166,-2.9326,-2.9351,-2.9806,-3.0071,-3.0393,-3.0686,-3.0814,-3.0988,-3.1052,-3.1584,-3.1423,-3.1499,-3.1827,-3.205,-3.199,-3.2154,-0.7507,-0.7573,-0.7377,-0.7359,-0.7411,-0.7336,-0.7441,-0.7607,-0.7771,-0.8247,-0.87,-0.8894,-0.9151,-0.953,-0.9658,-0.9849,-0.9919,-1.0174,-1.0349,-1.0539,-1.0822,-1.0781,-1.0519,-1.1044,-1.1553,-1.1677,-1.1809,-1.1864,-1.1988,-1.2205,-1.2515,-1.2885,-1.2843,-1.3042,-1.33,-1.2787,-1.2538,-1.2525,-1.2659,-1.2827,-1.2998,-1.3304,-1.376,-1.3908,-1.4004,-1.4139,-1.4396,-1.4455,-1.4556,-1.4715,-1.4961,-1.5341,-1.593,-1.6167,-1.6656,-1.7172,-1.7804,-1.8061,-1.8622,-1.9157,-1.9677,-1.9901,-2.0146,-2.0517,-2.0917,-2.1087,-2.1581,-2.2227,-2.2622,-2.3018,-2.371,-2.4469,-2.4892,-2.5111,-2.5558,-2.5941,-2.6167,-2.6549,-2.6854,-2.6868,-2.6876,-2.6713,-2.6689,-2.6705,-2.6651,-2.6793,-2.675,-2.6863,-2.7328,-2.757,-2.7882,-2.8153,-2.8124,-2.8152,-2.8152,-2.8137,-2.8135,-2.825,-2.8495,-2.8566,-2.8608,-2.9202,-2.9813,-3.006,-3.0335,-3.0568,-3.0758,-3.0702,-3.0674,-3.0998,-3.1116,-3.1176,-3.1367,-3.1735,-3.1897,-0.7045,-0.7116,-0.6879,-0.6941,-0.6979,-0.6559,-0.6695,-0.7153,-0.7113,-0.7613,-0.8231,-0.842,-0.8634,-0.9011,-0.9268,-0.9204,-0.921,-0.9524,-0.9819,-0.988,-1.0063,-0.9949,-0.9729,-0.9965,-1.0381,-1.0788,-1.1101,-1.1233,-1.1365,-1.156,-1.1877,-1.2119,-1.2375,-1.246,-1.2367,-1.22,-1.2078,-1.2032,-1.1895,-1.1898,-1.223,-1.2455,-1.294,-1.3405,-1.3635,-1.3726,-1.3961,-1.4096,-1.4317,-1.448,-1.4781,-1.5129,-1.5535,-1.6175,-1.6626,-1.6943,-1.7588,-1.8051,-1.8427,-1.9066,-1.9564,-1.9876,-2.0354,-2.0624,-2.0699,-2.0982,-2.1373,-2.1825,-2.2213,-2.2669,-2.2831,-2.3419,-2.3728,-2.3918,-2.4419,-2.4772,-2.5059,-2.5963,-2.6298,-2.6277,-2.6325,-2.6286,-2.6092,-2.6008,-2.5965,-2.5907,-2.5907,-2.602,-2.6511,-2.6779,-2.7117,-2.7131,-2.7088,-2.6889,-2.6832,-2.7016,-2.7101,-2.7312,-2.7626,-2.7797,-2.7882,-2.8425,-2.903,-2.9623,-2.9971,-3.0147,-3.0177,-3.0017,-3.0134,-3.0558,-3.0837,-3.0967,-3.123,-3.1567,-3.1667,-0.5898,-0.616,-0.6098,-0.6033,-0.5963,-0.6133,-0.6203,-0.623,-0.6479,-0.7104,-0.7802,-0.7927,-0.8286,-0.8762,-0.8894,-0.8958,-0.8924,-0.9191,-0.9346,-0.9363,-0.9395,-0.9193,-0.9126,-0.9114,-0.9338,-0.9778,-1.0305,-1.0732,-1.1052,-1.1303,-1.1363,-1.1358,-1.1518,-1.1684,-1.1638,-1.1472,-1.1545,-1.1689,-1.1559,-1.1623,-1.1822,-1.2145,-1.2487,-1.2907,-1.2998,-1.3093,-1.3226,-1.3302,-1.3377,-1.3543,-1.3718,-1.4012,-1.458,-1.5525,-1.6192,-1.6602,-1.7026,-1.7557,-1.8047,-1.836,-1.869,-1.9036,-1.948,-1.9575,-1.9711,-1.9989,-2.061,-2.1219,-2.1901,-2.2564,-2.2617,-2.2844,-2.2951,-2.3178,-2.3594,-2.4094,-2.4297,-2.4871,-2.5476,-2.5354,-2.5605,-2.5925,-2.5786,-2.5688,-2.5812,-2.5853,-2.5907,-2.5907,-2.6173,-2.6202,-2.6217,-2.612,-2.5953,-2.5645,-2.5463,-2.5714,-2.5924,-2.6174,-2.6511,-2.699,-2.7173,-2.7567,-2.8122,-2.8526,-2.9001,-2.9218,-2.9217,-2.9303,-2.9607,-2.9972,-3.0364,-3.0711,-3.0884,-3.1114,-3.1535,-0.5122,-0.5315,-0.5319,-0.5425,-0.5491,-0.5491,-0.562,-0.5741,-0.599,-0.6394,-0.6907,-0.7163,-0.7482,-0.7845,-0.7877,-0.7986,-0.8312,-0.8224,-0.8371,-0.844,-0.8429,-0.8366,-0.832,-0.8305,-0.8581,-0.8933,-0.9436,-0.9985,-1.0471,-1.087,-1.0856,-1.0735,-1.101,-1.1234,-1.1025,-1.0982,-1.0969,-1.1184,-1.1177,-1.1301,-1.144,-1.1826,-1.2221,-1.2503,-1.2593,-1.2729,-1.2903,-1.3123,-1.3286,-1.345,-1.3666,-1.398,-1.4419,-1.4908,-1.5587,-1.6071,-1.6693,-1.7346,-1.7897,-1.8247,-1.8661,-1.897,-1.9146,-1.9275,-1.9368,-1.9743,-2.0129,-2.0682,-2.1056,-2.1628,-2.1575,-2.1996,-2.2194,-2.2379,-2.2911,-2.3313,-2.3541,-2.3933,-2.4177,-2.4463,-2.5039,-2.5398,-2.5508,-2.5522,-2.5702,-2.5812,-2.5811,-2.5823,-2.5781,-2.5656,-2.5586,-2.5701,-2.5592,-2.5397,-2.5145,-2.5271,-2.5494,-2.5577,-2.5772,-2.6246,-2.6525,-2.699,-2.7031,-2.7115,-2.7551,-2.839,-2.8737,-2.8983,-2.9198,-2.9369,-2.964,-2.9941,-3.0287,-3.0618,-3.1061,-0.4347,-0.4543,-0.4611,-0.4813,-0.5009,-0.4813,-0.4935,-0.5257,-0.5277,-0.559,-0.6111,-0.6299,-0.6539,-0.6773,-0.6953,-0.7157,-0.7501,-0.733,-0.7387,-0.747,-0.7549,-0.7444,-0.7438,-0.7564,-0.7899,-0.8358,-0.8691,-0.9034,-0.9661,-1.0239,-1.0309,-1.0237,-1.0726,-1.0886,-1.059,-1.0631,-1.0562,-1.0531,-1.0689,-1.0887,-1.1158,-1.1515,-1.1903,-1.2295,-1.2329,-1.2349,-1.2467,-1.2672,-1.2885,-1.3097,-1.3389,-1.3786,-1.4138,-1.4437,-1.4807,-1.539,-1.6472,-1.7233,-1.7741,-1.809,-1.831,-1.8558,-1.8885,-1.9062,-1.9349,-1.9608,-2.0156,-2.0461,-2.0664,-2.0817,-2.0935,-2.1195,-2.1444,-2.1653,-2.2114,-2.2657,-2.2763,-2.3001,-2.3198,-2.3658,-2.4408,-2.4653,-2.4557,-2.5135,-2.5228,-2.5182,-2.518,-2.5166,-2.5138,-2.5124,-2.5126,-2.5464,-2.5481,-2.5286,-2.5201,-2.5257,-2.5425,-2.5605,-2.5744,-2.609,-2.6212,-2.6389,-2.6429,-2.668,-2.7227,-2.8006,-2.8327,-2.8542,-2.8605,-2.87,-2.8956,-2.9372,-2.9973,-3.0226,-3.0448,-0.3107,-0.3485,-0.3794,-0.3974,-0.4047,-0.4182,-0.43,-0.435,-0.4264,-0.4534,-0.5168,-0.5381,-0.5712,-0.603,-0.6484,-0.6727,-0.6926,-0.6923,-0.6856,-0.69,-0.6952,-0.6949,-0.7007,-0.7015,-0.7309,-0.7734,-0.8107,-0.8558,-0.8958,-0.9486,-0.9731,-0.9636,-0.9883,-1.0144,-1.0327,-1.0341,-1.0335,-1.0311,-1.0624,-1.0947,-1.1158,-1.1327,-1.1422,-1.1507,-1.1533,-1.161,-1.1756,-1.1962,-1.2139,-1.2264,-1.2479,-1.2591,-1.2819,-1.347,-1.4023,-1.4704,-1.5448,-1.635,-1.7039,-1.7497,-1.7709,-1.7932,-1.8056,-1.824,-1.8734,-1.9383,-1.9953,-2.0461,-2.0573,-2.0649,-2.0636,-2.0791,-2.083,-2.1114,-2.1559,-2.1874,-2.2003,-2.2005,-2.2196,-2.201,-2.2415,-2.3041,-2.3308,-2.4104,-2.4752,-2.4637,-2.4511,-2.4511,-2.4525,-2.4501,-2.4504,-2.4759,-2.4901,-2.4709,-2.4914,-2.5025,-2.5329,-2.555,-2.5811,-2.5934,-2.6096,-2.6258,-2.6592,-2.6871,-2.7307,-2.7524,-2.7762,-2.7927,-2.7897,-2.8136,-2.8411,-2.9109,-2.9841,-2.9932,-2.9824,-0.1576,-0.234,-0.2709,-0.3013,-0.3258,-0.3444,-0.363,-0.3745,-0.3764,-0.3849,-0.4142,-0.4339,-0.4673,-0.5054,-0.5311,-0.5608,-0.5818,-0.5921,-0.6037,-0.6164,-0.6135,-0.6025,-0.6054,-0.6165,-0.6464,-0.6754,-0.7219,-0.7481,-0.7993,-0.8833,-0.9354,-0.9066,-0.9357,-0.9637,-0.9833,-0.9918,-0.99,-0.9981,-1.0194,-1.05,-1.0747,-1.0989,-1.1217,-1.1259,-1.125,-1.1309,-1.1401,-1.1669,-1.1927,-1.2126,-1.2382,-1.2627,-1.2852,-1.3263,-1.3695,-1.4307,-1.4843,-1.5785,-1.6938,-1.7242,-1.7412,-1.7593,-1.775,-1.7945,-1.8289,-1.8783,-1.9333,-1.9709,-1.9858,-2.0135,-2.0445,-2.0562,-2.0675,-2.0867,-2.1083,-2.1023,-2.1109,-2.1073,-2.1029,-2.0731,-2.0479,-2.1129,-2.1835,-2.2616,-2.3335,-2.3761,-2.3849,-2.3984,-2.3923,-2.3889,-2.3906,-2.3925,-2.4025,-2.4014,-2.4382,-2.4628,-2.5067,-2.5383,-2.5795,-2.5986,-2.6082,-2.6258,-2.6558,-2.6916,-2.7329,-2.7454,-2.7393,-2.7497,-2.7683,-2.7809,-2.7972,-2.8553,-2.9076,-2.9002,-2.895,-0.0178,-0.1083,-0.1565,-0.1984,-0.2404,-0.2585,-0.2825,-0.3188,-0.3179,-0.3143,-0.3231,-0.332,-0.3592,-0.3949,-0.4213,-0.4569,-0.4905,-0.4897,-0.5136,-0.5293,-0.5344,-0.5293,-0.5445,-0.5592,-0.5757,-0.5703,-0.6733,-0.6976,-0.7292,-0.7972,-0.8661,-0.847,-0.881,-0.9037,-0.9132,-0.9329,-0.946,-0.9578,-0.9731,-0.9937,-1.0202,-1.0571,-1.077,-1.0887,-1.1012,-1.118,-1.128,-1.1601,-1.1927,-1.2026,-1.2274,-1.248,-1.2783,-1.2988,-1.3433,-1.4015,-1.4504,-1.5242,-1.6256,-1.68,-1.711,-1.7253,-1.7459,-1.7494,-1.7768,-1.8086,-1.8505,-1.9024,-1.9195,-1.9584,-1.993,-2.0135,-2.0182,-2.0315,-2.0492,-2.0346,-2.0161,-2.012,-1.9925,-1.9593,-1.9385,-1.9325,-2.0042,-2.0877,-2.1732,-2.2619,-2.305,-2.3339,-2.3308,-2.3183,-2.3228,-2.3259,-2.3507,-2.3619,-2.3969,-2.431,-2.4721,-2.5063,-2.5525,-2.5838,-2.5873,-2.6141,-2.6468,-2.688,-2.7238,-2.7473,-2.7458,-2.7458,-2.7473,-2.7694,-2.787,-2.7896,-2.8076,-2.8122,-2.8299,0.0811,0.0452,-0.0395,-0.096,-0.1243,-0.1576,-0.1919,-0.2331,-0.2322,-0.2322,-0.2373,-0.2372,-0.2723,-0.3102,-0.3449,-0.3825,-0.4252,-0.4684,-0.4794,-0.4904,-0.5062,-0.5039,-0.5155,-0.5288,-0.5614,-0.5887,-0.6364,-0.6597,-0.685,-0.7291,-0.7677,-0.7714,-0.8127,-0.84,-0.8556,-0.8695,-0.8992,-0.9121,-0.9247,-0.9428,-0.9673,-0.9922,-1.0009,-1.0059,-1.0328,-1.0592,-1.0601,-1.1083,-1.1481,-1.158,-1.1837,-1.2157,-1.2452,-1.2754,-1.3238,-1.3658,-1.4176,-1.4877,-1.5614,-1.5958,-1.5837,-1.599,-1.6356,-1.689,-1.7131,-1.7794,-1.8211,-1.838,-1.8584,-1.8814,-1.9115,-1.9365,-1.9569,-1.9698,-1.9819,-1.9741,-1.9474,-1.9168,-1.8913,-1.8495,-1.8378,-1.8424,-1.8507,-1.9435,-2.0352,-2.128,-2.2,-2.2263,-2.2309,-2.2242,-2.2406,-2.2596,-2.2992,-2.3313,-2.3644,-2.3955,-2.417,-2.4465,-2.4915,-2.524,-2.5494,-2.5865,-2.614,-2.6512,-2.6802,-2.717,-2.7455,-2.7171,-2.718,-2.7595,-2.7845,-2.794,-2.8137,-2.8332,-2.8383,0.1845,0.1343,0.1006,0.0391,-0.0336,-0.0672,-0.1119,-0.151,-0.1734,-0.1846,-0.1846,-0.1902,-0.2012,-0.2289,-0.2569,-0.2959,-0.3289,-0.3627,-0.3959,-0.4258,-0.4436,-0.4442,-0.4541,-0.4769,-0.4909,-0.5044,-0.556,-0.598,-0.6117,-0.662,-0.672,-0.6953,-0.7418,-0.7741,-0.793,-0.8031,-0.8287,-0.8438,-0.8704,-0.8949,-0.9169,-0.9509,-0.9606,-0.963,-0.9818,-0.9979,-1.0051,-1.0253,-1.0694,-1.1059,-1.1314,-1.1701,-1.2159,-1.254,-1.2958,-1.3324,-1.3836,-1.4455,-1.5051,-1.54,-1.568,-1.5893,-1.6167,-1.6414,-1.6569,-1.6935,-1.7345,-1.7604,-1.7885,-1.8131,-1.8699,-1.8913,-1.9011,-1.9101,-1.912,-1.9086,-1.8857,-1.8505,-1.82,-1.7862,-1.7785,-1.7787,-1.7842,-1.8045,-1.8969,-1.9915,-2.0589,-2.1192,-2.1301,-2.1537,-2.1767,-2.1925,-2.2328,-2.2661,-2.2986,-2.3256,-2.3511,-2.39,-2.4269,-2.4597,-2.4933,-2.5301,-2.5614,-2.5992,-2.6302,-2.6542,-2.6672,-2.663,-2.6889,-2.7421,-2.7838,-2.8134,-2.8314,-2.8446,-2.8558,0.2535,0.2071,0.1959,0.14,0.0561,0.0168,-0.0168,-0.0559,-0.0895,-0.1231,-0.1399,-0.1455,-0.1399,-0.1455,-0.1736,-0.2069,-0.2402,-0.2792,-0.3269,-0.3555,-0.3761,-0.3804,-0.4039,-0.4196,-0.4293,-0.4237,-0.4654,-0.5209,-0.5329,-0.5871,-0.598,-0.6201,-0.6597,-0.6884,-0.7152,-0.7334,-0.7517,-0.7685,-0.7903,-0.825,-0.8433,-0.8658,-0.8878,-0.8954,-0.9167,-0.9391,-0.9484,-0.9735,-1.0048,-1.042,-1.0811,-1.1226,-1.1771,-1.2278,-1.2647,-1.3035,-1.3447,-1.4014,-1.4571,-1.5277,-1.5691,-1.5836,-1.5973,-1.6142,-1.6212,-1.6331,-1.6804,-1.6992,-1.7181,-1.7537,-1.8144,-1.8306,-1.8319,-1.8372,-1.8666,-1.8658,-1.8279,-1.7898,-1.7621,-1.7288,-1.7383,-1.7558,-1.7504,-1.7639,-1.8204,-1.9206,-2.0084,-2.0597,-2.0772,-2.1005,-2.1358,-2.151,-2.1675,-2.2013,-2.2262,-2.27,-2.3039,-2.3212,-2.3588,-2.3971,-2.4336,-2.4648,-2.5136,-2.5568,-2.5819,-2.5922,-2.6014,-2.618,-2.671,-2.727,-2.7689,-2.8094,-2.8023,-2.8153,-2.8622,0.2934,0.2685,0.2348,0.1849,0.1346,0.1122,0.0952,0.0615,0.0112,-0.0392,-0.084,-0.0785,-0.0785,-0.084,-0.1065,-0.1343,-0.1619,-0.2006,-0.2473,-0.2895,-0.3198,-0.3416,-0.3618,-0.3746,-0.3799,-0.409,-0.4355,-0.4544,-0.4692,-0.5296,-0.5387,-0.5425,-0.576,-0.6051,-0.6263,-0.6679,-0.6921,-0.7041,-0.7139,-0.7328,-0.7532,-0.7666,-0.783,-0.8024,-0.8346,-0.8635,-0.8718,-0.9043,-0.9337,-0.9644,-1.0051,-1.0479,-1.0963,-1.1594,-1.2141,-1.2618,-1.2977,-1.3494,-1.4061,-1.513,-1.5591,-1.5647,-1.5772,-1.5961,-1.6144,-1.6306,-1.6436,-1.6748,-1.6845,-1.6991,-1.7325,-1.7648,-1.7652,-1.7791,-1.8096,-1.8153,-1.7787,-1.7631,-1.7394,-1.7248,-1.7436,-1.7598,-1.7409,-1.7421,-1.7767,-1.8542,-1.9514,-2.0047,-2.0239,-2.066,-2.1064,-2.1361,-2.1554,-2.1828,-2.2186,-2.2311,-2.2544,-2.2698,-2.3008,-2.3493,-2.3717,-2.3871,-2.4393,-2.5067,-2.5194,-2.5198,-2.5485,-2.5879,-2.606,-2.6288,-2.7481,-2.7931,-2.7794,-2.7798,-2.8186,0.4225,0.3849,0.3461,0.2963,0.2462,0.1792,0.1511,0.123,0.0616,0.0168,-0.0056,-0.0224,-0.028,-0.0336,-0.0504,-0.0672,-0.0781,-0.1251,-0.1708,-0.2007,-0.2442,-0.2859,-0.3072,-0.3184,-0.3342,-0.3546,-0.3755,-0.4096,-0.4408,-0.484,-0.5014,-0.5101,-0.5188,-0.5399,-0.5755,-0.6099,-0.6313,-0.6258,-0.6471,-0.6725,-0.6894,-0.7027,-0.716,-0.7286,-0.7666,-0.7895,-0.7902,-0.8323,-0.856,-0.8907,-0.9361,-0.9847,-1.0501,-1.1173,-1.1518,-1.2033,-1.2491,-1.318,-1.3988,-1.4915,-1.54,-1.5412,-1.5614,-1.5905,-1.6144,-1.6306,-1.6466,-1.6637,-1.682,-1.7002,-1.7232,-1.734,-1.7411,-1.7466,-1.7639,-1.7626,-1.7457,-1.7514,-1.7435,-1.7422,-1.7516,-1.7529,-1.7407,-1.7258,-1.7508,-1.7935,-1.8808,-1.9562,-1.9919,-2.0497,-2.0993,-2.141,-2.165,-2.1921,-2.2156,-2.2402,-2.2569,-2.2778,-2.2944,-2.3167,-2.3301,-2.3435,-2.3703,-2.4403,-2.4432,-2.4474,-2.4878,-2.5119,-2.4864,-2.5227,-2.6382,-2.7134,-2.6965,-2.7131,-2.7556,0.523,0.4901,0.4457,0.4012,0.3516,0.2681,0.2125,0.1846,0.1287,0.0896,0.0616,0.0336,0.0224,0.0168,0.0,-0.0111,-0.0055,-0.0432,-0.0878,-0.1178,-0.1613,-0.1991,-0.2313,-0.2587,-0.2794,-0.3037,-0.3347,-0.37,-0.3785,-0.4272,-0.4535,-0.4709,-0.4792,-0.5058,-0.5366,-0.5669,-0.5798,-0.5793,-0.6002,-0.6215,-0.6477,-0.6653,-0.6823,-0.7027,-0.7251,-0.7426,-0.7419,-0.7566,-0.7876,-0.8384,-0.8854,-0.9412,-1.0187,-1.0763,-1.1156,-1.1733,-1.2314,-1.2949,-1.3621,-1.4129,-1.4582,-1.488,-1.5513,-1.6057,-1.6275,-1.638,-1.6509,-1.668,-1.696,-1.7128,-1.7212,-1.7253,-1.7337,-1.7432,-1.7432,-1.7432,-1.7474,-1.7488,-1.7488,-1.7475,-1.7447,-1.7406,-1.7365,-1.7269,-1.7251,-1.7646,-1.8096,-1.8837,-1.9582,-2.0306,-2.0944,-2.1424,-2.1813,-2.2077,-2.2296,-2.2586,-2.2752,-2.2872,-2.3007,-2.3171,-2.3305,-2.3526,-2.3611,-2.3739,-2.4064,-2.4298,-2.4319,-2.4361,-2.4514,-2.4694,-2.5222,-2.5728,-2.5975,-2.6458,-2.691,0.5982,0.5769,0.5382,0.4999,0.4615,0.3677,0.2961,0.2519,0.2296,0.1843,0.1226,0.1222,0.0995,0.0722,0.0501,0.0437,0.0426,0.0211,-0.0101,-0.0438,-0.071,-0.1107,-0.1542,-0.188,-0.2099,-0.2502,-0.2857,-0.3078,-0.3078,-0.3565,-0.4005,-0.4228,-0.4272,-0.4622,-0.4975,-0.5198,-0.5366,-0.5496,-0.5577,-0.5836,-0.6136,-0.6319,-0.6568,-0.6816,-0.7118,-0.7245,-0.7328,-0.7594,-0.7844,-0.8223,-0.8563,-0.9209,-0.9893,-1.0544,-1.1156,-1.18,-1.2363,-1.2618,-1.3007,-1.3467,-1.3978,-1.4582,-1.5579,-1.6194,-1.6479,-1.6466,-1.6595,-1.6723,-1.6947,-1.717,-1.735,-1.7406,-1.7434,-1.7475,-1.7475,-1.7475,-1.7529,-1.7529,-1.7461,-1.7419,-1.735,-1.7308,-1.717,-1.7086,-1.7199,-1.7442,-1.7898,-1.8422,-1.9244,-2.0259,-2.0873,-2.1511,-2.189,-2.2203,-2.2449,-2.2692,-2.2737,-2.2826,-2.3171,-2.3334,-2.3494,-2.3653,-2.3797,-2.3967,-2.4109,-2.425,-2.439,-2.4513,-2.4626,-2.4766,-2.4875,-2.5004,-2.5439,-2.5913,-2.6392,0.723,0.6972,0.6632,0.6303,0.5814,0.4988,0.4171,0.3461,0.3292,0.287,0.2368,0.2207,0.1922,0.1508,0.1193,0.119,0.107,0.0949,0.0732,0.0474,0.0231,-0.0136,-0.0493,-0.0849,-0.1117,-0.1607,-0.2055,-0.241,-0.2499,-0.2943,-0.3347,-0.3615,-0.3744,-0.414,-0.4495,-0.4723,-0.4932,-0.5193,-0.5231,-0.5577,-0.5836,-0.6013,-0.627,-0.6575,-0.6878,-0.6999,-0.7083,-0.7293,-0.7503,-0.7748,-0.8086,-0.8598,-0.9297,-0.9856,-1.0493,-1.158,-1.1927,-1.2076,-1.2666,-1.3094,-1.3552,-1.4247,-1.5107,-1.5712,-1.612,-1.6436,-1.6607,-1.6778,-1.7031,-1.7295,-1.7432,-1.7488,-1.7516,-1.7516,-1.7529,-1.7529,-1.7543,-1.7502,-1.7461,-1.7406,-1.7337,-1.7128,-1.7002,-1.717,-1.7323,-1.7421,-1.7732,-1.8232,-1.8859,-1.9833,-2.0795,-2.1411,-2.1829,-2.214,-2.248,-2.2706,-2.2752,-2.2797,-2.3157,-2.3466,-2.3611,-2.3769,-2.4024,-2.4193,-2.4302,-2.4441,-2.4564,-2.4599,-2.4563,-2.4617,-2.4686,-2.478,-2.492,-2.5284,-2.5611,0.8514,0.8302,0.7972,0.7481,0.6891,0.6352,0.5647,0.4992,0.4283,0.3776,0.3392,0.3287,0.2909,0.2387,0.2248,0.213,0.2013,0.1742,0.1559,0.1516,0.122,0.0808,0.0492,0.0089,-0.0403,-0.0849,-0.1206,-0.1561,-0.1741,-0.2099,-0.2502,-0.3037,-0.3167,-0.3565,-0.3917,-0.4052,-0.4176,-0.4526,-0.4836,-0.528,-0.5534,-0.575,-0.6062,-0.6367,-0.6623,-0.6708,-0.6702,-0.6956,-0.7209,-0.7447,-0.7739,-0.8223,-0.9052,-0.9761,-1.0535,-1.1522,-1.1728,-1.1868,-1.2264,-1.255,-1.316,-1.3852,-1.4492,-1.5062,-1.5736,-1.62,-1.6504,-1.6791,-1.7128,-1.7419,-1.7502,-1.7543,-1.7584,-1.7611,-1.7584,-1.7556,-1.7515,-1.7515,-1.7419,-1.7352,-1.7227,-1.7018,-1.7031,-1.724,-1.7406,-1.7544,-1.776,-1.8193,-1.87,-1.9349,-2.0392,-2.1268,-2.1699,-2.2062,-2.2341,-2.2591,-2.274,-2.2875,-2.3172,-2.3451,-2.3655,-2.3927,-2.4223,-2.4359,-2.4533,-2.4521,-2.4429,-2.4438,-2.446,-2.4421,-2.4349,-2.4433,-2.4363,-2.4334,-2.4608,0.9858,0.9658,0.9287,0.8652,0.7906,0.7646,0.7331,0.6934,0.5681,0.4707,0.4435,0.4442,0.4151,0.3639,0.3453,0.3235,0.3037,0.2775,0.2488,0.2544,0.2237,0.1786,0.1252,0.076,0.0492,-0.0045,-0.0491,-0.0714,-0.0984,-0.1297,-0.1743,-0.2368,-0.2413,-0.2765,-0.3296,-0.3252,-0.3334,-0.3551,-0.3953,-0.4355,-0.5135,-0.5577,-0.5847,-0.6319,-0.6526,-0.6696,-0.6647,-0.6823,-0.7041,-0.7286,-0.765,-0.8104,-0.9165,-0.9935,-1.0807,-1.146,-1.171,-1.1968,-1.2157,-1.2452,-1.2783,-1.3341,-1.3841,-1.4457,-1.5232,-1.6025,-1.6417,-1.6663,-1.6989,-1.724,-1.7378,-1.7625,-1.7747,-1.7666,-1.7625,-1.7679,-1.7787,-1.7638,-1.7406,-1.731,-1.7157,-1.6989,-1.7031,-1.724,-1.757,-1.7679,-1.7922,-1.8321,-1.8581,-1.9097,-1.981,-2.0867,-2.1265,-2.1595,-2.1971,-2.2248,-2.2701,-2.2951,-2.3186,-2.3596,-2.3872,-2.417,-2.4421,-2.4517,-2.4594,-2.4343,-2.4255,-2.4141,-2.4,-2.3745,-2.3775,-2.4026,-2.3906,-2.3562,-2.3827,1.1249,1.0618,1.021,0.9843,0.9585,0.9318,0.8908,0.8475,0.7923,0.6901,0.5892,0.5733,0.5521,0.505,0.4626,0.438,0.4202,0.3851,0.3465,0.3347,0.3161,0.2763,0.2279,0.1875,0.152,0.1164,0.0716,0.0179,-0.0045,-0.0447,-0.0848,-0.1382,-0.1515,-0.1917,-0.2453,-0.2317,-0.2404,-0.2578,-0.2669,-0.3155,-0.3894,-0.4343,-0.4657,-0.5178,-0.5475,-0.5959,-0.6087,-0.6428,-0.6647,-0.6901,-0.7356,-0.8298,-0.9661,-1.0043,-1.0759,-1.1518,-1.1751,-1.2008,-1.2393,-1.2638,-1.3074,-1.36,-1.4107,-1.4351,-1.4858,-1.5736,-1.6275,-1.6509,-1.6808,-1.7073,-1.7337,-1.7625,-1.7828,-1.7747,-1.7652,-1.7815,-1.7963,-1.7733,-1.7447,-1.7282,-1.7128,-1.7086,-1.7115,-1.7323,-1.7598,-1.7895,-1.8228,-1.8478,-1.8581,-1.8917,-1.9185,-2.0046,-2.0613,-2.0998,-2.1427,-2.1816,-2.2207,-2.2745,-2.302,-2.3543,-2.4024,-2.4189,-2.4311,-2.4563,-2.4625,-2.4227,-2.3856,-2.3679,-2.3478,-2.3093,-2.3018,-2.3189,-2.2846,-2.2449,-2.2955,1.2792,1.2092,1.1458,1.1065,1.0914,1.0653,1.0246,0.9805,0.9632,0.9004,0.8012,0.7353,0.674,0.6304,0.5783,0.554,0.536,0.4935,0.4631,0.4395,0.4125,0.373,0.3334,0.2984,0.2495,0.2097,0.1609,0.1117,0.0937,0.0669,0.0312,-0.0133,-0.0445,-0.0803,-0.125,-0.1248,-0.1339,-0.147,-0.1339,-0.1692,-0.2485,-0.3064,-0.3862,-0.4339,-0.4735,-0.513,-0.5399,-0.5701,-0.5867,-0.6124,-0.6452,-0.7201,-0.82,-0.8722,-0.9691,-1.0653,-1.1312,-1.1832,-1.2463,-1.2957,-1.3351,-1.3826,-1.4305,-1.4468,-1.4674,-1.5457,-1.578,-1.6064,-1.6808,-1.7157,-1.7282,-1.7488,-1.7666,-1.7666,-1.757,-1.7625,-1.776,-1.7746,-1.7569,-1.7406,-1.7365,-1.7406,-1.7488,-1.7652,-1.7895,-1.7895,-1.8228,-1.8553,-1.8669,-1.8936,-1.9157,-1.9483,-2.0193,-2.0662,-2.1109,-2.1423,-2.1723,-2.2253,-2.2757,-2.2996,-2.3286,-2.3834,-2.4205,-2.4163,-2.41,-2.3827,-2.3533,-2.3181,-2.2683,-2.2264,-2.2232,-2.2313,-2.1876,-2.1633,-2.2118,1.431,1.3747,1.288,1.2346,1.2101,1.1805,1.1507,1.1107,1.1107,1.0956,1.0394,0.9127,0.8001,0.7354,0.6942,0.6708,0.6378,0.5891,0.5674,0.5394,0.5173,0.473,0.4339,0.3946,0.346,0.2934,0.2453,0.2275,0.2142,0.1827,0.1514,0.1244,0.0889,0.0491,0.0267,0.0089,-0.0089,-0.0223,-0.0268,-0.0447,-0.1159,-0.2002,-0.2976,-0.3639,-0.4077,-0.4256,-0.453,-0.4753,-0.4879,-0.5173,-0.5604,-0.6407,-0.7173,-0.7808,-0.878,-0.9768,-1.0473,-1.1265,-1.2101,-1.2609,-1.313,-1.37,-1.4215,-1.456,-1.4755,-1.513,-1.5457,-1.5932,-1.6723,-1.7157,-1.724,-1.7419,-1.7584,-1.7611,-1.7529,-1.7529,-1.7706,-1.7841,-1.7747,-1.7611,-1.772,-1.776,-1.7962,-1.8135,-1.8175,-1.8135,-1.824,-1.8486,-1.8765,-1.9192,-1.9509,-1.9731,-2.0169,-2.0581,-2.0757,-2.1101,-2.1336,-2.1575,-2.2018,-2.2217,-2.2627,-2.3417,-2.3765,-2.3451,-2.3349,-2.3229,-2.2928,-2.2573,-2.2053,-2.1663,-2.1728,-2.1873,-2.1729,-2.1535,-2.1533,1.5576,1.4982,1.4321,1.3893,1.3622,1.3406,1.3044,1.2667,1.2667,1.2463,1.1975,1.1513,1.0615,0.947,0.8623,0.8116,0.7688,0.7061,0.6453,0.6118,0.6149,0.5765,0.5336,0.4981,0.4509,0.3989,0.3554,0.3296,0.3246,0.2937,0.2583,0.231,0.1916,0.1649,0.1467,0.129,0.1027,0.0849,0.0582,0.0358,-0.0537,-0.134,-0.201,-0.2674,-0.3337,-0.3558,-0.3778,-0.4081,-0.4212,-0.4474,-0.487,-0.5624,-0.6343,-0.7102,-0.8058,-0.9014,-0.9745,-1.0697,-1.149,-1.2209,-1.2831,-1.3632,-1.4111,-1.4606,-1.4937,-1.549,-1.5756,-1.6008,-1.6625,-1.6989,-1.7199,-1.7502,-1.772,-1.7625,-1.7529,-1.7774,-1.7963,-1.8057,-1.8069,-1.8161,-1.8266,-1.8422,-1.8669,-1.8822,-1.8959,-1.8997,-1.9058,-1.9266,-1.9449,-1.9717,-1.9879,-2.0142,-2.0334,-2.004,-2.002,-2.073,-2.1039,-2.1167,-2.1379,-2.1771,-2.2346,-2.3251,-2.3394,-2.2903,-2.2796,-2.2735,-2.2394,-2.2099,-2.1871,-2.1593,-2.1528,-2.1528,-2.1464,-2.1481,-2.1559]}]]